Date StartTime U_cm/s V_cm/s W_cm/s Ustd_cm/s Vstd_cm/s Wstd_cm/s Uvar_(cm/s)^2 Vvar_(cm/s)^2 Wvar_(cm/s)^2 KE_(m/s)^2 TurbulentKE_(m/s)^2 HorizWindSpeed_cm/s FrictionSpeec_cm/s DragCoef SpeedOfSound_m/s SonicTemperature_C Pressure_mb 
01/07/2014  00:00:00     -101.504       -7.076       -9.832       35.754       32.347       14.453     1278.360     1046.306      208.895        0.649        0.127      101.750        4.731        0.002      332.521        1.237      866.048
01/07/2014  00:01:00     -172.298       26.761      -18.009       27.022       18.468       15.575      730.179      341.061      242.595        1.602        0.066      174.364       11.573        0.004      332.529        1.250      866.040
01/07/2014  00:02:00     -124.994       37.894       -6.751       38.039       33.020       18.991     1446.984     1090.315      360.672        1.000        0.145      130.611       13.091        0.010      332.528        1.251      866.062
01/07/2014  00:03:00     -124.409       -7.204      -15.036       29.399       50.371       18.303      864.285     2537.277      334.998        0.975        0.187      124.618       14.912        0.014      332.422        1.075      866.097
01/07/2014  00:04:00       -5.848      -43.044        1.633       55.910       30.096       26.672     3125.905      905.773      711.418        0.332        0.237       43.439       28.177        0.421      332.498        1.200      866.096
01/07/2014  00:05:00      -34.608      -13.427        6.245       41.752       15.419       16.085     1743.237      237.731      258.739        0.183        0.112       37.121       17.983        0.235      332.489        1.183      866.077
01/07/2014  00:06:00      -41.074      -17.113        0.046       23.275       15.879       14.790      541.717      252.149      218.736        0.150        0.051       44.496       15.120        0.115      332.547        1.279      866.065
01/07/2014  00:07:00      -74.029      -34.200       -3.487       21.656       24.972       11.670      468.986      623.578      136.188        0.395        0.061       81.548       10.181        0.016      332.604        1.374      866.053
01/07/2014  00:08:00       -3.160      -47.220        5.442       35.711       27.262       16.663     1275.291      743.224      277.669        0.228        0.115       47.326       14.893        0.099      332.686        1.510      866.044
01/07/2014  00:09:00      -77.569     -111.695       -8.388       24.880       21.184       17.705      619.004      448.749      313.468        0.997        0.069      135.989       16.523        0.015      332.677        1.496      866.034
01/07/2014  00:10:00      -87.506      -87.873       -1.597       27.813       29.517       19.242      773.546      871.248      370.243        0.870        0.101      124.012       17.064        0.019      332.732        1.586      866.020
01/07/2014  00:11:00     -103.239     -112.753       -5.694       33.382       26.582       22.114     1114.336      706.597      489.051        1.286        0.115      152.878       21.030        0.019      332.703        1.540      866.018
01/07/2014  00:12:00      -76.171     -109.004        2.613       36.767       45.461       28.272     1351.799     2066.738      799.304        1.095        0.211      132.981       29.120        0.048      332.727        1.578      866.025
01/07/2014  00:13:00      -36.567      -63.512       -3.702       38.440       52.765       26.329     1477.641     2784.100      693.238        0.517        0.248       73.286       15.989        0.048      332.799        1.696      866.015
01/07/2014  00:14:00      -27.873      -27.640       12.548       35.746       27.309       23.906     1277.797      745.757      571.507        0.215        0.130       39.254       12.744        0.105      332.803        1.703      866.002
01/07/2014  00:15:00      -59.743      -31.532       -3.190       23.651       16.457       16.857      559.393      270.839      284.158        0.284        0.056       67.553       10.995        0.026      332.780        1.665      866.003
01/07/2014  00:16:00      -80.311      -49.076      -14.267       25.522       16.408       15.321      651.385      269.225      234.727        0.511        0.058       94.118       11.740        0.016      332.768        1.646      866.030
01/07/2014  00:17:00      -69.485       18.252       -6.901       25.362       25.445       12.074      643.225      647.441      145.785        0.332        0.072       71.842       13.273        0.034      332.633        1.424      866.045
01/07/2014  00:18:00      -92.510       79.537      -21.774       20.492       26.254       13.835      419.912      689.267      191.416        0.833        0.065      122.001       12.584        0.011      332.692        1.520      866.067
01/07/2014  00:19:00      -72.357       79.227      -14.182       26.317       28.941       17.850      692.565      837.596      318.608        0.678        0.092      107.296       14.269        0.018      332.691        1.517      866.063
01/07/2014  00:20:00      -69.510       78.822      -17.149       19.151       21.034       16.495      366.746      442.437      272.098        0.621        0.054      105.093       10.894        0.011      332.677        1.494      866.020
01/07/2014  00:21:00      -75.359       93.265      -22.890       16.613       19.474       13.512      275.976      379.250      182.561        0.787        0.042      119.905        9.203        0.006      332.525        1.244      865.976
01/07/2014  00:22:00      -90.687       85.295      -23.575       22.041       26.355       17.202      485.799      694.609      295.912        0.877        0.074      124.496       16.012        0.017      332.575        1.327      865.963
01/07/2014  00:23:00     -146.410       45.809       -9.694       35.713       32.577       23.909     1275.452     1061.283      571.633        1.327        0.145      153.409       17.952        0.014      332.794        1.688      865.942
01/07/2014  00:24:00     -116.883       44.136       -3.416       44.388       27.017       28.958     1970.261      729.919      838.553        0.958        0.177      124.939       21.815        0.030      332.965        1.971      865.934
01/07/2014  00:25:00      -64.887       31.079       -2.543       38.583       26.552       23.736     1488.686      705.000      563.411        0.397        0.138       71.946       23.669        0.108      332.872        1.818      865.924
01/07/2014  00:26:00      -32.826       64.437      -13.745       26.147       22.426       19.393      683.656      502.937      376.081        0.349        0.078       72.317       16.740        0.054      333.123        2.233      865.911
01/07/2014  00:27:00      -42.415       59.643      -10.803       17.656       24.334       16.221      311.734      592.154      263.123        0.332        0.058       73.187       12.977        0.031      332.868        1.810      865.893
01/07/2014  00:28:00      -12.881       37.460       -0.044       34.634       22.164       16.381     1199.525      491.236      268.333        0.176        0.098       39.613       16.342        0.170      332.847        1.776      865.871
01/07/2014  00:29:00       22.217       16.683       16.389       14.489       15.238       15.848      209.923      232.191      251.167        0.087        0.035       27.783       11.156        0.161      332.640        1.434      865.854
01/07/2014  00:30:00       20.260        6.676        7.991       18.181       14.798       17.606      330.559      218.984      309.985        0.069        0.043       21.332       13.109        0.378      332.377        1.001      865.857
01/07/2014  00:31:00       12.044        9.784       22.281       16.529        9.982        7.866      273.206       99.636       61.877        0.059        0.022       15.517        6.094        0.154      332.318        0.903      865.863
01/07/2014  00:32:00       59.214       22.006        3.682       12.726       10.010        8.561      161.945      100.197       73.290        0.217        0.017       63.171        6.884        0.012      332.254        0.796      865.857
01/07/2014  00:33:00       24.925        3.366        0.639       20.759       11.258       11.129      430.945      126.735      123.856        0.066        0.034       25.152        8.041        0.102      332.305        0.881      865.864
01/07/2014  00:34:00        5.335       16.685        1.753       12.521       12.172        7.238      156.774      148.152       52.382        0.033        0.018       17.517        7.814        0.199      332.440        1.104      865.876
01/07/2014  00:35:00       -9.391       -4.400       -2.982        9.019        6.054        7.692       81.346       36.652       59.169        0.015        0.009       10.371        5.277        0.259      332.533        1.257      865.875
01/07/2014  00:36:00       -0.153        2.691        0.665        3.450        5.092        4.257       11.901       25.929       18.120        0.003        0.003        2.695        1.594        0.350      332.650        1.450      865.856
01/07/2014  00:37:00      -18.316      -18.747       -5.426        9.446       10.758        5.441       89.230      115.734       29.609        0.048        0.012       26.210        6.210        0.056      332.668        1.479      865.844
01/07/2014  00:38:00      -24.898      -19.505       -5.375       11.156        9.317        6.020      124.465       86.798       36.237        0.064        0.012       31.629        5.521        0.030      332.498        1.197      865.847
01/07/2014  00:39:00      -39.706      -14.586       -6.343        5.039        6.727        4.648       25.390       45.247       21.600        0.096        0.005       42.300        2.556        0.004      332.570        1.319      865.855
01/07/2014  00:40:00      -56.979      -13.578       -5.519        9.944        8.603        5.125       98.886       74.019       26.263        0.183        0.010       58.574        4.469        0.006      332.454        1.127      865.851
01/07/2014  00:41:00      -75.363       -6.231      -11.386       10.213       10.383        6.675      104.315      107.814       44.557        0.305        0.013       75.620        4.648        0.004      332.376        0.999      865.843
01/07/2014  00:42:00     -107.940       11.265      -11.351       15.466       16.885        6.085      239.199      285.114       37.026        0.623        0.028      108.526        2.883        0.001      332.369        0.986      865.816
01/07/2014  00:43:00      -85.183       25.915      -12.023       33.749       23.317       18.781     1138.995      543.676      352.730        0.505        0.102       89.038       17.523        0.039      332.378        1.001      865.781
01/07/2014  00:44:00      -56.798       18.434       -9.323       30.705       25.474       19.525      942.804      648.945      381.209        0.281        0.099       59.714       17.914        0.090      332.348        0.951      865.736
01/07/2014  00:45:00      -67.584        9.363       -7.287       22.238       23.742       16.092      494.550      563.683      258.937        0.301        0.066       68.230       11.496        0.028      332.358        0.967      865.715
01/07/2014  00:46:00      -61.910      -15.993      -15.804       14.759       17.671       11.622      217.815      312.249      135.073        0.250        0.033       63.942        6.518        0.010      332.283        0.846      865.715
01/07/2014  00:47:00      -67.156      -22.991       -5.340       24.461       25.481       15.081      598.327      649.264      227.442        0.327        0.074       70.982        9.696        0.019      332.153        0.630      865.724
01/07/2014  00:48:00      -30.528      -35.433        2.886       46.325       26.173       25.490     2146.024      685.045      649.737        0.284        0.174       46.770       18.577        0.158      332.132        0.596      865.731
01/07/2014  00:49:00      -48.905      -29.432        2.573       38.711       28.396       18.895     1498.504      806.344      357.007        0.296        0.133       57.078       21.468        0.141      332.087        0.523      865.747
01/07/2014  00:50:00      -27.391      -44.173        6.090       25.814       27.463       16.083      666.337      754.216      258.662        0.221        0.084       51.976        9.073        0.030      332.316        0.899      865.746
01/07/2014  00:51:00      -43.301      -43.875        3.769       37.876       17.868       15.441     1434.588      319.277      238.416        0.290        0.100       61.644       11.744        0.036      332.325        0.912      865.753
01/07/2014  00:52:00      -71.529      -20.577        4.036       32.780       27.262       16.609     1074.510      743.234      275.852        0.382        0.105       74.430       15.552        0.044      332.193        0.697      865.760
01/07/2014  00:53:00     -116.094       32.486       -3.390       33.118       23.886       17.642     1096.783      570.557      311.234        0.826        0.099      120.554       15.077        0.016      332.116        0.570      865.781
01/07/2014  00:54:00     -124.967       -6.103       -9.310       46.550       36.733       26.771     2166.931     1349.306      716.696        0.999        0.212      125.116       23.801        0.036      332.061        0.479      865.802
01/07/2014  00:55:00      -69.258        2.057       -7.582       47.346       29.139       26.291     2241.660      849.082      691.233        0.432        0.189       69.288       28.590        0.170      331.961        0.313      865.820
01/07/2014  00:56:00      -42.215        7.881       -0.108       33.954       20.630       17.919     1152.848      425.608      321.087        0.187        0.095       42.944       14.216        0.110      331.924        0.254      865.817
01/07/2014  00:57:00      -64.128       26.062      -14.676       26.530       17.053       15.468      703.837      290.807      239.269        0.312        0.062       69.221       12.303        0.032      332.201        0.711      865.804
01/07/2014  00:58:00      -51.632      -32.967       -2.482       26.215       33.786       13.751      687.214     1141.509      189.098        0.289        0.101       61.259        8.928        0.021      332.070        0.495      865.794
01/07/2014  00:59:00      -64.424      -24.992       -2.901       27.353       39.902       15.237      748.194     1592.132      232.154        0.368        0.129       69.102       14.667        0.045      331.986        0.357      865.786
01/07/2014  01:00:00      -49.344       19.804       -2.203       18.112       12.512       10.339      328.059      156.554      106.900        0.171        0.030       53.170        7.975        0.022      331.891        0.200      865.775
01/07/2014  01:01:00      -57.082        1.822      -15.051       17.754       19.510        9.753      315.195      380.638       95.114        0.214        0.040       57.111        5.643        0.010      331.962        0.316      865.763
01/07/2014  01:02:00      -62.897      -40.202      -11.181       17.969       16.989       12.558      322.881      288.617      157.716        0.323        0.038       74.647        4.277        0.003      331.896        0.209      865.760
01/07/2014  01:03:00      -69.088      -45.736       -2.983       38.701       25.203       18.697     1497.732      635.180      349.582        0.468        0.124       82.855       18.116        0.048      331.863        0.154      865.747
01/07/2014  01:04:00      -28.693      -49.040      -17.924       41.069       21.268       11.805     1686.623      452.344      139.362        0.291        0.114       56.817        6.123        0.012      331.899        0.213      865.735
01/07/2014  01:05:00      -69.759      -55.048       -4.512       35.127       24.745       19.871     1233.921      612.331      394.838        0.508        0.112       88.863        5.732        0.004      331.863        0.152      865.739
01/07/2014  01:06:00     -102.438      -58.576        2.163       46.726       41.331       27.262     2183.360     1708.213      743.229        0.928        0.232      118.003       23.805        0.041      331.771        0.000      865.746
01/07/2014  01:07:00     -112.495      -55.147        4.395       45.109       35.874       22.193     2034.848     1286.939      492.545        0.976        0.191      125.285       19.868        0.025      331.796        0.042      865.748
01/07/2014  01:08:00     -112.302      -38.850       -7.307       25.059       25.787       15.529      627.968      664.944      241.136        0.785        0.077      118.832        8.764        0.005      331.833        0.104      865.752
01/07/2014  01:09:00      -76.348      -39.562        0.904       30.128       31.453       16.181      907.670      989.271      261.810        0.478        0.108       85.989       14.426        0.028      331.846        0.126      865.743
01/07/2014  01:10:00      -79.928      -33.146       -6.764       31.220       19.058       15.596      974.679      363.190      243.248        0.456        0.079       86.528       16.667        0.037      331.795        0.041      865.721
01/07/2014  01:11:00      -83.260      -33.635       -6.197       28.798       16.710       11.547      829.322      279.223      133.336        0.467        0.062       89.798        4.030        0.002      331.800        0.049      865.690
01/07/2014  01:12:00     -106.892      -38.793       -8.032       18.745       17.989       10.203      351.371      323.607      104.109        0.689        0.039      113.713        8.888        0.006      331.819        0.079      865.694
01/07/2014  01:13:00     -114.939      -54.901       -5.706       15.085       21.876       13.495      227.571      478.575      182.116        0.857        0.044      127.378        8.319        0.004      331.760       -0.017      865.708
01/07/2014  01:14:00     -107.708      -33.781       -2.201       20.660       20.802       12.577      426.831      432.703      158.176        0.688        0.051      112.882        9.433        0.007      331.787        0.027      865.697
01/07/2014  01:15:00      -78.998      -25.703       -2.958       25.499       16.234       10.503      650.190      263.530      110.311        0.397        0.051       83.074        7.574        0.008      331.777        0.012      865.691
01/07/2014  01:16:00     -114.595      -39.416        2.214       22.017       13.556       13.888      484.741      183.752      192.875        0.778        0.043      121.184       13.065        0.012      331.714       -0.092      865.707
01/07/2014  01:17:00      -85.456      -33.003        0.655       35.268       19.826       15.187     1243.837      393.083      230.645        0.513        0.093       91.608       17.269        0.036      331.745       -0.042      865.715
01/07/2014  01:18:00      -80.546      -22.905       -3.062       15.966       14.663       10.583      254.898      214.990      112.006        0.380        0.029       83.740        7.266        0.008      331.745       -0.041      865.737
01/07/2014  01:19:00      -76.589       -9.112       -3.160       20.295       14.071       13.482      411.890      197.985      181.760        0.338        0.040       77.129       12.352        0.026      331.665       -0.171      865.774
01/07/2014  01:20:00     -108.657      -19.098       -8.192       24.700       14.030       15.942      610.097      196.849      254.151        0.665        0.053      110.323       13.479        0.015      331.639       -0.216      865.782
01/07/2014  01:21:00     -136.573       -9.748      -13.449       23.268       11.024       11.907      541.379      121.525      141.766        0.987        0.040      136.921       13.195        0.009      331.613       -0.259      865.767
01/07/2014  01:22:00     -126.105       -7.768      -13.685       32.190       21.612       15.822     1036.227      467.088      250.344        0.895        0.088      126.344       14.610        0.013      331.570       -0.330      865.726
01/07/2014  01:23:00      -80.876       -6.628       -3.285       50.489       37.304       23.176     2549.181     1391.611      537.128        0.554        0.224       81.148       23.362        0.083      331.504       -0.438      865.694
01/07/2014  01:24:00      -60.474        6.854        0.166       42.947       28.336       25.163     1844.437      802.904      633.169        0.349        0.164       60.862       26.082        0.184      331.478       -0.482      865.682
01/07/2014  01:25:00      -80.945      -37.057        0.225       40.288       34.760       26.414     1623.133     1208.285      697.707        0.573        0.176       89.024       23.138        0.068      331.492       -0.458      865.716
01/07/2014  01:26:00     -126.031        3.116        0.396       64.975       35.352       28.359     4221.745     1249.756      804.219        1.108        0.314      126.070       30.740        0.059      331.370       -0.659      865.739
01/07/2014  01:27:00     -134.521       20.521      -17.085       57.029       27.221       20.973     3252.257      741.001      439.869        1.162        0.222      136.077       18.228        0.018      331.493       -0.458      865.735
01/07/2014  01:28:00      -50.729       -9.756       -3.458       33.096       25.499       19.143     1095.336      650.199      366.471        0.240        0.106       51.658        8.288        0.026      331.487       -0.466      865.749
01/07/2014  01:29:00      -60.314      -25.686       -4.932       60.269       25.483       17.908     3632.391      649.371      320.690        0.446        0.230       65.556       26.138        0.159      331.403       -0.605      865.762
01/07/2014  01:30:00     -114.513      -17.116      -11.035       40.950       34.529       25.304     1676.903     1192.233      640.308        0.852        0.175      115.785       15.555        0.018      331.309       -0.758      865.763
01/07/2014  01:31:00     -122.495        1.256      -10.581       55.600       33.540       24.684     3091.387     1124.951      609.316        0.997        0.241      122.502       27.932        0.052      331.227       -0.892      865.740
01/07/2014  01:32:00      -88.092        8.301      -12.927       23.301       31.178       19.655      542.955      972.063      386.324        0.495        0.095       88.483       15.364        0.030      331.292       -0.785      865.709
01/07/2014  01:33:00     -106.620      -44.793      -17.816       25.441       26.910       14.614      647.250      724.130      213.580        0.764        0.079      115.647       11.337        0.010      331.288       -0.794      865.695
01/07/2014  01:34:00      -82.691      -30.345      -10.099       31.903       32.059       21.660     1017.816     1027.762      469.138        0.519        0.126       88.083       19.217        0.048      331.251       -0.854      865.686
01/07/2014  01:35:00     -111.191      -38.298      -15.240       34.069       34.683       18.942     1160.701     1202.938      358.806        0.839        0.136      117.602       14.959        0.016      331.173       -0.983      865.678
01/07/2014  01:36:00     -140.216      -51.960      -17.055       31.207       29.493       17.997      973.853      869.840      323.886        1.241        0.108      149.534        6.951        0.002      331.176       -0.977      865.659
01/07/2014  01:37:00     -168.426      -73.082      -10.929       44.766       42.913       25.634     2003.967     1841.540      657.085        1.916        0.225      183.598       18.453        0.010      331.231       -0.888      865.630
01/07/2014  01:38:00     -113.338      -12.873       -4.375       34.830       32.856       23.385     1213.146     1079.506      546.838        0.793        0.142      114.067       21.665        0.036      331.155       -1.013      865.589
01/07/2014  01:39:00      -73.649       28.857      -13.216       35.254       30.439       24.309     1242.851      926.508      590.930        0.460        0.138       79.101       17.588        0.049      331.428       -0.564      865.548
01/07/2014  01:40:00      -61.946        6.232       -6.717       20.636       28.538       14.662      425.841      814.424      214.975        0.269        0.073       62.258       14.341        0.053      331.547       -0.367      865.527
01/07/2014  01:41:00      -69.582      -32.313      -19.781       19.368       18.421       13.481      375.108      339.338      181.748        0.359        0.045       76.718        5.899        0.006      331.306       -0.764      865.527
01/07/2014  01:42:00      -86.129      -24.973      -14.477       24.574       19.800       19.678      603.893      392.048      387.233        0.482        0.069       89.677       10.420        0.014      331.253       -0.850      865.556
01/07/2014  01:43:00      -84.696      -29.752       -9.742       31.494       22.818       25.021      991.889      520.639      626.072        0.515        0.107       89.770       16.385        0.033      331.253       -0.849      865.588
01/07/2014  01:44:00      -84.733      -35.192      -10.107       34.866       29.997       17.397     1215.655      899.815      302.658        0.547        0.121       91.751       16.126        0.031      331.214       -0.917      865.617
01/07/2014  01:45:00     -110.499      -32.450      -18.556       18.325       21.812       14.896      335.818      475.750      221.877        0.732        0.052      115.165        8.329        0.005      331.246       -0.861      865.611
01/07/2014  01:46:00     -100.317      -41.677       -8.672       45.955       30.411       21.266     2111.889      924.819      452.253        0.768        0.174      108.630       25.666        0.056      331.264       -0.833      865.609
01/07/2014  01:47:00      -89.339      -22.359        0.220       42.053       30.002       16.143     1768.433      900.129      260.584        0.570        0.146       92.094       19.450        0.045      331.277       -0.810      865.616
01/07/2014  01:48:00      -52.166       -8.992        6.653       28.494       27.279       18.215      811.890      744.124      331.797        0.237        0.094       52.935       18.413        0.121      331.280       -0.806      865.616
01/07/2014  01:49:00      -29.997      -25.938       -0.131       22.401       18.966       14.806      501.816      359.711      219.232        0.133        0.054       39.656       11.954        0.091      331.390       -0.626      865.605
01/07/2014  01:50:00      -19.908      -20.373       -8.550       18.434       11.522       14.958      339.814      132.756      223.733        0.079        0.035       28.485       11.576        0.165      331.510       -0.428      865.612
01/07/2014  01:51:00      -48.948      -25.627      -13.084       21.641       16.792       11.953      468.339      281.983      142.870        0.206        0.045       55.251        5.256        0.009      331.657       -0.188      865.640
01/07/2014  01:52:00      -90.207      -17.240      -11.464       17.756       17.252       11.993      315.281      297.619      143.840        0.466        0.038       91.840        9.612        0.011      331.455       -0.519      865.637
01/07/2014  01:53:00     -102.055       -7.904      -12.975       14.775       12.525       13.000      218.296      156.865      169.007        0.560        0.027      102.361        8.387        0.007      331.409       -0.596      865.617
01/07/2014  01:54:00      -57.479      -25.073      -13.744       12.262       12.542        9.724      150.367      157.307       94.550        0.226        0.020       62.709        8.365        0.018      331.446       -0.534      865.592
01/07/2014  01:55:00      -55.504      -36.914       -7.735       13.043       10.173        7.301      170.116      103.490       53.303        0.241        0.016       66.658        5.186        0.006      331.586       -0.304      865.609
01/07/2014  01:56:00      -77.082      -35.825       -9.306       13.122       10.479        7.081      172.192      109.815       50.134        0.382        0.017       85.001        6.449        0.006      331.500       -0.443      865.639
01/07/2014  01:57:00     -107.854      -21.628      -17.455        9.616       12.554       10.210       92.471      157.602      104.240        0.638        0.018      110.001        6.231        0.003      331.418       -0.581      865.647
01/07/2014  01:58:00     -102.565       -6.478      -18.306       18.790       11.148        8.122      353.059      124.287       65.965        0.572        0.027      102.769        6.987        0.005      331.387       -0.629      865.633
01/07/2014  01:59:00      -68.386      -16.810       -9.915        9.017        7.341        6.428       81.297       53.885       41.320        0.262        0.009       70.422        3.961        0.003      331.449       -0.530      865.607
01/07/2014  02:00:00      -71.298      -23.990      -10.623       10.489        9.960        7.267      110.013       99.207       52.814        0.302        0.013       75.226        3.860        0.003      331.462       -0.507      865.603
01/07/2014  02:01:00      -92.176      -24.853      -12.873       10.272       12.050        9.511      105.518      145.198       90.459        0.481        0.017       95.468        5.632        0.003      331.430       -0.560      865.607
01/07/2014  02:02:00      -97.315      -35.116       -8.582       16.392       14.725        9.993      268.709      216.821       99.860        0.568        0.029      103.457        8.250        0.006      331.479       -0.481      865.607
01/07/2014  02:03:00     -107.605      -17.251       -9.945       13.827       11.824       10.843      191.180      139.817      117.581        0.621        0.022      108.979        7.167        0.004      331.451       -0.526      865.617
01/07/2014  02:04:00     -107.291      -22.479       -9.013       19.157       14.204       12.313      367.008      201.744      151.603        0.641        0.036      109.621        9.329        0.007      331.412       -0.592      865.652
01/07/2014  02:05:00      -45.416      -32.086       -1.594       17.348       13.780        9.852      300.968      189.876       97.066        0.184        0.029       55.607        7.401        0.018      331.397       -0.616      865.671
01/07/2014  02:06:00      -66.977      -37.256       -4.029       22.984       24.799       10.023      528.278      614.994      100.458        0.357        0.062       76.642        9.833        0.016      331.379       -0.643      865.676
01/07/2014  02:07:00      -55.714      -53.343        1.736       36.994       19.705       18.117     1368.551      388.272      328.238        0.402        0.104       77.133       17.444        0.051      331.323       -0.736      865.677
01/07/2014  02:08:00      -44.105      -42.396        3.999       36.536       19.158       17.670     1334.847      367.037      312.229        0.289        0.101       61.177       18.523        0.092      331.326       -0.730      865.684
01/07/2014  02:09:00      -62.055      -40.336       -2.676       30.797       16.143       11.672      948.471      260.581      136.242        0.341        0.067       74.012        8.973        0.015      331.326       -0.731      865.692
01/07/2014  02:10:00      -69.133      -30.396       -8.201       15.539       14.849        9.276      241.474      220.488       86.041        0.316        0.027       75.521        7.072        0.009      331.275       -0.814      865.691
01/07/2014  02:11:00      -89.361      -32.274      -10.175       11.429       10.824       10.084      130.620      117.151      101.690        0.474        0.017       95.010        6.184        0.004      331.292       -0.786      865.665
01/07/2014  02:12:00      -94.435      -30.033       -6.137       13.148       11.986       11.147      172.870      143.671      124.249        0.515        0.022       99.095        7.703        0.006      331.317       -0.745      865.638
01/07/2014  02:13:00      -70.874      -21.825       -5.874       17.537       11.905        9.877      307.555      141.724       97.552        0.304        0.027       74.158        5.979        0.007      331.355       -0.684      865.615
01/07/2014  02:14:00      -59.154      -11.415       -7.903        8.855       10.670        6.807       78.404      113.845       46.340        0.197        0.012       60.245        4.347        0.005      331.324       -0.734      865.587
01/07/2014  02:15:00      -87.740      -11.930      -11.408       15.304       11.198        9.960      234.218      125.393       99.197        0.421        0.023       88.547        6.515        0.005      331.334       -0.717      865.559
01/07/2014  02:16:00     -148.202      -16.156      -19.050       17.908       12.567       10.172      320.707      157.919      103.464        1.158        0.029      149.080        9.614        0.004      331.268       -0.825      865.534
01/07/2014  02:17:00     -115.390       -5.433      -13.876       32.842       18.561       24.780     1078.587      344.498      614.055        0.779        0.102      115.518       24.921        0.047      331.144       -1.030      865.529
01/07/2014  02:18:00     -123.068      -11.269      -11.603       34.556       25.446       19.155     1194.118      647.474      366.906        0.881        0.110      123.582       16.765        0.018      331.043       -1.198      865.534
01/07/2014  02:19:00      -78.699      -50.892       -1.964       46.413       27.694       21.975     2154.186      766.950      482.910        0.610        0.170       93.720       17.652        0.035      331.036       -1.207      865.546
01/07/2014  02:20:00     -101.700      -38.481       -3.954       33.427       41.727       19.422     1117.382     1741.128      377.229        0.754        0.162      108.737       16.428        0.023      331.120       -1.070      865.553
01/07/2014  02:21:00     -105.014       34.560      -13.967       44.248       27.239       18.736     1957.913      741.978      351.022        0.773        0.153      110.555       13.371        0.015      331.047       -1.191      865.532
01/07/2014  02:22:00     -107.525       42.120       -6.957       49.834       32.336       26.808     2483.412     1045.629      718.656        0.882        0.212      115.480       20.519        0.032      331.191       -0.954      865.506
01/07/2014  02:23:00     -103.833       -4.415       -3.968       41.865       55.883       21.355     1752.676     3122.942      456.040        0.807        0.267      103.926       22.854        0.048      331.233       -0.883      865.498
01/07/2014  02:24:00      -82.034      -47.652        0.397       47.698       39.456       24.181     2275.146     1556.786      584.724        0.671        0.221       94.870       22.208        0.055      331.160       -1.004      865.512
01/07/2014  02:25:00      -81.562      -57.428        1.582       30.749       26.994       22.997      945.506      728.652      528.846        0.608        0.110       99.752       20.733        0.043      331.097       -1.108      865.540
01/07/2014  02:26:00      -74.933      -12.000        1.265       33.784       32.996       16.352     1141.364     1088.705      267.403        0.413        0.125       75.888       15.003        0.039      330.976       -1.306      865.550
01/07/2014  02:27:00      -51.288       -9.063        2.993       52.300       28.871       22.049     2735.335      833.557      486.137        0.339        0.203       52.082       19.669        0.143      331.016       -1.242      865.576
01/07/2014  02:28:00     -140.461      -29.220       -3.598       38.725       36.479       22.787     1499.657     1330.696      519.232        1.197        0.167      143.468       17.577        0.015      330.982       -1.297      865.622
01/07/2014  02:29:00     -158.465      -26.192       -8.816       39.281       24.537       20.257     1542.989      602.057      410.361        1.421        0.128      160.615       21.396        0.018      330.980       -1.300      865.650
01/07/2014  02:30:00      -95.509       -5.850       -3.991       27.693       25.336       17.875      766.911      641.893      319.507        0.545        0.086       95.688       16.929        0.031      331.022       -1.233      865.634
01/07/2014  02:31:00      -77.390       -5.466       -3.314       27.188       24.081       15.782      739.164      579.883      249.068        0.380        0.078       77.583       13.401        0.030      330.987       -1.288      865.595
01/07/2014  02:32:00      -71.339       -5.028       -1.493       40.169       24.795       15.903     1613.571      614.801      252.918        0.380        0.124       71.516       17.754        0.062      330.990       -1.282      865.569
01/07/2014  02:33:00     -109.186       -8.925       -6.379       33.179       18.919       19.490     1100.845      357.942      379.878        0.694        0.092      109.550       19.654        0.032      330.919       -1.400      865.575
01/07/2014  02:34:00      -78.732      -22.916      -16.937       17.913       30.365       16.052      320.886      922.035      257.655        0.426        0.075       81.999       15.076        0.034      330.940       -1.365      865.606
01/07/2014  02:35:00      -82.300      -33.149      -14.482       14.414       12.009       13.262      207.749      144.214      175.884        0.430        0.026       88.725        8.201        0.009      330.971       -1.314      865.622
01/07/2014  02:36:00     -104.588      -28.708      -11.397       32.211       24.618       18.619     1037.578      606.064      346.659        0.694        0.100      108.456       17.002        0.025      331.012       -1.249      865.620
01/07/2014  02:37:00     -137.084      -41.557      -11.416       21.202       20.162       15.954      449.528      406.520      254.543        1.088        0.056      143.245       14.308        0.010      330.937       -1.370      865.611
01/07/2014  02:38:00     -129.357      -52.019       -5.753       25.819       20.883       18.146      666.618      436.086      329.291        1.045        0.072      139.424       13.660        0.010      330.935       -1.374      865.632
01/07/2014  02:39:00     -108.223      -48.653       -3.925       18.552       29.463       14.093      344.163      868.090      198.608        0.775        0.071      118.656        8.928        0.006      331.012       -1.247      865.658
01/07/2014  02:40:00     -104.922      -25.164       -3.621       15.233       18.528        9.990      232.034      343.278       99.807        0.616        0.034      107.897        6.498        0.004      331.071       -1.151      865.639
01/07/2014  02:41:00      -93.718      -13.036       -8.984       23.316       21.376       11.724      543.639      456.954      137.448        0.509        0.057       94.621        8.920        0.009      331.043       -1.197      865.606
01/07/2014  02:42:00      -76.813      -30.418       -8.744       19.711       20.307       16.319      388.514      412.364      266.308        0.398        0.053       82.617       13.569        0.027      330.980       -1.300      865.597
01/07/2014  02:43:00      -79.631      -25.929        0.649       31.944       26.355       16.845     1020.413      694.565      283.743        0.451        0.100       83.746       13.697        0.027      330.881       -1.461      865.639
01/07/2014  02:44:00     -121.301      -24.105      -15.236       22.781       22.529       17.937      518.954      507.577      321.730        0.844        0.067      123.673       13.337        0.012      330.834       -1.538      865.669
01/07/2014  02:45:00     -134.831        1.370      -18.431       17.151       13.168       12.970      294.146      173.402      168.228        0.958        0.032      134.838        9.055        0.005      330.846       -1.520      865.677
01/07/2014  02:46:00     -103.291        1.225      -15.821       37.086       14.237       12.636     1375.370      202.694      159.664        0.633        0.087      103.298       13.309        0.017      330.977       -1.304      865.683
01/07/2014  02:47:00      -93.006      -20.958       -8.557       20.373       20.638       13.468      415.052      425.926      181.379        0.509        0.051       95.338       11.956        0.016      331.024       -1.228      865.710
01/07/2014  02:48:00      -92.275      -21.191      -10.580       20.994       22.816       15.018      440.751      520.570      225.551        0.513        0.059       94.677       12.679        0.018      330.958       -1.336      865.731
01/07/2014  02:49:00      -73.986        5.394      -10.164       34.991       27.261       17.867     1224.382      743.138      319.222        0.395        0.114       74.182       10.681        0.021      330.855       -1.505      865.732
01/07/2014  02:50:00      -58.621       26.482      -15.634       17.543       23.722       14.155      307.762      562.747      200.370        0.273        0.054       64.325        9.265        0.021      331.094       -1.112      865.713
01/07/2014  02:51:00      -37.912      -17.505       -5.961       20.833       10.853       10.341      434.005      117.781      106.936        0.122        0.033       41.758        7.937        0.036      331.015       -1.244      865.709
01/07/2014  02:52:00      -58.658      -18.979      -17.560       23.991       14.888       15.693      575.568      221.651      246.261        0.258        0.052       61.652        2.608        0.002      330.858       -1.499      865.709
01/07/2014  02:53:00      -46.878      -18.187       -5.291       29.695       16.335       13.267      881.806      266.836      176.003        0.194        0.066       50.283        6.966        0.019      330.849       -1.515      865.706
01/07/2014  02:54:00      -22.708       -8.671       -4.498       10.990        8.844        7.022      120.778       78.219       49.305        0.043        0.012       24.307        3.622        0.022      330.913       -1.409      865.699
01/07/2014  02:55:00      -19.486      -33.023       -8.836       10.269       16.222        6.944      105.458      263.150       48.214        0.098        0.021       38.344        4.574        0.014      331.162       -1.000      865.700
01/07/2014  02:56:00      -26.939      -28.270       11.521       20.061       12.564       16.720      402.454      157.867      279.573        0.125        0.042       39.050       12.973        0.110      331.022       -1.232      865.693
01/07/2014  02:57:00      -62.577       -2.526       -4.010        9.698       18.566        7.946       94.052      344.698       63.141        0.222        0.025       62.628        6.945        0.012      330.818       -1.568      865.666
01/07/2014  02:58:00      -11.847       25.090        0.101       22.326       11.704        6.332      498.439      136.982       40.090        0.072        0.034       27.746        4.671        0.028      331.064       -1.161      865.620
01/07/2014  02:59:00       30.361       21.244       -0.612        9.076       13.431        6.407       82.377      180.402       41.051        0.084        0.015       37.056        8.078        0.048      331.365       -0.667      865.615
01/07/2014  03:00:00       -0.083        3.286       -0.457        9.575       14.382        7.115       91.685      206.842       50.620        0.018        0.017        3.287        6.434        3.832      331.385       -0.634      865.647
01/07/2014  03:01:00      -45.397      -26.527       -7.641       24.103       11.707       12.220      580.949      137.043      149.325        0.184        0.043       52.579        4.428        0.007      330.871       -1.481      865.682
01/07/2014  03:02:00      -34.784      -15.968       -1.926       21.851        9.170        5.896      477.448       84.090       34.763        0.103        0.030       38.274        2.897        0.006      330.799       -1.598      865.681
01/07/2014  03:03:00       52.421       16.552       16.780       25.944       15.283       12.856      673.092      233.583      165.270        0.219        0.054       54.972       12.032        0.048      331.062       -1.164      865.643
01/07/2014  03:04:00       65.454       35.758        6.345       27.424       15.614       10.305      752.072      243.811      106.185        0.335        0.055       74.585        5.731        0.006      331.255       -0.847      865.613
01/07/2014  03:05:00       35.374       34.576       -0.062       28.761       18.902       21.167      827.181      357.285      448.057        0.204        0.082       49.465       16.087        0.106      331.360       -0.675      865.617
01/07/2014  03:06:00       27.177       41.189       -7.648       18.326       19.108       12.301      335.853      365.127      151.320        0.167        0.043       49.347        8.355        0.029      331.415       -0.585      865.626
01/07/2014  03:07:00       52.483       34.150       -0.300       13.395       15.694       14.123      179.418      246.291      199.470        0.227        0.031       62.615        7.669        0.015      331.458       -0.516      865.632
01/07/2014  03:08:00       13.098       13.001        2.699       19.096       14.047       10.628      364.640      197.322      112.959        0.051        0.034       18.455        9.562        0.268      331.401       -0.607      865.630
01/07/2014  03:09:00       -4.613        4.262        3.689        5.775        6.136        5.673       33.351       37.653       32.187        0.008        0.005        6.280        4.112        0.429      331.368       -0.660      865.632
01/07/2014  03:10:00       -1.509       31.286       -4.622       10.049       20.530        9.117      100.986      421.486       83.127        0.080        0.030       31.323       10.207        0.106      331.524       -0.404      865.627
01/07/2014  03:11:00      -22.766       33.394       -7.314       17.725       24.284        8.692      314.162      589.735       75.544        0.133        0.049       40.416        6.302        0.024      331.534       -0.389      865.634
01/07/2014  03:12:00      -36.271      -29.793       -6.351       21.338       12.878       12.823      455.294      165.854      164.430        0.151        0.039       46.938       14.379        0.094      331.235       -0.880      865.634
01/07/2014  03:13:00     -105.983      -20.854      -15.388       20.904       12.977       10.423      436.995      168.410      108.644        0.631        0.036      108.015        9.790        0.008      330.756       -1.669      865.626
01/07/2014  03:14:00     -104.904       -7.335      -15.352       20.455       17.414       12.720      418.411      303.260      161.807        0.609        0.044      105.160       11.511        0.012      330.736       -1.700      865.585
01/07/2014  03:15:00      -88.173       -4.324      -18.632       19.876       14.045       10.510      395.039      197.274      110.460        0.442        0.035       88.279        7.797        0.008      330.881       -1.462      865.548
01/07/2014  03:16:00      -66.029      -19.968       -8.779       16.601       18.158       12.127      275.582      329.722      147.061        0.279        0.038       68.982       12.686        0.034      330.808       -1.582      865.513
01/07/2014  03:17:00     -111.770      -27.251      -11.733       22.203       15.188        9.882      492.959      230.664       97.654        0.710        0.041      115.044        9.072        0.006      330.753       -1.673      865.486
01/07/2014  03:18:00     -130.354      -36.743      -12.196       18.736       13.252       11.766      351.034      175.613      138.442        0.958        0.033      135.433       10.980        0.007      330.835       -1.539      865.498
01/07/2014  03:19:00     -126.275       -7.722      -13.093       13.964       26.027       11.050      195.002      677.421      122.110        0.859        0.050      126.511        8.138        0.004      330.800       -1.595      865.495
01/07/2014  03:20:00     -135.259       10.023      -18.798       16.062       12.284        7.948      257.995      150.888       63.166        0.961        0.024      135.629        3.169        0.001      330.760       -1.660      865.484
01/07/2014  03:21:00     -148.693      -20.302      -16.005       32.191       20.874       20.209     1036.247      435.744      408.390        1.233        0.094      150.073       20.445        0.019      330.801       -1.594      865.498
01/07/2014  03:22:00     -138.000      -46.423       -8.419       30.325       19.435       20.044      919.597      377.718      401.769        1.148        0.085      145.599       18.015        0.015      330.681       -1.791      865.513
01/07/2014  03:23:00     -122.021      -40.454       -4.278       26.205       21.182       15.515      686.692      448.681      240.723        0.896        0.069      128.553       13.198        0.011      330.776       -1.636      865.507
01/07/2014  03:24:00      -94.520      -26.655       -9.670       24.206       17.407       13.378      585.914      303.019      178.960        0.540        0.053       98.207       11.236        0.013      330.693       -1.771      865.474
01/07/2014  03:25:00      -74.355      -31.437       -8.067       13.814       15.016        9.654      190.828      225.491       93.202        0.355        0.025       80.728        7.390        0.008      330.723       -1.722      865.443
01/07/2014  03:26:00      -88.621      -51.323      -11.968       12.807       12.755       10.857      164.026      162.680      117.873        0.554        0.022      102.410        9.555        0.009      330.749       -1.679      865.447
01/07/2014  03:27:00      -96.983      -57.296      -14.903       14.074       17.258       11.034      198.069      297.823      121.758        0.676        0.031      112.643        6.495        0.003      330.721       -1.725      865.473
01/07/2014  03:28:00     -106.780      -45.489       -2.985       19.111       15.695        9.767      365.231      246.345       95.386        0.709        0.035      116.066        9.830        0.007      330.868       -1.483      865.501
01/07/2014  03:29:00     -104.039      -48.509       -3.589       26.817       21.210       13.453      719.177      449.879      180.993        0.727        0.068      114.792       14.036        0.015      330.825       -1.554      865.508
01/07/2014  03:30:00     -106.670       -4.767      -13.235       31.986       16.256       14.924     1023.112      264.260      222.730        0.654        0.076      106.777       14.227        0.018      330.785       -1.620      865.506
01/07/2014  03:31:00      -85.781      -17.464      -10.805       20.944       17.301       11.165      438.670      299.310      124.653        0.432        0.043       87.541        8.512        0.009      330.778       -1.633      865.487
01/07/2014  03:32:00      -38.964      -35.777       -5.337       20.626        9.086        7.352      425.433       82.555       54.058        0.169        0.028       52.898        2.993        0.003      330.876       -1.471      865.485
01/07/2014  03:33:00      -44.515      -29.891       -1.335       19.660       11.494        9.604      386.508      132.109       92.230        0.174        0.031       53.620       10.732        0.040      331.005       -1.259      865.495
01/07/2014  03:34:00      -66.870      -19.673       -7.040        9.561        8.189        9.073       91.420       67.065       82.315        0.257        0.012       69.704        6.247        0.008      331.019       -1.237      865.499
01/07/2014  03:35:00      -73.205      -25.235       -7.769        9.583       11.011        8.721       91.837      121.239       76.048        0.317        0.014       77.432        5.665        0.005      330.955       -1.341      865.486
01/07/2014  03:36:00      -68.122      -47.082       -2.238       18.013       13.275       12.525      324.456      176.221      156.882        0.376        0.033       82.809       11.684        0.020      330.979       -1.303      865.478
01/07/2014  03:37:00      -77.374      -47.350       -1.817       23.123       15.271       15.912      534.672      233.211      253.193        0.463        0.051       90.713       13.764        0.023      330.993       -1.280      865.476
01/07/2014  03:38:00      -79.725      -14.712       -4.057       17.042       11.230        8.340      290.429      126.124       69.555        0.354        0.024       81.071        5.450        0.005      330.958       -1.337      865.472
01/07/2014  03:39:00      -53.702        4.337       -5.684       19.214       14.039        9.679      369.177      197.094       93.686        0.180        0.033       53.877       10.264        0.036      330.937       -1.370      865.441
01/07/2014  03:40:00      -76.272        9.772      -11.333       11.614       10.904        5.322      134.893      118.903       28.321        0.316        0.014       76.895        4.338        0.003      330.974       -1.309      865.407
01/07/2014  03:41:00      -92.482      -57.260       -9.008       16.609       22.857        9.250      275.846      522.422       85.558        0.640        0.044      108.773        7.339        0.005      330.971       -1.316      865.409
01/07/2014  03:42:00     -121.371      -47.184       -1.571       30.206       17.587       17.328      912.390      309.286      300.248        0.924        0.076      130.220       17.270        0.018      330.924       -1.391      865.425
01/07/2014  03:43:00     -105.086        3.443       -9.475       15.440       32.742       10.318      238.378     1072.007      106.451        0.628        0.071      105.143        8.210        0.006      330.920       -1.398      865.398
01/07/2014  03:44:00     -103.567        9.919      -13.709       12.447       14.436        9.838      154.925      208.392       96.794        0.574        0.023      104.041        5.490        0.003      330.804       -1.587      865.381
01/07/2014  03:45:00      -78.864      -32.690       -3.614       21.335       25.591       17.922      455.182      654.919      321.205        0.437        0.072       85.371       10.078        0.014      330.732       -1.707      865.389
01/07/2014  03:46:00      -51.000      -25.169       -8.673       34.651       21.870       21.315     1200.719      478.283      454.346        0.272        0.107       56.872        2.934        0.003      330.608       -1.910      865.393
01/07/2014  03:47:00      -18.161        2.567       -6.427       12.422       10.782        6.663      154.308      116.244       44.401        0.035        0.016       18.342        6.143        0.112      330.844       -1.523      865.373
01/07/2014  03:48:00      -74.598      -21.027      -10.076       24.486       22.088       10.021      599.562      487.881      100.425        0.365        0.059       77.505        8.720        0.013      331.042       -1.199      865.391
01/07/2014  03:49:00     -122.611      -72.095      -20.585       24.233       24.661       17.106      587.243      608.163      292.616        1.107        0.074      142.237       15.058        0.011      330.656       -1.832      865.439
01/07/2014  03:50:00     -123.080      -50.492       -7.070       30.343       33.863       15.868      920.681     1146.679      251.797        1.003        0.116      133.034       11.969        0.008      330.563       -1.984      865.450
01/07/2014  03:51:00      -89.806      -28.304       -9.355       20.021       19.187       12.530      400.845      368.134      157.007        0.494        0.046       94.161        9.235        0.010      330.564       -1.982      865.430
01/07/2014  03:52:00      -94.759      -40.698      -16.103       23.716       24.926       16.136      562.471      621.282      260.358        0.617        0.072      103.129       16.245        0.025      330.583       -1.951      865.410
01/07/2014  03:53:00     -120.585      -45.074      -10.536       14.143       17.432       10.875      200.038      303.888      118.276        0.865        0.031      128.733        6.433        0.002      330.644       -1.850      865.405
01/07/2014  03:54:00      -90.479      -33.801      -12.621       21.619       12.479        7.933      467.372      155.719       62.927        0.509        0.034       96.586        6.692        0.005      330.714       -1.735      865.381
01/07/2014  03:55:00      -71.515      -13.297       -4.178       14.902       12.240       10.286      222.074      149.825      105.796        0.289        0.024       72.741        8.316        0.013      330.750       -1.678      865.351
01/07/2014  03:56:00      -95.057       -6.825       -8.303       21.715       16.794       13.338      471.534      282.042      177.894        0.504        0.047       95.302       12.080        0.016      330.666       -1.815      865.353
01/07/2014  03:57:00      -98.932      -20.051       -9.874       33.940       18.377       17.329     1151.904      337.708      300.297        0.604        0.089      100.943       17.478        0.030      330.583       -1.950      865.366
01/07/2014  03:58:00     -113.544      -19.296      -11.266       18.397       13.519       14.223      338.463      182.773      202.294        0.706        0.036      115.172       10.466        0.008      330.529       -2.039      865.358
01/07/2014  03:59:00     -105.476      -40.312       -3.774       22.071       20.122       16.030      487.120      404.893      256.960        0.696        0.057      112.917       11.548        0.010      330.576       -1.964      865.359
01/07/2014  04:00:00     -110.230      -47.862       -1.316       33.727       20.476       16.861     1137.514      419.257      284.286        0.814        0.092      120.173       15.448        0.017      330.570       -1.973      865.373
01/07/2014  04:01:00     -115.981      -33.926      -13.081       18.439       21.732       12.718      340.006      472.298      161.736        0.787        0.049      120.841        9.091        0.006      330.542       -2.019      865.359
01/07/2014  04:02:00      -98.950        7.476      -10.996       13.717       12.010       12.354      188.159      144.239      152.625        0.523        0.024       99.232        7.966        0.006      330.554       -1.999      865.313
01/07/2014  04:03:00     -115.022      -20.701      -12.580       21.736       25.001       12.351      472.435      625.052      152.541        0.753        0.063      116.870        6.603        0.003      330.559       -1.993      865.295
01/07/2014  04:04:00     -105.946      -56.231       -8.515       33.834       23.313       15.583     1144.738      543.486      242.844        0.819        0.097      119.943       11.713        0.010      330.574       -1.964      865.313
01/07/2014  04:05:00     -112.953      -13.100       -6.632       39.881       42.490       19.083     1590.502     1805.430      364.161        0.837        0.188      113.710       15.124        0.018      330.573       -1.968      865.334
01/07/2014  04:06:00     -126.420        5.557      -10.577       24.858       23.199       15.866      617.900      538.203      251.723        0.877        0.070      126.542        6.082        0.002      330.596       -1.929      865.342
01/07/2014  04:07:00     -169.670       32.106      -15.648       25.509       22.925       15.141      650.692      525.567      229.247        1.573        0.070      172.681        4.677        0.001      330.605       -1.915      865.346
01/07/2014  04:08:00     -126.163      -14.776       -4.124       36.235       41.979       19.153     1312.950     1762.250      366.823        0.980        0.172      127.025       19.693        0.024      330.605       -1.915      865.348
01/07/2014  04:09:00      -94.246      -72.905       -0.546       48.288       36.855       30.569     2331.735     1358.325      934.445        0.941        0.231      119.153       25.286        0.045      330.594       -1.933      865.358
01/07/2014  04:10:00      -92.015      -35.928       -2.737       31.160       26.655       17.822      970.921      710.480      317.606        0.588        0.100       98.780       16.257        0.027      330.552       -2.001      865.337
01/07/2014  04:11:00     -101.214      -28.008      -13.704       28.197       34.154       15.494      795.094     1166.501      240.072        0.671        0.110      105.018       10.281        0.010      330.502       -2.084      865.317
01/07/2014  04:12:00      -63.727      -16.166       -5.648       64.411       34.505       25.949     4148.805     1190.570      673.358        0.518        0.301       65.746       31.512        0.230      330.499       -2.089      865.339
01/07/2014  04:13:00     -119.665      -23.477      -18.808       36.246       33.872       25.487     1313.795     1147.323      649.564        0.917        0.156      121.947       20.490        0.028      330.470       -2.137      865.357
01/07/2014  04:14:00      -28.386      -18.266       -7.069       57.588       30.464       27.643     3316.354      928.048      764.117        0.310        0.250       33.755       15.908        0.222      330.440       -2.186      865.347
01/07/2014  04:15:00      -13.289      -23.901       -0.982       19.799       17.671       14.667      392.020      312.282      215.128        0.083        0.046       27.347       12.228        0.200      330.481       -2.119      865.330
01/07/2014  04:16:00      -36.996      -22.656       -0.631       22.465       11.359       11.815      504.679      129.024      139.600        0.133        0.039       43.381       10.603        0.060      330.485       -2.112      865.316
01/07/2014  04:17:00      -50.220      -48.032       -8.052       21.420       20.386       16.062      458.797      415.596      257.998        0.301        0.057       69.492       10.558        0.023      330.453       -2.163      865.308
01/07/2014  04:18:00      -74.699      -52.577      -16.573       25.159       16.847       12.726      632.962      283.836      161.947        0.485        0.054       91.347       12.290        0.018      330.423       -2.214      865.309
01/07/2014  04:19:00     -121.302      -37.166      -18.161       14.314       13.967       11.227      204.877      195.066      126.037        0.848        0.026      126.868        7.776        0.004      330.536       -2.027      865.306
01/07/2014  04:20:00     -113.198      -44.723      -15.467       10.953       13.585       10.076      119.969      184.564      101.517        0.773        0.020      121.712        5.009        0.002      330.576       -1.962      865.299
01/07/2014  04:21:00     -124.633      -56.055      -16.215       15.977       16.964       11.176      255.276      287.775      124.898        0.980        0.033      136.659        6.622        0.002      330.553       -2.001      865.286
01/07/2014  04:22:00     -143.806      -45.776      -16.092       21.281       23.054       11.368      452.877      531.494      129.241        1.207        0.056      150.916        6.127        0.002      330.562       -1.986      865.272
01/07/2014  04:23:00     -123.207      -27.007      -14.350       13.712       18.051       12.868      188.013      325.838      165.594        0.840        0.034      126.132        7.588        0.004      330.594       -1.932      865.246
01/07/2014  04:24:00     -137.928       -6.065      -20.227       22.342       13.101       14.249      499.178      171.626      203.044        1.017        0.044      138.062       13.017        0.009      330.484       -2.113      865.225
01/07/2014  04:25:00     -100.513      -13.456      -10.104       34.257       23.259       17.382     1173.527      540.997      302.130        0.620        0.101      101.410       15.546        0.023      330.494       -2.098      865.210
01/07/2014  04:26:00      -38.399      -27.348        2.947       40.643       28.191       13.036     1651.843      794.735      169.934        0.242        0.131       47.142       10.881        0.053      330.634       -1.868      865.218
01/07/2014  04:27:00      -18.592      -59.240       -3.838       24.182       19.279       18.514      584.783      371.680      342.759        0.258        0.065       62.089       15.892        0.066      330.665       -1.817      865.224
01/07/2014  04:28:00      -46.937       -3.730       -0.892       37.311       17.157       15.441     1392.099      294.366      238.417        0.207        0.096       47.085       20.144        0.183      330.668       -1.812      865.199
01/07/2014  04:29:00      -84.378        4.100      -11.680       17.326       18.401       12.904      300.205      338.605      166.503        0.404        0.040       84.477        8.199        0.009      330.627       -1.880      865.163
01/07/2014  04:30:00      -12.467      -27.253        0.683       27.059       18.706       17.137      732.200      349.918      293.664        0.114        0.069       29.969        9.665        0.104      330.712       -1.740      865.160
01/07/2014  04:31:00      -67.656      -39.182       -1.399       25.066       17.810       14.919      628.325      317.192      222.566        0.364        0.058       78.182       10.958        0.020      330.646       -1.848      865.195
01/07/2014  04:32:00     -110.318      -30.373       -0.061       15.675       17.530       12.160      245.703      307.298      147.859        0.690        0.035      114.423        7.955        0.005      330.646       -1.847      865.221
01/07/2014  04:33:00      -87.016      -20.906      -11.162       12.648       16.091        7.156      159.983      258.924       51.214        0.430        0.024       89.492        6.188        0.005      330.681       -1.788      865.219
01/07/2014  04:34:00      -77.909      -16.682      -10.810       12.180       15.132        7.326      148.348      228.989       53.676        0.345        0.022       79.675        5.785        0.005      330.715       -1.735      865.207
01/07/2014  04:35:00      -54.314      -25.780       -3.568       10.970       11.317        7.463      120.338      128.069       55.690        0.197        0.015       60.122        2.364        0.002      330.716       -1.733      865.192
01/07/2014  04:36:00      -32.725      -28.141       -0.064       11.589       13.400       12.902      134.310      179.555      166.466        0.117        0.024       43.161        7.810        0.033      330.708       -1.746      865.184
01/07/2014  04:37:00      -50.553      -21.451       -7.025        6.690        6.051        5.257       44.756       36.614       27.640        0.159        0.005       54.915        2.137        0.002      330.694       -1.766      865.182
01/07/2014  04:38:00      -72.344       -1.772      -10.218       14.155        9.407       10.447      200.355       88.501      109.130        0.287        0.020       72.365        7.367        0.010      330.765       -1.653      865.189
01/07/2014  04:39:00      -78.896       -4.851      -12.972       11.840        9.313       10.230      140.174       86.730      104.654        0.337        0.017       79.045        7.893        0.010      330.661       -1.822      865.187
01/07/2014  04:40:00      -79.048      -24.349      -14.095       11.928        9.221        7.145      142.278       85.021       51.054        0.366        0.014       82.713        5.224        0.004      330.616       -1.898      865.170
01/07/2014  04:41:00      -38.566      -26.198       -7.463       16.608       15.260        7.478      275.842      232.866       55.917        0.140        0.028       46.623        5.144        0.012      330.587       -1.944      865.163
01/07/2014  04:42:00       -3.203      -10.699       -4.634       14.498       13.150        7.077      210.187      172.911       50.083        0.029        0.022       11.168        7.685        0.473      330.677       -1.797      865.155
01/07/2014  04:43:00       42.611       28.733        8.830       28.169       17.641       13.781      793.520      311.202      189.924        0.201        0.065       51.393       13.689        0.071      330.656       -1.831      865.129
01/07/2014  04:44:00       28.603       40.355       -3.319       20.616       13.911       15.415      425.024      193.507      237.629        0.166        0.043       49.464       10.882        0.048      330.601       -1.920      865.098
01/07/2014  04:45:00        6.770       31.403       -5.453       13.593       15.363       11.511      184.773      236.015      132.506        0.081        0.028       32.125       12.258        0.146      330.596       -1.930      865.098
01/07/2014  04:46:00        3.791       52.236      -12.031        5.083        9.132        4.574       25.834       83.385       20.924        0.151        0.007       52.374        2.011        0.001      330.729       -1.711      865.105
01/07/2014  04:47:00        0.441       65.732       -0.289       11.950       17.328        9.263      142.805      300.259       85.798        0.242        0.026       65.734       10.177        0.024      330.765       -1.653      865.110
01/07/2014  04:48:00      -20.748       95.670       -9.853       22.804       30.493       15.461      520.035      929.811      239.050        0.568        0.084       97.894       17.983        0.034      330.644       -1.852      865.106
01/07/2014  04:49:00      -12.642      146.464      -14.389       17.077       24.886       13.322      291.607      619.291      177.476        1.145        0.054      147.009        4.790        0.001      330.561       -1.987      865.095
01/07/2014  04:50:00        8.862      148.195      -20.692       25.476       23.563       15.313      649.039      555.226      234.485        1.195        0.072      148.460       15.321        0.011      330.739       -1.696      865.093
01/07/2014  04:51:00       22.423      148.172      -32.381       25.077       18.978       10.911      628.840      360.176      119.042        1.231        0.055      149.859       11.701        0.006      330.739       -1.696      865.101
01/07/2014  04:52:00      -58.098       15.620       -4.107       30.471       64.066       22.417      928.453     4104.478      502.529        0.458        0.277       60.161        8.164        0.018      330.458       -2.156      865.132
01/07/2014  04:53:00      -86.445      -19.006      -10.967       17.260       13.532       10.753      297.917      183.122      115.635        0.428        0.030       88.510        7.442        0.007      330.250       -2.497      865.148
01/07/2014  04:54:00      -60.583      -16.853      -12.281       10.568        9.006        8.658      111.678       81.116       74.959        0.219        0.013       62.884        3.280        0.003      330.336       -2.357      865.144
01/07/2014  04:55:00      -55.339      -20.169       -5.503       14.695       10.198        8.009      215.943      104.005       64.150        0.194        0.019       58.900        5.191        0.008      330.336       -2.355      865.160
01/07/2014  04:56:00      -56.156       -4.679       -5.828       15.309        7.143        5.435      234.357       51.028       29.536        0.176        0.016       56.351        5.886        0.011      330.314       -2.391      865.191
01/07/2014  04:57:00      -12.336      -21.725       -0.843       10.370       16.930        5.468      107.531      286.610       29.899        0.052        0.021       24.983        4.839        0.038      330.555       -1.995      865.210
01/07/2014  04:58:00      -61.110      -25.957       -9.472       33.823       18.886        8.168     1143.988      356.699       66.712        0.303        0.078       66.395       10.159        0.023      330.574       -1.967      865.242
01/07/2014  04:59:00      -89.944      -16.184       -8.272       17.587       16.449        9.635      309.309      270.581       92.828        0.455        0.034       91.389        6.302        0.005      330.432       -2.200      865.268
01/07/2014  05:00:00      -32.563        4.160       -6.523       19.079       10.980        7.875      363.996      120.567       62.021        0.083        0.027       32.828        2.423        0.005      330.479       -2.123      865.259
01/07/2014  05:01:00       48.054       23.830        8.356       28.219       20.778       11.299      796.320      431.738      127.663        0.215        0.068       53.638       14.914        0.077      330.910       -1.414      865.242
01/07/2014  05:02:00       76.548       66.099       16.427       18.334       15.180       17.047      336.122      230.419      290.594        0.568        0.043      101.137        9.119        0.008      330.925       -1.390      865.244
01/07/2014  05:03:00       51.324       39.737        1.571       32.630       21.725       21.942     1064.719      471.981      481.447        0.312        0.101       64.909       13.132        0.041      330.818       -1.565      865.257
01/07/2014  05:04:00       18.943       58.207       -6.323       21.495       17.239       13.402      462.051      297.188      179.615        0.236        0.047       61.212       10.290        0.028      330.713       -1.738      865.274
01/07/2014  05:05:00       22.708       36.044        2.114       22.635       24.087       19.317      512.331      580.171      373.145        0.164        0.073       42.600       14.921        0.123      330.746       -1.686      865.270
01/07/2014  05:06:00       12.304       25.954        0.099       17.372       17.629       13.217      301.791      310.769      174.693        0.081        0.039       28.723       11.935        0.173      330.804       -1.589      865.263
01/07/2014  05:07:00       16.597       36.446        0.290        9.128       12.455       11.161       83.315      155.136      124.562        0.098        0.018       40.047        9.138        0.052      330.792       -1.608      865.262
01/07/2014  05:08:00       17.396       29.912       -0.456       10.397        8.641        8.962      108.092       74.672       80.316        0.073        0.013       34.603        5.171        0.022      330.824       -1.556      865.264
01/07/2014  05:09:00        8.664      -22.506       16.987       15.223       24.280       16.235      231.732      589.528      263.571        0.098        0.054       24.116       12.631        0.274      330.847       -1.519      865.271
01/07/2014  05:10:00        1.206       33.737       49.251       16.627       20.640       12.525      276.442      426.014      156.883        0.221        0.043       33.758        8.912        0.070      330.722       -1.724      865.253
01/07/2014  05:11:00       -4.149       19.487       39.439        8.302       21.317       10.309       68.921      454.417      106.283        0.129        0.031       19.924       11.588        0.338      330.737       -1.700      865.265
01/07/2014  05:12:00       -6.789        4.956       22.892        7.213        9.989        8.640       52.031       99.775       74.658        0.041        0.011        8.405        6.749        0.645      330.779       -1.631      865.283
01/07/2014  05:13:00       -3.799      -18.272        4.801       12.366       12.831        9.543      152.912      164.635       91.068        0.039        0.020       18.663        7.643        0.168      330.750       -1.677      865.301
01/07/2014  05:14:00       48.734       29.472       26.064       28.662       15.391       13.832      821.490      236.895      191.316        0.259        0.062       56.953        4.945        0.008      330.804       -1.588      865.307
01/07/2014  05:15:00       91.825       50.867       17.883       26.919       18.354       18.254      724.631      336.876      333.201        0.637        0.070      104.973        6.296        0.004      330.772       -1.642      865.308
01/07/2014  05:16:00       13.183       30.233       34.927       16.738       23.854       13.388      280.166      569.018      179.234        0.167        0.051       32.982        9.352        0.080      330.770       -1.644      865.327
01/07/2014  05:17:00       15.972       23.433       16.392       16.486       16.326       16.498      271.800      266.534      272.192        0.094        0.041       28.359       11.054        0.152      330.726       -1.717      865.340
01/07/2014  05:18:00       68.095       45.479        6.774       14.918       15.703       11.393      222.536      246.596      129.798        0.367        0.030       81.886        4.578        0.003      330.634       -1.867      865.316
01/07/2014  05:19:00       83.551       52.875        6.281       14.252       13.122       11.096      203.129      172.191      123.112        0.516        0.025       98.876        6.977        0.005      330.609       -1.908      865.284
01/07/2014  05:20:00       51.837       36.689        5.136       33.242       12.580       14.866     1105.034      158.247      221.012        0.277        0.074       63.507       10.686        0.028      330.581       -1.954      865.270
01/07/2014  05:21:00        6.588        1.447       -2.772       10.667       12.756        8.136      113.780      162.716       66.193        0.020        0.017        6.745        5.561        0.680      330.539       -2.023      865.275
01/07/2014  05:22:00       -9.166      -11.146       -7.771       20.827       13.006        7.430      433.765      169.165       55.212        0.046        0.033       14.430        7.283        0.255      330.678       -1.796      865.274
01/07/2014  05:23:00      -42.426      -14.199       -4.608       33.521       13.376       12.472     1123.636      178.928      155.545        0.174        0.073       44.739       16.050        0.129      330.469       -2.137      865.286
01/07/2014  05:24:00        2.087        0.569        4.272       12.072       13.261       11.052      145.733      175.851      122.150        0.023        0.022        2.164       11.237       26.977      330.392       -2.266      865.275
01/07/2014  05:25:00      -25.047       -7.974       -6.010       31.742       12.491        7.849     1007.542      156.031       61.606        0.098        0.061       26.286       13.125        0.249      330.549       -2.007      865.266
01/07/2014  05:26:00     -126.467      -36.009      -13.271       32.311       19.796       11.882     1043.999      391.878      141.178        0.952        0.079      131.493        5.606        0.002      330.314       -2.393      865.318
01/07/2014  05:27:00      -40.298      -21.828       -0.630       37.874       21.437        8.290     1434.464      459.562       68.730        0.203        0.098       45.830        8.122        0.031      330.304       -2.410      865.360
01/07/2014  05:28:00       91.610       49.560       19.581       39.846       27.134       21.046     1587.690      736.261      442.922        0.700        0.138      104.156       13.131        0.016      330.503       -2.083      865.337
01/07/2014  05:29:00       65.051       47.787       24.850       56.105       34.714       21.173     3147.749     1205.081      448.295        0.597        0.240       80.717        9.920        0.015      330.763       -1.656      865.310
01/07/2014  05:30:00      -87.522       11.301       -0.025       40.104       25.991       20.853     1608.360      675.545      434.863        0.525        0.136       88.249       23.967        0.074      330.431       -2.200      865.342
01/07/2014  05:31:00     -104.979      -11.225      -14.768       38.549       24.326       16.125     1486.030      591.778      260.007        0.685        0.117      105.577       11.861        0.013      330.151       -2.660      865.359
01/07/2014  05:32:00        1.111       -1.925        0.637       20.656       10.476        9.122      426.667      109.737       83.206        0.031        0.031        2.222       10.496       22.308      330.215       -2.555      865.331
01/07/2014  05:33:00       33.868       23.848        4.331       13.681        8.362       14.429      187.179       69.925      208.195        0.110        0.023       41.421        7.604        0.034      330.414       -2.229      865.295
01/07/2014  05:34:00      -28.439       35.599       -9.345       29.134       19.013       11.194      848.783      361.477      125.316        0.175        0.067       45.564       10.179        0.050      330.487       -2.111      865.289
01/07/2014  05:35:00      -51.018       51.768      -10.216       15.143       25.192       11.622      229.318      634.622      135.073        0.319        0.050       72.683        9.122        0.016      330.570       -1.973      865.274
01/07/2014  05:36:00      -30.629       -8.090       -4.710       18.459       21.461       16.210      340.732      460.593      262.756        0.104        0.053       31.680       11.666        0.136      330.439       -2.187      865.244
01/07/2014  05:37:00     -158.484      -49.510      -10.805       45.676       49.046       21.356     2086.341     2405.525      456.068        1.632        0.247      166.037       17.031        0.011      330.236       -2.521      865.241
01/07/2014  05:38:00     -143.233      -34.600       -2.212       48.333       40.264       27.488     2336.063     1621.201      755.593        1.321        0.236      147.353       24.878        0.029      330.100       -2.743      865.257
01/07/2014  05:39:00      -64.950      -23.473       -6.888       45.455       24.327       14.609     2066.199      591.798      213.434        0.384        0.144       69.062       13.838        0.040      330.237       -2.519      865.245
01/07/2014  05:40:00        2.447       -1.248        7.716        9.293        8.438        8.592       86.366       71.198       73.828        0.015        0.012        2.747        5.261        3.668      330.349       -2.334      865.211
01/07/2014  05:41:00      -59.686        2.642       -9.110       31.931       15.962        9.356     1019.620      254.801       87.535        0.251        0.068       59.744        8.081        0.018      330.609       -1.909      865.185
01/07/2014  05:42:00     -115.706      -16.614       -9.467       25.241       22.842       15.240      637.090      521.758      232.264        0.757        0.070      116.892       13.433        0.013      330.286       -2.438      865.178
01/07/2014  05:43:00      -93.423       -7.670       -8.543       28.227       19.973       15.224      796.765      398.922      231.780        0.514        0.071       93.738       14.141        0.023      330.193       -2.591      865.190
01/07/2014  05:44:00     -119.761       -8.592      -10.622       16.286       10.896       10.523      265.220      118.725      110.729        0.751        0.025      120.069        6.559        0.003      330.332       -2.362      865.194
01/07/2014  05:45:00      -92.916       -7.064       -5.877       28.939       19.579       15.600      837.482      383.324      243.355        0.509        0.073       93.184       15.393        0.027      330.358       -2.321      865.183
01/07/2014  05:46:00      -26.813      -28.819        0.704       14.735       15.033        6.760      217.134      225.995       45.696        0.102        0.024       39.363        7.298        0.034      330.545       -2.012      865.162
01/07/2014  05:47:00      -19.272      -24.741        6.280       18.507       14.636       10.508      342.494      214.217      110.417        0.084        0.033       31.361        5.473        0.030      330.699       -1.761      865.168
01/07/2014  05:48:00      -60.677       -4.933       -5.253       19.064       16.593       10.169      363.452      275.336      103.410        0.224        0.037       60.877        9.481        0.024      330.379       -2.288      865.192
01/07/2014  05:49:00      -70.157        9.861      -10.654       12.188        8.341        7.276      148.556       69.572       52.936        0.270        0.014       70.847        1.907        0.001      330.483       -2.115      865.217
01/07/2014  05:50:00      -55.413       13.695       -7.196        8.889       12.648        6.971       79.015      159.961       48.596        0.180        0.014       57.081        4.271        0.006      330.613       -1.902      865.201
01/07/2014  05:51:00      -41.848       21.965       -3.554        9.840       18.866       10.626       96.824      355.911      112.922        0.141        0.028       47.263        5.163        0.012      330.820       -1.562      865.171
01/07/2014  05:52:00      -96.417      -25.709       -8.732       21.808       22.226        6.797      475.570      494.017       46.200        0.552        0.051       99.786        4.505        0.002      330.626       -1.882      865.186
01/07/2014  05:53:00     -123.685      -23.265       -7.138       53.687       33.482       26.218     2882.265     1121.051      687.364        1.029        0.235      125.854       26.622        0.045      330.178       -2.617      865.208
01/07/2014  05:54:00      -36.618      -32.568        3.779       37.979       30.721       18.656     1442.420      943.801      348.051        0.257        0.137       49.006       13.963        0.081      330.221       -2.544      865.201
01/07/2014  05:55:00       -7.522      -42.827       -5.454       17.728       14.496        9.912      314.291      210.140       98.247        0.127        0.031       43.483        8.832        0.041      330.574       -1.966      865.179
01/07/2014  05:56:00      -75.440      -47.053       -2.455       30.582       17.094       13.315      935.236      292.190      177.300        0.466        0.070       88.911        5.755        0.004      330.440       -2.185      865.181
01/07/2014  05:57:00      -85.349      -65.167        8.451       36.179       32.533       24.132     1308.918     1058.374      582.372        0.728        0.147      107.383       20.389        0.036      330.291       -2.430      865.180
01/07/2014  05:58:00      -57.715      -19.178        5.152       26.288       16.697       14.052      691.040      278.784      197.471        0.245        0.058       60.818       14.179        0.054      330.313       -2.394      865.160
01/07/2014  05:59:00      -44.046       -2.831       -1.916       12.330       12.510        9.196      152.024      156.489       84.573        0.117        0.020       44.137        7.434        0.028      330.438       -2.189      865.136
01/07/2014  06:00:00      -64.842      -30.643       -6.943       22.660       14.557       12.527      513.496      211.912      156.916        0.304        0.044       71.718        3.897        0.003      330.386       -2.277      865.123
01/07/2014  06:01:00      -78.023      -55.325       -3.540       26.351       26.203       16.004      694.400      686.572      256.143        0.540        0.082       95.648        9.348        0.010      330.374       -2.295      865.141
01/07/2014  06:02:00     -108.605      -42.400       -7.506       22.852       26.536       13.696      522.195      704.177      187.567        0.753        0.071      116.588        8.062        0.005      330.358       -2.321      865.172
01/07/2014  06:03:00     -130.637      -27.337      -14.946       18.913       22.305       14.626      357.716      497.503      213.911        0.955        0.053      133.467       10.489        0.006      330.220       -2.546      865.195
01/07/2014  06:04:00     -109.930      -32.291       -3.816       20.027       12.241       13.018      401.084      149.850      169.469        0.693        0.036      114.575       11.018        0.009      330.231       -2.529      865.233
01/07/2014  06:05:00      -75.119      -16.406       -3.112       18.612       17.560       11.136      346.400      308.369      124.010        0.335        0.039       76.890        6.309        0.007      330.159       -2.646      865.258
01/07/2014  06:06:00     -105.448        4.984      -13.070       33.463       13.605        9.187     1119.792      185.094       84.406        0.635        0.069      105.565        5.318        0.003      330.179       -2.613      865.253
01/07/2014  06:07:00     -161.526      -20.093      -15.919       36.514       22.966       18.420     1333.266      527.458      339.286        1.447        0.110      162.771       20.116        0.015      330.101       -2.742      865.245
01/07/2014  06:08:00     -113.158      -17.350      -10.818       31.238       17.894       16.761      975.816      320.208      280.940        0.740        0.079      114.480       16.963        0.022      330.066       -2.799      865.244
01/07/2014  06:09:00      -78.414      -28.457       -1.556       30.520       23.466       18.114      931.460      550.638      328.113        0.439        0.091       83.418       16.363        0.038      330.122       -2.707      865.242
01/07/2014  06:10:00      -73.470      -55.637        2.485       45.940       24.320       24.447     2110.524      591.440      597.673        0.590        0.165       92.160       25.343        0.076      330.129       -2.696      865.252
01/07/2014  06:11:00        7.965       -0.205       16.985       19.634       13.874       16.389      385.502      192.494      268.601        0.060        0.042        7.967       14.327        3.234      330.189       -2.598      865.232
01/07/2014  06:12:00       13.043       33.504       26.038       33.160       27.487       22.272     1099.575      755.550      496.023        0.216        0.118       35.953       10.443        0.084      330.366       -2.307      865.195
01/07/2014  06:13:00     -117.740      -46.120      -12.193       47.838       35.597       18.052     2288.474     1267.111      325.890        1.001        0.194      126.450        4.904        0.002      330.366       -2.307      865.214
01/07/2014  06:14:00      -95.292      -16.768       -3.587       35.679       30.410       12.411     1272.980      924.755      154.024        0.586        0.118       96.756       13.687        0.020      330.282       -2.444      865.238
01/07/2014  06:15:00      -42.529       -8.949       -2.051       15.215       20.774        5.179      231.503      431.540       26.820        0.129        0.034       43.460        4.330        0.010      330.385       -2.275      865.215
01/07/2014  06:16:00     -117.058      -32.879       -6.362       32.952       24.003       16.476     1085.808      576.127      271.450        0.838        0.097      121.588       16.993        0.020      330.419       -2.220      865.221
01/07/2014  06:17:00      -32.957      -19.405        1.993       37.987       27.520       12.262     1443.034      757.365      150.362        0.191        0.118       38.245       14.942        0.153      330.299       -2.417      865.231
01/07/2014  06:18:00      -23.831      -33.831       -9.899        7.867       13.140        7.647       61.897      172.666       58.478        0.105        0.015       41.382        4.320        0.011      330.414       -2.230      865.228
01/07/2014  06:19:00      -11.609      -71.547       -2.408       15.448       15.808       10.679      238.637      249.889      114.044        0.293        0.030       72.483        6.186        0.007      330.567       -1.978      865.238
01/07/2014  06:20:00      -27.582      -10.120       -0.991       13.538       21.545        7.405      183.264      464.169       54.840        0.078        0.035       29.380        4.322        0.022      330.602       -1.919      865.232
01/07/2014  06:21:00      -75.139        8.163       -6.109       12.275       12.317        6.925      150.680      151.700       47.956        0.305        0.018       75.581        4.951        0.004      330.574       -1.967      865.216
01/07/2014  06:22:00     -107.327        1.945      -11.825       17.537       12.714        8.501      307.563      161.635       72.266        0.610        0.027      107.345        7.511        0.005      330.291       -2.430      865.198
01/07/2014  06:23:00     -135.020      -30.102      -16.599       14.461       14.552       10.080      209.111      211.775      101.611        0.997        0.026      138.335        7.958        0.003      330.249       -2.499      865.203
01/07/2014  06:24:00      -80.248      -12.620       -4.182       30.770       17.215       16.474      946.787      296.361      271.405        0.407        0.076       81.234       16.041        0.039      330.195       -2.590      865.209
01/07/2014  06:25:00      -68.732       -9.445       -6.865        9.614        7.441        6.560       92.425       55.364       43.031        0.253        0.010       69.378        4.084        0.003      330.383       -2.280      865.193
01/07/2014  06:26:00     -117.794      -49.924       -7.376       30.113       18.975        9.677      906.789      360.060       93.654        0.889        0.068      127.937        9.977        0.006      330.354       -2.327      865.191
01/07/2014  06:27:00     -154.629      -26.724       -8.166       20.076       28.525       15.199      403.037      813.701      231.017        1.307        0.072      156.921       10.456        0.004      330.118       -2.712      865.203
01/07/2014  06:28:00     -138.226        7.786      -16.579       18.950       15.303       15.581      359.086      234.191      242.768        1.014        0.042      138.445       12.705        0.008      330.071       -2.792      865.189
01/07/2014  06:29:00     -116.316      -17.277      -14.132       12.348       11.903       10.014      152.475      141.690      100.277        0.721        0.020      117.592        4.030        0.001      330.182       -2.610      865.173
01/07/2014  06:30:00     -108.963      -47.842      -17.769       20.924       27.592       12.687      437.815      761.315      160.970        0.792        0.068      119.003        4.580        0.001      330.237       -2.518      865.181
01/07/2014  06:31:00     -141.886      -57.709      -12.811       31.990       32.702       22.775     1023.375     1069.418      518.682        1.312        0.131      153.173       16.158        0.011      330.039       -2.844      865.188
01/07/2014  06:32:00      -88.479        7.165       -6.575       51.474       33.931       22.583     2649.606     1151.312      509.972        0.612        0.216       88.769       21.167        0.057      329.982       -2.938      865.183
01/07/2014  06:33:00      -68.331        1.268       -4.736       26.195       27.810       13.850      686.157      773.377      191.815        0.317        0.083       68.343       12.227        0.032      330.230       -2.531      865.180
01/07/2014  06:34:00      -27.916      -38.992       -1.423       50.380       23.946       22.055     2538.095      573.426      486.431        0.295        0.180       47.955       22.276        0.216      330.183       -2.608      865.200
01/07/2014  06:35:00      -94.044      -39.635       -4.168       40.494       29.798       23.421     1639.725      887.904      548.554        0.675        0.154      102.055       16.908        0.027      330.071       -2.790      865.191
01/07/2014  06:36:00     -126.226        5.162      -12.638       25.678       22.269       14.288      659.364      495.915      204.159        0.874        0.068      126.332        7.747        0.004      330.016       -2.881      865.163
01/07/2014  06:37:00      -37.610      -29.455       -2.106       26.085       26.239       12.706      680.405      688.498      161.443        0.191        0.077       47.771       13.993        0.086      330.005       -2.898      865.151
01/07/2014  06:38:00      -36.487      -32.650       -5.997       28.364       13.428       10.942      804.498      180.321      119.736        0.177        0.055       48.963        8.022        0.027      330.231       -2.527      865.176
01/07/2014  06:39:00      -89.877      -41.507       -8.758       29.765       28.170       17.653      885.983      793.547      311.614        0.593        0.100       98.998       12.747        0.017      330.106       -2.733      865.209
01/07/2014  06:40:00      -92.289      -23.472      -18.064       20.765       32.655       19.630      431.186     1066.356      385.346        0.564        0.094       95.227       13.699        0.021      330.027       -2.863      865.217
01/07/2014  06:41:00     -112.833        8.471       -9.232       43.367       26.207       18.316     1880.663      686.801      335.474        0.790        0.145      113.151       14.875        0.017      330.050       -2.826      865.215
01/07/2014  06:42:00     -184.054       20.699      -17.984       27.437       28.389       15.494      752.812      805.913      240.066        1.821        0.090      185.214       11.749        0.004      330.012       -2.888      865.218
01/07/2014  06:43:00      -91.115       12.968        2.886       40.193       33.279       27.419     1615.516     1107.512      751.817        0.598        0.174       92.033       17.079        0.034      329.894       -3.081      865.204
01/07/2014  06:44:00      -46.750       38.474       -1.822       33.792       34.408       27.771     1141.893     1183.925      771.212        0.338        0.155       60.545        5.902        0.010      330.234       -2.524      865.180
01/07/2014  06:45:00      -69.203       -3.055       -1.943       37.000       33.092       21.522     1368.992     1095.084      463.193        0.386        0.146       69.270       19.372        0.078      330.257       -2.488      865.190
01/07/2014  06:46:00     -150.306      -36.826       -9.351       37.980       31.461       17.842     1442.477      989.803      318.325        1.339        0.138      154.751       17.693        0.013      329.966       -2.962      865.221
01/07/2014  06:47:00      -68.178      -41.438       -0.774       48.723       30.881       23.198     2373.954      953.624      538.126        0.512        0.193       79.783       28.951        0.132      329.998       -2.911      865.231
01/07/2014  06:48:00      -49.278      -39.530       -0.209       43.339       27.591       18.903     1878.268      761.290      357.314        0.349        0.150       63.174       23.844        0.142      330.035       -2.849      865.218
01/07/2014  06:49:00      -72.946      -25.415       -3.524       16.979       20.263       12.467      288.280      410.607      155.438        0.342        0.043       77.247        8.518        0.012      329.972       -2.953      865.202
01/07/2014  06:50:00      -45.221      -18.926       -4.144       16.856       12.425        8.754      284.130      154.380       76.636        0.147        0.026       49.021        9.207        0.035      329.955       -2.982      865.186
01/07/2014  06:51:00      -31.984      -15.934       -4.799       10.190        7.128        6.622      103.844       50.809       43.848        0.075        0.010       35.733        6.261        0.031      330.182       -2.610      865.173
01/07/2014  06:52:00      -71.487      -33.447      -12.716       24.374       14.659       10.663      594.082      214.890      113.696        0.366        0.046       78.925        7.303        0.009      330.199       -2.581      865.180
01/07/2014  06:53:00     -122.816      -24.816      -10.709       44.487       26.394       20.809     1979.106      696.621      433.030        0.946        0.155      125.298       22.147        0.031      330.032       -2.853      865.214
01/07/2014  06:54:00      -68.069       -5.201       -5.275       38.589       38.807       24.943     1489.123     1505.971      622.177        0.415        0.181       68.267       25.949        0.144      329.967       -2.961      865.207
01/07/2014  06:55:00      -31.343      -15.873      -10.313       23.275       30.673       14.388      541.744      940.844      207.027        0.151        0.084       35.133       12.955        0.136      330.104       -2.737      865.179
01/07/2014  06:56:00      -14.996       13.144       12.321       33.471       26.557       22.410     1120.311      705.294      502.205        0.144        0.116       19.941       19.790        0.985      330.209       -2.564      865.157
01/07/2014  06:57:00      -52.865       30.944       -1.096       29.817       28.059       20.825      889.073      787.289      433.660        0.293        0.106       61.255       14.986        0.060      330.356       -2.323      865.126
01/07/2014  06:58:00      -53.749       25.118       -8.849       24.053       35.432       15.244      578.532     1255.418      232.378        0.283        0.103       59.328       12.554        0.045      330.561       -1.987      865.116
01/07/2014  06:59:00     -104.167      -36.646      -15.244       42.846       32.339       20.517     1835.741     1045.785      420.967        0.786        0.165      110.425       13.921        0.016      330.360       -2.318      865.150
01/07/2014  07:00:00      -28.195      -32.327      -15.361       50.380       26.724       23.112     2538.096      714.182      534.142        0.293        0.189       42.895       15.614        0.133      330.266       -2.470      865.176
01/07/2014  07:01:00       -0.256      -45.980      -18.735       37.455       29.941       26.351     1402.902      896.479      694.378        0.273        0.150       45.981       20.532        0.199      330.363       -2.312      865.154
01/07/2014  07:02:00        7.597       38.550       27.447       17.340       20.017       20.409      300.670      400.677      416.512        0.171        0.056       39.292       11.403        0.084      330.308       -2.402      865.136
01/07/2014  07:03:00      -47.993      -13.652       -3.739       25.631       16.978       11.801      656.947      288.236      139.275        0.179        0.054       49.897       12.523        0.063      330.399       -2.255      865.153
01/07/2014  07:04:00      -96.202      -25.775       -7.223       20.711       25.037       14.030      428.951      626.856      196.839        0.561        0.063       99.595       11.771        0.014      330.388       -2.271      865.166
01/07/2014  07:05:00      -85.197        8.040      -11.827       24.286       19.197       11.091      589.822      368.535      123.006        0.427        0.054       85.576        9.267        0.012      330.282       -2.445      865.150
01/07/2014  07:06:00      -90.329       23.522      -12.634       17.818       15.035       10.571      317.490      226.053      111.742        0.476        0.033       93.341        7.076        0.006      330.232       -2.527      865.113
01/07/2014  07:07:00      -82.225        3.193      -10.796       24.230       28.377       12.535      587.110      805.259      157.136        0.422        0.077       82.287        8.379        0.010      330.239       -2.515      865.119
01/07/2014  07:08:00      -10.322      -35.383        1.908       25.381       15.427       11.418      644.182      238.006      130.371        0.119        0.051       36.858       11.804        0.103      330.321       -2.382      865.152
01/07/2014  07:09:00      -15.253       -5.676        4.202       14.733        9.886        9.990      217.071       97.741       99.801        0.035        0.021       16.275        4.583        0.079      330.361       -2.317      865.169
01/07/2014  07:10:00      -63.349        1.265       -5.566       11.122       10.243       10.126      123.702      104.919      102.535        0.219        0.017       63.362        4.761        0.006      330.212       -2.559      865.160
01/07/2014  07:11:00      -81.662       15.235       -7.722       26.355       25.323       18.480      694.574      641.274      341.516        0.432        0.084       83.071       15.210        0.034      330.115       -2.719      865.140
01/07/2014  07:12:00      -76.083       37.249       -8.352       29.856       24.818       18.003      891.394      615.918      324.108        0.454        0.092       84.712       15.488        0.033      330.097       -2.748      865.114
01/07/2014  07:13:00      -65.545       29.434      -18.837       32.365       21.948       10.485     1047.499      481.730      109.942        0.358        0.082       71.850        4.433        0.004      330.190       -2.596      865.112
01/07/2014  07:14:00      -70.012       15.463      -17.459       16.107       23.692       11.210      259.434      561.329      125.665        0.320        0.047       71.700        9.520        0.018      330.180       -2.612      865.118
01/07/2014  07:15:00      -65.333       21.372       -9.639       19.753       18.480       12.556      390.175      341.523      157.661        0.285        0.044       68.740        8.534        0.015      330.167       -2.635      865.137
01/07/2014  07:16:00      -32.808       -2.073       -8.230       12.187       11.790        8.447      148.529      138.999       71.348        0.075        0.018       32.873        5.277        0.026      330.068       -2.797      865.163
01/07/2014  07:17:00       -6.234      -19.006       -3.848       17.863       14.001        6.391      319.078      196.022       40.850        0.049        0.028       20.003        4.204        0.044      330.196       -2.586      865.207
01/07/2014  07:18:00        7.440      -43.197       -5.616        7.455       13.285        7.489       55.572      176.488       56.085        0.112        0.014       43.833        6.039        0.019      330.220       -2.547      865.238
01/07/2014  07:19:00        9.047      -38.986        5.148        9.668       15.065       11.653       93.473      226.941      135.798        0.104        0.023       40.022        7.233        0.033      330.372       -2.299      865.246
01/07/2014  07:20:00      -35.830      -34.267       -3.890       26.547       17.463        8.099      704.736      304.972       65.597        0.177        0.054       49.579        6.735        0.018      330.320       -2.383      865.246
01/07/2014  07:21:00      -69.313        2.608       -6.127       16.916       11.790       12.003      286.160      139.012      144.064        0.271        0.028       69.362        9.061        0.017      329.983       -2.935      865.243
01/07/2014  07:22:00      -37.887       15.236       -5.468       25.305        8.518        8.441      640.338       72.554       71.257        0.124        0.039       40.835        9.328        0.052      329.979       -2.942      865.235
01/07/2014  07:23:00       23.318       16.004        3.586       13.530       13.415        7.990      183.068      179.955       63.846        0.062        0.021       28.282        5.315        0.035      330.191       -2.594      865.227
01/07/2014  07:24:00       34.431       61.233       -5.926       10.070       15.838       10.627      101.407      250.850      112.926        0.272        0.023       70.249        9.361        0.018      330.410       -2.236      865.216
01/07/2014  07:25:00       25.448       66.216       -8.167        8.045       10.776        7.698       64.727      116.113       59.266        0.267        0.012       70.938        5.439        0.006      330.583       -1.951      865.197
01/07/2014  07:26:00      -32.069        8.440       -2.266       39.531       42.810       14.002     1562.705     1832.683      196.050        0.235        0.180       33.161       17.510        0.279      330.486       -2.111      865.214
01/07/2014  07:27:00      -50.867      -38.468       -3.259       35.952       20.006       19.411     1292.520      400.226      376.789        0.307        0.103       63.775        6.361        0.010      329.911       -3.053      865.262
01/07/2014  07:28:00      -53.205      -37.241        4.015       36.063       20.200       18.186     1300.552      408.049      330.725        0.314        0.102       64.944       18.916        0.085      329.934       -3.015      865.275
01/07/2014  07:29:00     -105.892      -41.571       -8.477       32.900       37.838       20.517     1082.433     1431.745      420.940        0.797        0.147      113.760       11.554        0.010      330.167       -2.633      865.266
01/07/2014  07:30:00     -118.971      -48.662       -7.892       37.307       32.363       24.160     1391.796     1047.370      583.707        0.980        0.151      128.539       17.695        0.019      330.187       -2.601      865.268
01/07/2014  07:31:00      -54.622      -44.338        6.416       42.248       35.919       22.853     1784.880     1290.141      522.261        0.429        0.180       70.353       26.111        0.138      330.167       -2.634      865.290
01/07/2014  07:32:00      -36.176      -46.940        1.317       24.140       24.796       13.735      582.747      614.825      188.652        0.245        0.069       59.263       10.994        0.034      330.229       -2.533      865.305
01/07/2014  07:33:00       -9.096      -20.836       10.556       25.012       37.982       15.110      625.578     1442.626      228.315        0.146        0.115       22.735       20.927        0.847      330.375       -2.293      865.295
01/07/2014  07:34:00       -6.252       10.898        1.613       28.309        9.629       14.317      801.404       92.727      204.975        0.063        0.055       12.564       16.436        1.711      330.466       -2.142      865.278
01/07/2014  07:35:00      -83.795       14.594       -8.226       17.982       14.629       11.625      323.346      214.019      135.131        0.399        0.034       85.056       10.483        0.015      330.155       -2.655      865.258
01/07/2014  07:36:00      -99.836      -15.229      -10.719       15.319       15.192        8.745      234.679      230.788       76.479        0.543        0.027      100.991        5.623        0.003      330.097       -2.749      865.252
01/07/2014  07:37:00      -99.894      -41.753       -8.013       43.064       25.646       21.358     1854.471      657.717      456.166        0.738        0.148      108.269        6.729        0.004      330.062       -2.806      865.271
01/07/2014  07:38:00      -73.862      -43.778        9.304       46.046       39.852       25.423     2120.188     1588.172      646.326        0.591        0.218       85.861       21.809        0.065      330.045       -2.834      865.286
01/07/2014  07:39:00      -84.170      -37.462        0.011       32.016       31.157       18.305     1025.000      970.747      335.071        0.541        0.117       92.131       17.383        0.036      330.167       -2.634      865.267
01/07/2014  07:40:00      -70.988       18.337       -3.919       26.189       18.329       10.904      685.858      335.943      118.896        0.327        0.057       73.318        9.271        0.016      330.126       -2.702      865.219
01/07/2014  07:41:00      -81.461       -4.948      -12.456       22.285       16.072       12.681      496.635      258.304      160.808        0.387        0.046       81.611        8.122        0.010      330.093       -2.756      865.202
01/07/2014  07:42:00     -114.863      -40.348      -13.749       34.007       20.738       18.826     1156.451      430.072      354.426        0.848        0.097      121.743       14.671        0.015      330.101       -2.743      865.244
01/07/2014  07:43:00     -156.071      -41.528      -18.099       26.949       27.438       13.013      726.223      752.845      169.348        1.403        0.082      161.501        5.615        0.001      330.000       -2.907      865.302
01/07/2014  07:44:00      -91.650        1.940       -3.495       57.257       25.643       17.617     3278.414      657.569      310.357        0.633        0.212       91.670       24.962        0.074      329.880       -3.104      865.303
01/07/2014  07:45:00      -42.785       12.191       -1.191       36.254       26.106       19.808     1314.366      681.518      392.364        0.218        0.119       44.488       17.696        0.158      329.968       -2.959      865.278
01/07/2014  07:46:00      -73.682        5.463      -11.592       30.000       18.373       14.965      900.013      337.564      223.936        0.353        0.073       73.884        9.047        0.015      330.100       -2.744      865.276
01/07/2014  07:47:00     -130.241      -28.802      -15.882       35.825       22.878       16.151     1283.421      523.394      260.856        1.006        0.103      133.388       13.658        0.010      330.052       -2.823      865.307
01/07/2014  07:48:00     -104.125      -16.651       -6.262       47.364       29.400       19.229     2243.353      864.367      369.766        0.732        0.174      105.448       24.455        0.054      330.023       -2.869      865.312
01/07/2014  07:49:00      -77.934      -30.554       -3.293       22.259       18.862       17.501      495.473      355.765      306.277        0.409        0.058       83.709       11.947        0.020      330.055       -2.817      865.292
01/07/2014  07:50:00      -70.547      -39.379       -6.060       21.225       16.227       13.074      450.503      263.329      170.937        0.372        0.044       80.794       10.343        0.016      330.095       -2.752      865.291
01/07/2014  07:51:00      -53.417      -21.522        8.175       38.587       24.874       19.840     1488.957      618.728      393.614        0.294        0.125       57.590       21.047        0.134      330.219       -2.548      865.302
01/07/2014  07:52:00      -48.483      -24.249        2.209       28.681       22.345       17.885      822.600      499.280      319.875        0.229        0.082       54.209       17.325        0.102      330.294       -2.425      865.305
01/07/2014  07:53:00      -27.785        7.665        5.887       24.327       14.174       12.685      591.820      200.895      160.900        0.091        0.048       28.823       13.433        0.217      330.401       -2.250      865.291
01/07/2014  07:54:00      -17.529       30.466        5.036       16.606       19.451       16.490      275.763      378.349      271.914        0.109        0.046       35.149       15.064        0.184      330.463       -2.149      865.265
01/07/2014  07:55:00      -10.108       -5.994        4.100       22.357       15.327       10.183      499.849      234.907      103.699        0.050        0.042       11.752       11.982        1.040      330.610       -1.908      865.277
01/07/2014  07:56:00      -41.831      -13.111       -8.137       15.723       13.965        8.334      247.212      195.021       69.453        0.125        0.026       43.837        4.918        0.013      330.545       -2.015      865.312
01/07/2014  07:57:00      -42.887       41.367       -4.395       11.400       19.418        8.673      129.957      377.058       75.228        0.208        0.029       59.587        3.740        0.004      330.549       -2.008      865.302
01/07/2014  07:58:00      -53.309       64.950      -13.393       18.524       23.137       12.469      343.128      535.328      155.464        0.414        0.052       84.026       10.902        0.017      330.701       -1.758      865.268
01/07/2014  07:59:00      -81.409       88.072      -22.448       15.456       18.595       10.954      238.878      345.768      119.983        0.780        0.035      119.934        7.102        0.004      330.844       -1.523      865.274
01/07/2014  08:00:00      -58.639       43.510      -13.156       11.194       19.004       10.298      125.302      361.148      106.051        0.305        0.030       73.018       11.047        0.023      330.854       -1.506      865.284
01/07/2014  08:01:00       -9.364      -16.284        0.801       21.466       20.575       11.365      460.784      423.331      129.156        0.068        0.051       18.785       11.545        0.378      330.814       -1.572      865.291
01/07/2014  08:02:00        6.838       -9.568        5.741       12.947       13.178       11.683      167.631      173.664      136.502        0.032        0.024       11.760        7.110        0.365      330.761       -1.659      865.307
01/07/2014  08:03:00       14.861       18.827       20.068       12.431       11.283        9.709      154.522      127.316       94.264        0.068        0.019       23.986        5.048        0.044      330.883       -1.460      865.312
01/07/2014  08:04:00       12.580        7.574        3.834        9.531        7.117        7.654       90.846       50.645       58.585        0.022        0.010       14.683        5.153        0.123      330.836       -1.538      865.324
01/07/2014  08:05:00       11.886        3.135       13.080       10.687        8.396        9.309      114.207       70.493       86.656        0.030        0.014       12.293        1.943        0.025      331.006       -1.258      865.304
01/07/2014  08:06:00       -9.103      -17.724       10.991       18.136       16.051        7.991      328.922      257.629       63.852        0.058        0.033       19.925        8.667        0.189      331.141       -1.034      865.293
01/07/2014  08:07:00      -57.850      -36.488      -11.784       21.251       29.577       13.627      451.591      874.827      185.705        0.316        0.076       68.396       13.820        0.041      330.660       -1.826      865.317
01/07/2014  08:08:00      -23.847      -28.604        8.288       31.028       25.262       16.475      962.746      638.157      271.417        0.166        0.094       37.241       17.050        0.210      330.826       -1.552      865.333
01/07/2014  08:09:00      -38.620      -21.397        9.413       37.377       28.484       15.227     1397.033      811.360      231.868        0.224        0.122       44.152       22.241        0.254      331.040       -1.202      865.332
01/07/2014  08:10:00      -91.440      -42.555        1.272       41.958       41.935       28.238     1760.448     1758.505      797.391        0.724        0.216      100.857       26.340        0.068      330.847       -1.517      865.339
01/07/2014  08:11:00      -63.750      -46.797       -1.155       54.882       30.049       25.088     3012.033      902.939      629.405        0.540        0.227       79.082       25.664        0.105      330.886       -1.455      865.343
01/07/2014  08:12:00      -49.670      -44.799       -2.656       36.799       24.557       16.962     1354.189      603.024      287.701        0.336        0.112       66.888       11.505        0.030      330.945       -1.359      865.364
01/07/2014  08:13:00      -31.726      -41.312        0.528       41.366       26.395       19.359     1711.185      696.675      374.767        0.275        0.139       52.089       16.901        0.105      330.917       -1.402      865.399
01/07/2014  08:14:00      -72.200      -81.276       -7.914       28.432       19.573       15.183      808.396      383.099      230.529        0.665        0.071      108.713       13.726        0.016      330.870       -1.480      865.431
01/07/2014  08:15:00      -62.226      -73.800       -3.739       43.972       31.735       20.971     1933.503     1007.084      439.767        0.636        0.169       96.532       10.080        0.011      330.855       -1.505      865.445
01/07/2014  08:16:00      -84.578      -60.058        0.164       47.528       33.473       21.753     2258.892     1120.453      473.203        0.731        0.193      103.732       24.561        0.056      330.749       -1.681      865.465
01/07/2014  08:17:00      -50.704      -39.576       -2.323       25.785       27.103       12.126      664.858      734.557      147.051        0.284        0.077       64.321        8.923        0.019      330.740       -1.694      865.470
01/07/2014  08:18:00      -42.822      -10.592        0.116       16.429       23.772       11.735      269.918      565.128      137.713        0.146        0.049       44.113       12.778        0.084      330.798       -1.599      865.472
01/07/2014  08:19:00      -40.237      -24.089       -0.415       42.864       25.032       19.132     1837.296      626.623      366.022        0.251        0.141       46.897       15.549        0.110      330.881       -1.461      865.482
01/07/2014  08:20:00     -102.940      -59.931       -9.426       34.419       21.156       16.975     1184.698      447.558      288.164        0.810        0.096      119.115       11.456        0.009      330.774       -1.639      865.496
01/07/2014  08:21:00     -114.965      -44.861      -11.409       28.858       29.114       15.396      832.792      847.637      237.049        0.864        0.096      123.408        9.082        0.005      330.795       -1.603      865.517
01/07/2014  08:22:00     -113.694      -33.110       -5.033       24.338       21.491       17.155      592.333      461.855      294.292        0.770        0.067      118.417       14.495        0.015      330.875       -1.472      865.532
01/07/2014  08:23:00     -114.504       -3.297      -13.081       27.542       21.863       16.387      758.553      478.006      268.549        0.740        0.075      114.552       12.867        0.013      330.805       -1.589      865.528
01/07/2014  08:24:00      -91.655       -2.870      -10.992       47.620       24.729       23.477     2267.696      611.522      551.160        0.598        0.172       91.700       22.635        0.061      330.805       -1.588      865.536
01/07/2014  08:25:00     -122.245       -0.573       -4.118       44.311       25.818       17.471     1963.447      666.544      305.225        0.895        0.147      122.247       16.905        0.019      330.809       -1.580      865.546
01/07/2014  08:26:00      -65.881      -21.365       -6.290       25.558       23.335       14.618      653.216      544.515      213.671        0.312        0.071       69.259        9.010        0.017      330.868       -1.484      865.565
01/07/2014  08:27:00      -83.791       -2.806       -6.473       22.768       22.211       12.264      518.385      493.332      150.399        0.412        0.058       83.838       12.791        0.023      330.853       -1.508      865.560
01/07/2014  08:28:00     -124.399       -9.868       -9.012       14.392       17.737       12.097      207.119      314.602      146.327        0.816        0.033      124.790        8.278        0.004      330.901       -1.429      865.568
01/07/2014  08:29:00      -98.356        3.127      -11.206       12.920       10.102        7.892      166.920      102.054       62.283        0.507        0.017       98.406        7.504        0.006      330.920       -1.396      865.554
01/07/2014  08:30:00      -82.912       19.265       -8.145       18.961       13.191       12.511      359.507      174.007      156.523        0.400        0.035       85.121       10.956        0.017      330.958       -1.337      865.551
01/07/2014  08:31:00      -78.643       -0.632      -11.110       19.509       24.354       12.605      380.594      593.142      158.879        0.372        0.057       78.646        6.591        0.007      331.062       -1.165      865.573
01/07/2014  08:32:00      -31.795      -28.746       -2.927       30.381       20.434       16.724      922.978      417.545      279.698        0.173        0.081       42.864       14.092        0.108      331.111       -1.085      865.604
01/07/2014  08:33:00      -23.640      -27.289        3.718       20.491       11.973       13.885      419.893      143.351      192.787        0.104        0.038       36.105       10.877        0.091      331.108       -1.091      865.614
01/07/2014  08:34:00      -35.301      -14.403       -2.712        9.542       10.373        6.000       91.052      107.594       36.001        0.085        0.012       38.126        2.705        0.005      331.114       -1.080      865.607
01/07/2014  08:35:00      -48.384      -21.241       -3.441       12.613       12.952        9.813      159.090      167.745       96.296        0.161        0.021       52.841        3.812        0.005      331.179       -0.974      865.623
01/07/2014  08:36:00      -44.770      -21.602       -1.182       12.435       12.088        6.866      154.636      146.131       47.147        0.141        0.017       49.709        4.638        0.009      331.182       -0.968      865.629
01/07/2014  08:37:00      -57.162      -19.253       -8.880       12.720       14.223        7.198      161.808      202.292       51.809        0.207        0.021       60.317        5.473        0.008      331.139       -1.040      865.629
01/07/2014  08:38:00      -24.526      -12.891       -1.478       15.057        9.711        6.737      226.721       94.295       45.386        0.057        0.018       27.707        9.104        0.108      331.240       -0.871      865.627
01/07/2014  08:39:00       -4.830      -27.887       -9.235        8.529       11.794        4.972       72.747      139.106       24.716        0.056        0.012       28.303        3.813        0.018      331.383       -0.637      865.617
01/07/2014  08:40:00      -24.485      -26.927       -3.999       20.883       12.828        7.585      436.102      164.554       57.528        0.100        0.033       36.394        7.601        0.044      331.466       -0.501      865.626
01/07/2014  08:41:00      -52.472        3.112       -1.936       10.064        6.741        6.125      101.276       45.448       37.511        0.148        0.009       52.564        4.066        0.006      331.315       -0.748      865.624
01/07/2014  08:42:00      -45.643        6.564       -1.959        8.613        7.925        6.357       74.176       62.806       40.414        0.115        0.009       46.113        4.877        0.011      331.226       -0.896      865.614
01/07/2014  08:43:00      -39.478        6.465       -4.392        8.808        8.619        5.668       77.585       74.292       32.128        0.090        0.009       40.003        5.907        0.022      331.377       -0.648      865.621
01/07/2014  08:44:00      -22.583        6.483        0.812        8.169        8.051        4.475       66.734       64.812       20.024        0.035        0.008       23.495        4.972        0.045      331.473       -0.491      865.637
01/07/2014  08:45:00       17.071       33.944       11.061       14.966       19.635       18.917      223.992      385.540      357.837        0.127        0.048       37.995       18.275        0.231      331.355       -0.685      865.643
01/07/2014  08:46:00       34.490       30.703       -2.929       21.981       14.111       16.959      483.182      199.107      287.617        0.156        0.048       46.177       15.058        0.106      331.278       -0.809      865.634
01/07/2014  08:47:00       35.841       17.797        1.180       20.227       20.873       19.159      409.133      435.689      367.063        0.141        0.061       40.016       10.946        0.075      331.267       -0.829      865.645
01/07/2014  08:48:00       20.978       26.453       -0.590       14.246       15.536       12.167      202.935      241.372      148.038        0.087        0.030       33.762        5.093        0.023      331.180       -0.971      865.666
01/07/2014  08:49:00       34.148       22.453       -0.283        9.560       10.240       10.153       91.402      104.850      103.089        0.098        0.015       40.868        3.913        0.009      331.163       -1.001      865.665
01/07/2014  08:50:00       33.463       22.355        5.893       12.928        9.628       12.351      167.137       92.691      152.538        0.103        0.021       40.243        6.398        0.025      331.203       -0.934      865.676
01/07/2014  08:51:00       43.492       40.373       21.248       16.034       12.377       13.673      257.077      153.185      186.954        0.229        0.030       59.343        9.232        0.024      331.231       -0.887      865.679
01/07/2014  08:52:00       56.602       38.054       10.868       20.575       18.135       20.233      423.312      328.890      409.368        0.297        0.058       68.204        8.879        0.017      331.239       -0.873      865.679
01/07/2014  08:53:00       65.228       49.268       18.809       22.996       15.701       21.774      528.810      246.526      474.117        0.414        0.062       81.743       14.353        0.031      331.196       -0.945      865.692
01/07/2014  08:54:00       40.097       29.849       30.134       17.521       24.315       16.313      306.999      591.225      266.098        0.229        0.058       49.988       10.535        0.044      331.266       -0.829      865.682
01/07/2014  08:55:00       23.762       52.098       -0.145       20.822       22.302       19.982      433.551      497.366      399.262        0.230        0.067       57.262       13.314        0.054      331.301       -0.773      865.646
01/07/2014  08:56:00        8.469       25.471       -2.008       18.108       18.272       17.971      327.914      333.850      322.956        0.085        0.049       26.842       15.936        0.352      331.394       -0.619      865.626
01/07/2014  08:57:00       42.539       23.581        9.610       19.857       14.057       19.279      394.287      197.609      371.672        0.171        0.048       48.638       15.323        0.099      331.420       -0.576      865.621
01/07/2014  08:58:00       51.541       51.459        5.295       12.824       16.070       18.152      164.460      258.233      329.494        0.304        0.038       72.832       11.987        0.027      331.336       -0.713      865.649
01/07/2014  08:59:00       24.214       49.754       50.612       20.534       20.429       15.730      421.639      417.333      247.434        0.335        0.054       55.333        9.969        0.032      331.606       -0.272      865.682
01/07/2014  09:00:00       18.004       46.026       54.576       26.940       22.943       17.824      725.778      526.388      317.688        0.350        0.078       49.422       14.965        0.092      331.638       -0.218      865.705
01/07/2014  09:01:00       78.924       68.443       54.684       27.766       16.453       22.433      770.943      270.711      503.248        0.772        0.077      104.468       19.792        0.036      331.438       -0.547      865.719
01/07/2014  09:02:00      110.758       49.386       19.484       37.769       28.738       28.705     1426.470      825.899      823.973        0.908        0.154      121.270       21.760        0.032      331.525       -0.403      865.720
01/07/2014  09:03:00       87.180       52.790       17.771       34.851       20.558       26.744     1214.599      422.650      715.255        0.653        0.118      101.917       17.494        0.029      331.608       -0.267      865.705
01/07/2014  09:04:00       71.114       63.229       43.840       34.355       23.736       28.713     1180.289      563.400      824.408        0.677        0.128       95.158       17.574        0.034      331.675       -0.156      865.688
01/07/2014  09:05:00       42.143       37.277       47.999       46.207       39.542       20.123     2135.062     1563.590      404.949        0.479        0.205       56.264       14.510        0.067      331.851        0.134      865.678
01/07/2014  09:06:00        0.591       28.368       37.448       20.041       25.268       20.136      401.632      638.482      405.457        0.183        0.072       28.374       13.131        0.214      332.002        0.381      865.697
01/07/2014  09:07:00       17.608        0.511       26.096       31.736       43.633       30.618     1007.180     1903.842      937.436        0.242        0.192       17.615       34.455        3.826      331.903        0.219      865.730
01/07/2014  09:08:00        8.531        7.089       30.872       19.733       19.571       17.616      389.380      383.011      310.335        0.108        0.054       11.092        9.155        0.681      332.070        0.493      865.746
01/07/2014  09:09:00       -0.047       37.153       55.755       17.833       32.991       33.498      318.002     1088.387     1122.103        0.351        0.126       37.153       28.751        0.599      332.115        0.567      865.734
01/07/2014  09:10:00       19.382      106.334      103.687       39.778       38.431       19.671     1582.304     1476.954      386.957        1.294        0.172      108.086       18.564        0.030      331.838        0.111      865.711
01/07/2014  09:11:00       56.058       52.272       74.182       38.478       42.665       23.385     1480.546     1820.262      546.881        0.761        0.192       76.648       18.839        0.060      331.877        0.175      865.701
01/07/2014  09:12:00       42.869       75.476       77.963       50.314       38.908       28.050     2531.523     1513.836      786.798        0.922        0.242       86.801       29.145        0.113      331.914        0.238      865.697
01/07/2014  09:13:00       65.432       89.939       81.279       41.839       33.869       26.722     1750.470     1147.087      714.041        1.129        0.181      111.222       22.749        0.042      331.855        0.139      865.699
01/07/2014  09:14:00       45.219       58.884       74.627       48.817       48.382       27.824     2383.097     2340.840      774.201        0.829        0.275       74.243       25.056        0.114      332.011        0.397      865.697
01/07/2014  09:15:00       81.866       90.367       70.343       50.996       51.483       42.550     2600.547     2650.516     1810.536        1.344        0.353      121.935       37.088        0.093      331.940        0.279      865.671
01/07/2014  09:16:00      136.724       76.018       25.275       40.391       31.055       40.823     1631.431      964.396     1666.502        1.469        0.213      156.436       18.494        0.014      331.761       -0.016      865.637
01/07/2014  09:17:00       80.580       73.249       52.846       57.281       33.904       37.424     3281.128     1149.469     1400.590        1.024        0.292      108.897       32.173        0.087      331.868        0.160      865.612
01/07/2014  09:18:00      165.377       92.651       10.335       38.215       40.221       30.444     1460.351     1617.706      926.852        2.002        0.200      189.562       21.178        0.012      331.678       -0.153      865.609
01/07/2014  09:19:00      153.084       84.115        3.438       25.995       31.068       26.503      675.754      965.190      702.415        1.643        0.117      174.672       11.408        0.004      331.589       -0.300      865.618
01/07/2014  09:20:00      119.543       54.223       17.231       56.381       39.758       39.621     3178.778     1580.737     1569.834        1.193        0.316      131.266       26.733        0.041      331.715       -0.091      865.627
01/07/2014  09:21:00      109.981       43.184       31.460       59.222       46.658       35.715     3507.283     2177.014     1275.573        1.095        0.348      118.155       29.580        0.063      331.778        0.012      865.637
01/07/2014  09:22:00      124.057       90.560       44.531       55.966       41.461       50.141     3132.183     1718.987     2514.164        1.647        0.368      153.594       35.313        0.053      331.921        0.247      865.624
01/07/2014  09:23:00       77.739      100.399       73.596       62.926       44.922       49.248     3959.655     2017.943     2425.335        1.497        0.420      126.978       44.198        0.121      331.950        0.295      865.611
01/07/2014  09:24:00      117.696       96.898       53.354       49.832       45.320       43.459     2483.245     2053.919     1888.647        1.626        0.321      152.452       33.310        0.048      331.790        0.032      865.635
01/07/2014  09:25:00      140.406       60.176       23.242       44.594       35.181       31.533     1988.651     1237.728      994.305        1.405        0.211      152.757       16.754        0.012      331.742       -0.046      865.648
01/07/2014  09:26:00      103.512       59.336        5.057       46.856       26.169       33.112     2195.526      684.840     1096.434        0.912        0.199      119.313       23.555        0.039      331.768       -0.004      865.629
01/07/2014  09:27:00      101.664       59.548        2.001       37.527       39.756       26.986     1408.274     1580.577      728.245        0.880        0.186      117.820       18.901        0.026      331.874        0.172      865.607
01/07/2014  09:28:00       57.515       54.290        6.812       42.643       30.582       20.825     1818.450      935.272      433.698        0.474        0.159       79.091       19.586        0.061      331.879        0.178      865.621
01/07/2014  09:29:00        8.961       14.548       52.297       22.582       33.799       21.147      509.967     1142.380      447.213        0.256        0.105       17.086       17.321        1.028      332.487        1.182      865.642
01/07/2014  09:30:00       42.069       33.081       18.316       26.718       26.670       32.199      713.878      711.263     1036.788        0.283        0.123       53.518       19.158        0.128      332.189        0.689      865.651
01/07/2014  09:31:00       37.628        9.809       32.250       24.853       31.567       29.662      617.670      996.483      879.853        0.252        0.125       38.885       23.786        0.374      332.332        0.925      865.642
01/07/2014  09:32:00       22.656       55.969       60.786       22.032       49.180       38.628      485.399     2418.657     1492.109        0.587        0.220       60.381       40.142        0.442      332.396        1.032      865.613
01/07/2014  09:33:00       49.703      100.171       86.534       56.061       40.126       43.401     3142.850     1610.065     1883.640        1.331        0.332      111.824       37.761        0.114      332.265        0.816      865.577
01/07/2014  09:34:00       26.394       48.260       55.762       51.198       35.618       27.797     2621.234     1268.620      772.677        0.540        0.233       55.006       27.604        0.252      332.449        1.120      865.584
01/07/2014  09:35:00        4.719        8.712       30.547       21.137       31.508       27.774      446.754      992.782      771.395        0.162        0.111        9.908       21.960        4.912      332.607        1.380      865.628
01/07/2014  09:36:00       27.681       16.270       35.958       26.553       39.566       28.189      705.058     1565.505      794.599        0.269        0.153       32.109       26.925        0.703      332.541        1.271      865.653
01/07/2014  09:37:00       63.730       55.094       42.286       37.480       27.840       21.831     1404.785      775.044      476.598        0.577        0.133       84.243       22.564        0.072      332.458        1.135      865.623
01/07/2014  09:38:00       46.072       72.237       56.372       56.863       30.708       42.402     3233.449      942.976     1797.949        0.825        0.299       85.679       40.363        0.222      332.648        1.447      865.585
01/07/2014  09:39:00       16.723      120.131      106.908       43.749       45.508       32.294     1913.992     2070.972     1042.909        1.558        0.251      121.289       25.724        0.045      332.581        1.337      865.559
01/07/2014  09:40:00       54.785       53.217       33.424       44.316       30.274       35.966     1963.942      916.523     1293.566        0.556        0.209       76.377       28.554        0.140      332.601        1.370      865.565
01/07/2014  09:41:00       59.817       55.360       10.520       19.396       26.457       18.856      376.211      699.962      355.557        0.409        0.072       81.503       13.512        0.027      332.444        1.110      865.581
01/07/2014  09:42:00       24.223       29.782       18.451       28.935       32.673       25.473      837.249     1067.512      648.881        0.218        0.128       38.389       19.964        0.270      332.718        1.563      865.575
01/07/2014  09:43:00       10.243       18.307       33.921       45.510       57.313       46.303     2071.191     3284.766     2143.936        0.454        0.375       20.978       38.769        3.416      332.809        1.713      865.532
01/07/2014  09:44:00      118.250      111.350       74.669       77.424       50.184       58.174     5994.459     2518.467     3384.272        2.193        0.595      162.425       47.880        0.087      332.539        1.264      865.484
01/07/2014  09:45:00       37.980       71.859       62.581       45.430       54.308       41.217     2063.880     2949.328     1698.818        0.862        0.336       81.279       28.549        0.123      332.712        1.553      865.460
01/07/2014  09:46:00       18.527       37.535       38.449       32.267       46.610       34.337     1041.143     2172.471     1179.046        0.381        0.220       41.858       29.553        0.498      332.677        1.495      865.496
01/07/2014  09:47:00       42.084      -87.874        6.912       44.803       37.602       29.053     2007.301     1413.943      844.079        0.690        0.213       97.431       23.326        0.057      332.590        1.353      865.540
01/07/2014  09:48:00       53.808       30.217       35.250       41.637       43.435       25.338     1733.613     1886.567      642.020        0.466        0.213       61.712       20.514        0.111      332.945        1.938      865.544
01/07/2014  09:49:00       86.322       54.598       17.215       26.403       23.872       26.171      697.103      569.849      684.932        0.634        0.098      102.139        8.970        0.008      332.615        1.392      865.511
01/07/2014  09:50:00       68.399       72.566       29.060       39.367       30.029       36.070     1549.735      901.729     1301.030        0.727        0.188       99.720       28.986        0.084      332.690        1.517      865.489
01/07/2014  09:51:00       37.591       66.108       46.557       29.923       23.763       38.062      895.407      564.696     1448.688        0.543        0.145       76.048       21.652        0.081      332.649        1.449      865.511
01/07/2014  09:52:00       25.263       40.162       32.154       28.610       25.007       24.220      818.508      625.359      586.615        0.266        0.102       47.447       13.153        0.077      333.003        2.034      865.517
01/07/2014  09:53:00      100.452       59.490        2.399       32.496       22.861       22.604     1055.978      522.631      510.933        0.786        0.104      116.747        9.515        0.007      332.564        1.306      865.510
01/07/2014  09:54:00       80.494       58.462       14.328       38.820       32.710       35.648     1506.966     1069.924     1270.804        0.697        0.192       99.484       13.575        0.019      332.686        1.511      865.507
01/07/2014  09:55:00       79.615       62.029       11.564       36.172       31.919       31.432     1308.402     1018.846      987.999        0.682        0.166      100.926       15.202        0.023      332.736        1.592      865.483
01/07/2014  09:56:00      129.236       80.491       14.315       39.412       32.728       30.852     1553.335     1071.153      951.838        1.348        0.179      152.252       17.712        0.014      332.846        1.774      865.444
01/07/2014  09:57:00      141.528       97.060       20.973       53.418       33.307       36.153     2853.531     1109.378     1307.049        1.758        0.263      171.612       25.745        0.023      332.639        1.432      865.431
01/07/2014  09:58:00       78.994       67.725       33.435       31.808       27.306       28.516     1011.752      745.598      813.190        0.726        0.129      104.052       17.812        0.029      332.822        1.735      865.457
01/07/2014  09:59:00       52.188       53.482       29.004       36.063       30.167       28.583     1300.521      910.059      817.000        0.473        0.151       74.726       14.792        0.039      332.823        1.735      865.488
01/07/2014  10:00:00       73.985       71.958       30.663       22.933       15.893       19.536      525.905      252.573      381.648        0.638        0.058      103.207        9.612        0.009      332.614        1.392      865.503
01/07/2014  10:01:00      127.669       83.172       14.473       46.997       26.531       27.034     2208.742      703.900      730.857        1.353        0.182      152.371       19.641        0.017      332.876        1.824      865.489
01/07/2014  10:02:00      179.592       98.777       -1.325       59.326       47.720       41.219     3519.541     2277.188     1699.041        2.475        0.375      204.964       25.956        0.016      332.923        1.899      865.452
01/07/2014  10:03:00       47.161       99.847       95.202       69.217       55.787       45.947     4790.934     3112.187     2111.158        1.563        0.501      110.424       36.944        0.112      333.046        2.104      865.432
01/07/2014  10:04:00       -9.567       17.428       54.805       22.442       48.053       29.270      503.629     2309.062      856.727        0.353        0.183       19.882       25.990        1.709      333.476        2.818      865.439
01/07/2014  10:05:00      -12.887       16.160       29.164       19.695       24.414       25.909      387.900      596.058      671.290        0.147        0.083       20.669       12.783        0.383      333.518        2.885      865.461
01/07/2014  10:06:00       22.522       63.945       77.552       46.612       40.192       38.596     2172.703     1615.422     1489.654        0.794        0.264       67.795       29.219        0.186      333.275        2.485      865.458
01/07/2014  10:07:00      116.991       78.348       41.083       23.550       17.356       27.376      554.624      301.228      749.464        1.156        0.080      140.803       11.875        0.007      332.727        1.578      865.447
01/07/2014  10:08:00       73.403       95.640       61.804       51.741       36.754       35.386     2677.084     1350.867     1252.144        1.182        0.264      120.561       25.927        0.046      332.995        2.022      865.427
01/07/2014  10:09:00       87.280      101.857       65.705       47.119       38.032       44.275     2220.195     1446.444     1960.260        1.397        0.281      134.137       30.328        0.051      333.082        2.165      865.409
01/07/2014  10:10:00       34.283       48.931       52.724       35.936       45.908       35.979     1291.375     2107.585     1294.500        0.552        0.235       59.746       28.900        0.234      333.221        2.394      865.402
01/07/2014  10:11:00       -4.413       18.665       50.422       21.285       26.843       20.284      453.042      720.564      411.436        0.225        0.079       19.179       16.642        0.753      333.834        3.410      865.396
01/07/2014  10:12:00       55.082       37.780       42.188       43.519       34.651       35.756     1893.872     1200.700     1278.476        0.531        0.219       66.794       31.740        0.226      333.314        2.548      865.401
01/07/2014  10:13:00       82.236       70.064        1.423       39.109       21.055       20.154     1529.506      443.314      406.177        0.703        0.119      108.036       10.771        0.010      332.967        1.974      865.408
01/07/2014  10:14:00       82.848       89.222       -8.002       34.425       27.321       26.467     1185.081      746.441      700.499        0.876        0.132      121.756       22.414        0.034      333.042        2.099      865.420
01/07/2014  10:15:00       23.930       46.779       57.292       44.316       41.431       27.845     1963.902     1716.561      775.365        0.525        0.223       52.545       16.489        0.098      333.537        2.917      865.440
01/07/2014  10:16:00       60.806       69.380       43.428       37.555       27.437       28.251     1410.364      752.789      798.145        0.668        0.148       92.255       23.664        0.066      333.229        2.408      865.455
01/07/2014  10:17:00       23.561       50.635       70.308       37.840       28.494       26.917     1431.846      811.929      724.521        0.551        0.148       55.848       19.362        0.120      333.442        2.758      865.463
01/07/2014  10:18:00       60.534       29.160       55.848       36.127       29.104       25.564     1305.176      847.066      653.510        0.522        0.140       67.191       17.402        0.067      333.301        2.526      865.462
01/07/2014  10:19:00       22.509       87.370      102.480       45.039       48.700       27.158     2028.535     2371.686      737.542        1.189        0.257       90.223       29.710        0.108      333.410        2.706      865.447
01/07/2014  10:20:00      109.093       67.041       40.372       54.070       48.392       50.424     2923.618     2341.755     2542.579        1.292        0.390      128.046       24.008        0.035      333.434        2.746      865.442
01/07/2014  10:21:00       42.526       61.991       50.400       60.389       45.654       49.184     3646.823     2084.326     2419.057        0.817        0.408       75.175       41.679        0.307      333.806        3.362      865.457
01/07/2014  10:22:00       43.562       33.743       32.387       36.419       39.667       44.219     1326.317     1573.466     1955.335        0.447        0.243       55.102       35.006        0.404      333.502        2.859      865.458
01/07/2014  10:23:00       37.323       45.423       30.214       36.071       37.841       25.923     1301.119     1431.961      672.020        0.389        0.170       58.790       15.207        0.067      333.671        3.138      865.433
01/07/2014  10:24:00        7.862       66.452       73.360       43.582       53.484       42.824     1899.362     2860.544     1833.924        0.823        0.330       66.915       36.489        0.297      333.800        3.352      865.388
01/07/2014  10:25:00       55.534       68.685       65.998       58.314       54.074       38.101     3400.555     2924.040     1451.659        0.997        0.389       88.327       34.173        0.150      333.625        3.062      865.357
01/07/2014  10:26:00      104.339       78.990       45.852       27.030       23.616       25.196      730.606      557.726      634.832        1.058        0.096      130.867       13.651        0.011      333.304        2.530      865.342
01/07/2014  10:27:00       92.693       57.309       14.057       26.810       26.836       34.908      718.799      720.173     1218.577        0.737        0.133      108.978       21.761        0.040      333.248        2.439      865.328
01/07/2014  10:28:00       82.740       34.920       39.737       64.831       42.627       42.152     4203.102     1817.046     1776.779        0.872        0.390       89.807       36.892        0.169      333.568        2.968      865.308
01/07/2014  10:29:00      109.501       67.619        3.046       35.316       25.582       26.062     1247.252      654.419      679.245        0.958        0.129      128.696        7.105        0.003      333.307        2.536      865.296
01/07/2014  10:30:00       71.410       56.959       14.003       17.519       16.288       28.688      306.903      265.302      823.025        0.497        0.070       91.344       13.474        0.022      333.315        2.548      865.295
01/07/2014  10:31:00       24.689       46.227        8.229       29.949       30.020       21.495      896.953      901.198      462.041        0.254        0.113       52.408       15.003        0.082      333.773        3.308      865.291
01/07/2014  10:32:00       53.916       38.566       17.069       32.064       26.534       24.676     1028.128      704.061      608.896        0.351        0.117       66.289       18.962        0.082      333.791        3.338      865.298
01/07/2014  10:33:00       18.916       40.599        5.681       19.299       31.529       24.296      372.463      994.088      590.286        0.200        0.098       44.789       17.560        0.154      333.916        3.544      865.306
01/07/2014  10:34:00        8.585       19.250       21.309       21.510       19.806       21.801      462.697      392.282      475.287        0.111        0.067       21.077       15.198        0.520      334.208        4.030      865.312
01/07/2014  10:35:00      -26.257       35.999       -2.884       14.928       22.486       19.654      222.846      505.638      386.280        0.155        0.056       44.557       14.304        0.103      333.937        3.580      865.323
01/07/2014  10:36:00      -64.774       29.879      -13.404       12.963       10.585       10.340      168.030      112.047      106.907        0.283        0.019       71.333        5.372        0.006      333.673        3.144      865.336
01/07/2014  10:37:00      -98.610       10.899      -10.485        8.589       11.001        8.265       73.766      121.018       68.310        0.511        0.013       99.211        4.026        0.002      333.573        2.975      865.357
01/07/2014  10:38:00      -61.736       -5.588      -18.792       19.081       16.577        8.876      364.067      274.812       78.782        0.246        0.036       61.989        4.306        0.005      333.719        3.218      865.382
01/07/2014  10:39:00      -64.307      -20.186      -12.998       26.753       18.646       12.403      715.748      347.658      153.823        0.296        0.061       67.400       12.360        0.034      333.794        3.342      865.393
01/07/2014  10:40:00     -140.748       37.696      -21.198       31.388       20.219       14.847      985.191      408.800      220.423        1.165        0.081      145.708        8.006        0.003      333.785        3.326      865.400
01/07/2014  10:41:00      -38.075        7.537       -1.614       23.590        9.176       13.929      556.503       84.200      194.014        0.117        0.042       38.814       14.372        0.137      334.006        3.696      865.391
01/07/2014  10:42:00       -7.225       -8.072       -0.442       12.621       19.155       22.968      159.278      366.921      527.542        0.059        0.053       10.833       18.237        2.834      334.369        4.297      865.363
01/07/2014  10:43:00        2.179       17.132       49.015       26.561       52.022       31.916      705.504     2706.266     1018.631        0.356        0.222       17.270       36.559        4.481      334.845        5.085      865.343
01/07/2014  10:44:00        5.786       22.890       37.695       23.277       38.416       18.367      541.837     1475.827      337.362        0.217        0.118       23.610       18.854        0.638      334.788        4.992      865.335
01/07/2014  10:45:00      -50.247      -11.348        1.621       19.161       19.887       17.570      367.125      395.498      308.710        0.186        0.054       51.513       13.525        0.069      334.367        4.293      865.315
01/07/2014  10:46:00        6.368      -14.526       10.215       15.441       21.602       23.698      238.431      466.646      561.589        0.081        0.063       15.860       17.571        1.227      334.767        4.958      865.293
01/07/2014  10:47:00      -26.873        0.311       18.284       17.291       25.940       19.088      298.983      672.890      364.342        0.120        0.067       26.875       19.217        0.511      334.456        4.441      865.263
01/07/2014  10:48:00        0.140       -0.393       12.948       13.274       11.276       15.995      176.196      127.154      255.825        0.036        0.028        0.417        6.988      280.593      334.910        5.195      865.237
01/07/2014  10:49:00       11.473       42.806       58.218       24.776       36.603       28.520      613.835     1339.773      813.412        0.406        0.138       44.317       26.777        0.365      335.037        5.406      865.212
01/07/2014  10:50:00       50.692       14.335       43.120       40.411       43.875       34.321     1633.015     1925.041     1177.920        0.468        0.237       52.680       18.886        0.129      334.840        5.078      865.184
01/07/2014  10:51:00       43.432       53.524       31.556       40.697       31.242       31.491     1656.230      976.061      991.658        0.468        0.181       68.928       22.562        0.107      335.024        5.384      865.151
01/07/2014  10:52:00       27.941      -44.773        2.652       23.435       43.363       26.979      549.202     1880.343      727.853        0.297        0.158       52.776       24.718        0.219      334.882        5.148      865.127
01/07/2014  10:53:00       41.969      -46.343       -0.134       40.345       50.899       31.531     1627.718     2590.749      994.232        0.456        0.261       62.522       31.133        0.248      334.633        4.735      865.105
01/07/2014  10:54:00       52.293      -11.433       27.739       45.688       55.234       36.165     2087.418     3050.809     1307.922        0.504        0.322       53.528       37.896        0.501      334.901        5.180      865.093
01/07/2014  10:55:00       43.047       20.523       29.724       40.719       23.595       24.180     1658.017      556.724      584.682        0.298        0.140       47.689       21.191        0.197      334.886        5.155      865.099
01/07/2014  10:56:00       34.932        0.700       19.899       41.290       27.337       32.275     1704.867      747.305     1041.688        0.255        0.175       34.939       26.531        0.577      335.109        5.526      865.095
01/07/2014  10:57:00       23.019       85.390       74.368       49.395       46.762       36.132     2439.846     2186.650     1305.493        0.964        0.297       88.438       30.237        0.117      335.161        5.610      865.085
01/07/2014  10:58:00       59.618      102.059      101.606       46.886       47.545       29.050     2198.332     2260.539      843.906        1.480        0.265      118.196       25.525        0.047      334.918        5.208      865.071
01/07/2014  10:59:00       88.577       85.043       80.568       40.263       45.603       42.063     1621.096     2079.637     1769.282        1.352        0.274      122.793       37.391        0.093      334.867        5.124      865.050
01/07/2014  11:00:00       54.904      112.777      103.811       55.034       41.532       33.636     3028.760     1724.913     1131.375        1.620        0.294      125.432       26.455        0.044      334.844        5.084      865.031
01/07/2014  11:01:00        7.495       30.968       62.074       25.437       51.702       33.182      647.024     2673.089     1101.053        0.464        0.221       31.862       38.234        1.440      335.227        5.721      865.041
01/07/2014  11:02:00       41.441       47.234       35.588       25.393       24.010       14.308      644.783      576.487      204.719        0.332        0.071       62.836       12.125        0.037      334.966        5.287      865.039
01/07/2014  11:03:00       64.692       40.282       12.226       36.410       21.727       32.780     1325.661      472.073     1074.549        0.441        0.144       76.208       15.082        0.039      335.051        5.428      865.011
01/07/2014  11:04:00       36.923       85.616        0.563       44.765       57.873       39.029     2003.870     3349.306     1523.282        0.778        0.344       93.238       35.757        0.147      335.237        5.739      864.950
01/07/2014  11:05:00      123.032      100.143       -2.244       53.894       33.129       34.234     2904.594     1097.553     1171.977        1.517        0.259      158.636       13.314        0.007      335.095        5.500      864.901
01/07/2014  11:06:00        3.568       30.888       13.039       50.499       57.166       37.113     2550.189     3267.952     1377.410        0.416        0.360       31.094       20.831        0.449      335.527        6.220      864.889
01/07/2014  11:07:00       62.137       43.592       23.088       73.633       38.984       35.026     5421.813     1519.739     1226.831        0.723        0.408       75.903       27.075        0.127      335.070        5.461      864.894
01/07/2014  11:08:00       87.480       84.122       11.864       45.514       38.333       28.009     2071.559     1469.435      784.477        0.960        0.216      121.364       15.053        0.015      335.034        5.401      864.881
01/07/2014  11:09:00       36.128       72.901       72.986       65.133       67.147       67.377     4242.250     4508.685     4539.662        1.262        0.665       81.362       58.939        0.525      335.433        6.064      864.866
01/07/2014  11:10:00       44.560       82.440       93.868       67.761       64.830       54.757     4591.554     4202.931     2998.373        1.469        0.590       93.712       55.952        0.356      335.131        5.562      864.859
01/07/2014  11:11:00       29.651       -0.667       59.834       45.191       55.190       35.482     2042.213     3045.986     1258.976        0.540        0.317       29.658       32.114        1.172      335.508        6.188      864.834
01/07/2014  11:12:00       49.568       38.192       60.882       64.659       85.594       47.075     4180.738     7326.289     2216.090        1.067        0.686       62.575       48.150        0.592      335.355        5.933      864.777
01/07/2014  11:13:00       80.782       81.698       53.784       80.326       51.939       46.128     6452.192     2697.628     2127.830        1.368        0.564      114.892       37.721        0.108      335.286        5.820      864.712
01/07/2014  11:14:00       34.658       65.496       78.449       59.394       56.810       42.631     3527.644     3227.327     1817.388        1.011        0.429       74.101       33.166        0.200      335.637        6.404      864.670
01/07/2014  11:15:00       46.698       85.736       98.299       30.759       41.358       18.592      946.140     1710.443      345.666        1.110        0.150       97.628       20.506        0.044      335.164        5.616      864.639
01/07/2014  11:16:00       89.863       59.257       49.430       41.111       32.701       39.346     1690.081     1069.364     1548.073        0.917        0.215      107.642       26.604        0.061      335.012        5.364      864.620
01/07/2014  11:17:00       42.678       61.427       28.012       34.007       30.659       24.593     1156.471      939.984      604.817        0.454        0.135       74.798       24.918        0.111      335.059        5.442      864.568
01/07/2014  11:18:00       23.476       23.307       22.696       27.145       29.425       23.850      736.872      865.815      568.824        0.189        0.109       33.081       17.966        0.295      335.505        6.183      864.535
01/07/2014  11:19:00       73.838       77.146       56.372       48.555       36.577       37.171     2357.623     1337.883     1381.685        0.983        0.254      106.787       13.179        0.015      335.413        6.030      864.513
01/07/2014  11:20:00        1.639       39.551       43.356       27.707       34.175       27.391      767.705     1167.901      750.268        0.307        0.134       39.584       14.555        0.135      335.841        6.742      864.497
01/07/2014  11:21:00       18.522       34.354       36.875       48.676       43.992       21.362     2369.317     1935.270      456.337        0.382        0.238       39.029       17.392        0.199      335.902        6.846      864.473
01/07/2014  11:22:00       73.717       55.227       22.412       60.714       39.377       38.908     3686.145     1550.551     1513.865        0.787        0.338       92.110       35.488        0.148      335.487        6.154      864.422
01/07/2014  11:23:00       97.945       88.847       30.454       34.262       36.024       31.758     1173.917     1297.739     1008.574        1.095        0.174      132.238       23.479        0.032      335.201        5.678      864.377
01/07/2014  11:24:00       79.429       83.304       38.367       36.390       24.114       26.895     1324.220      581.483      723.317        0.867        0.131      115.102       16.205        0.020      335.345        5.918      864.361
01/07/2014  11:25:00       16.143       -9.932       46.580       37.808       67.147       44.113     1429.444     4508.664     1945.926        0.521        0.394       18.953       48.409        6.524      335.582        6.313      864.360
01/07/2014  11:26:00       47.584      -25.886       19.215       44.104       59.384       39.306     1945.170     3526.514     1544.970        0.516        0.351       54.170       30.368        0.314      335.694        6.498      864.351
01/07/2014  11:27:00       54.677      -34.491       19.810       46.409       71.992       44.997     2153.803     5182.789     2024.743        0.696        0.468       64.647       37.136        0.330      335.705        6.516      864.326
01/07/2014  11:28:00       94.360      103.550       85.618       75.271       45.785       44.111     5665.760     2096.273     1945.813        1.833        0.485      140.094       40.869        0.085      335.525        6.217      864.275
01/07/2014  11:29:00       56.002       33.793       50.309       68.718       72.190       32.942     4722.151     5211.397     1085.169        0.891        0.551       65.408       29.039        0.197      335.563        6.282      864.247
01/07/2014  11:30:00       56.858      -64.634        6.853       42.679       37.368       26.801     1821.465     1396.371      718.302        0.570        0.197       86.084       24.792        0.083      335.609        6.358      864.221
01/07/2014  11:31:00       11.839        2.616       21.776       37.107       45.751       34.298     1376.964     2093.128     1176.363        0.263        0.232       12.125       26.477        4.768      336.095        7.168      864.229
01/07/2014  11:32:00        1.575       16.208       47.537       21.269       44.766       26.622      452.379     2004.016      708.710        0.284        0.158       16.285       27.595        2.871      336.187        7.320      864.224
01/07/2014  11:33:00       35.998      -66.663       24.710       43.058       72.066       42.993     1854.010     5193.506     1848.439        0.762        0.445       75.762       32.690        0.186      335.810        6.692      864.214
01/07/2014  11:34:00       58.710      -80.696        7.849       51.819       72.599       47.573     2685.174     5270.594     2263.237        1.012        0.511       99.794       42.970        0.185      335.602        6.345      864.184
01/07/2014  11:35:00       26.765        7.372       57.889       51.754       55.874       36.047     2678.500     3121.893     1299.394        0.561        0.355       27.762       35.915        1.674      336.006        7.018      864.167
01/07/2014  11:36:00       44.406      -19.607       17.100       61.584       44.174       30.838     3792.544     1951.350      951.011        0.467        0.335       48.542       32.003        0.435      335.586        6.319      864.160
01/07/2014  11:37:00       33.147       26.400       19.227       28.474       23.879       24.858      810.777      570.229      617.940        0.208        0.100       42.375       11.061        0.068      335.645        6.416      864.154
01/07/2014  11:38:00       22.297       -1.827       -9.476       25.744       33.009       19.550      662.753     1089.561      382.215        0.136        0.107       22.372       15.772        0.497      335.707        6.520      864.106
01/07/2014  11:39:00       41.448       65.146       57.193       48.931       52.152       49.515     2394.235     2719.799     2451.732        0.840        0.378       77.214       31.464        0.166      335.947        6.920      864.040
01/07/2014  11:40:00       22.696       69.314       92.738       45.804       60.084       30.636     2098.003     3610.116      938.562        1.028        0.332       72.935       33.361        0.209      335.908        6.853      863.990
01/07/2014  11:41:00       30.427     -108.452       -6.095       73.965       71.942       48.580     5470.853     5175.708     2359.980        1.286        0.650      112.639       43.159        0.147      335.837        6.737      864.018
01/07/2014  11:42:00       75.358     -125.449      -11.763       44.217       51.780       24.555     1955.129     2681.166      602.949        1.340        0.262      146.343       16.407        0.013      335.614        6.365      864.047
01/07/2014  11:43:00       48.306      -23.022       17.342       36.023       37.597       33.908     1297.652     1413.556     1149.758        0.351        0.193       53.512       30.842        0.332      335.896        6.837      864.030
01/07/2014  11:44:00       41.619      -31.520       31.863       45.101       60.468       49.557     2034.061     3656.353     2455.886        0.594        0.407       52.207       46.074        0.779      335.994        6.998      864.004
01/07/2014  11:45:00      -69.054      -95.253        5.424       44.956       57.652       34.550     2021.047     3323.736     1193.683        1.020        0.327      117.650       32.664        0.077      335.807        6.687      863.972
01/07/2014  11:46:00      -14.271       22.537       44.527       23.634       30.703       22.620      558.582      942.693      511.675        0.235        0.101       26.675       20.487        0.590      336.399        7.675      863.959
01/07/2014  11:47:00      -38.467      -11.520        1.485       36.684       28.631       24.015     1345.710      819.735      576.699        0.218        0.137       40.155       23.288        0.336      335.955        6.933      863.960
01/07/2014  11:48:00      -34.619      -42.773        5.115       56.994       27.384       23.289     3248.366      749.879      542.373        0.380        0.227       55.027       18.077        0.108      335.935        6.900      863.962
01/07/2014  11:49:00        7.449       -5.125        8.896       31.174       12.380       16.239      971.822      153.276      263.690        0.077        0.069        9.042        4.068        0.202      336.474        7.799      863.918
01/07/2014  11:50:00        1.200       22.887       52.171       24.982       30.346       35.870      624.081      920.884     1286.632        0.304        0.142       22.918       25.555        1.243      336.618        8.042      863.880
01/07/2014  11:51:00       22.034       25.468       51.107       34.985       32.347       29.327     1223.953     1046.310      860.097        0.344        0.157       33.677       15.729        0.218      336.225        7.385      863.866
01/07/2014  11:52:00      -13.872       53.193      -20.615       33.372       27.042       24.853     1113.677      731.281      617.692        0.295        0.123       54.972       15.374        0.078      335.836        6.735      863.876
01/07/2014  11:53:00      -61.040       18.571      -18.370       23.378       20.366       13.029      546.533      414.793      169.753        0.277        0.057       63.802        9.792        0.024      335.847        6.754      863.890
01/07/2014  11:54:00      -37.744       14.530       -0.856       30.610       29.762       16.201      936.957      885.789      262.485        0.186        0.104       40.444       15.566        0.148      336.091        7.159      863.873
01/07/2014  11:55:00        8.152       48.233       -7.283       18.043       26.040       18.442      325.542      678.072      340.093        0.189        0.067       48.917       14.403        0.087      336.226        7.386      863.856
01/07/2014  11:56:00       38.550       40.116        6.848       25.547       31.078       30.313      652.663      965.861      918.868        0.284        0.127       55.637       14.507        0.068      336.124        7.216      863.824
01/07/2014  11:57:00       26.861       -2.831        8.436       28.282       35.531       18.746      799.869     1262.486      351.426        0.161        0.121       27.009       17.921        0.440      336.408        7.689      863.807
01/07/2014  11:58:00        1.419      -36.248       27.445       37.499       61.421       35.919     1406.149     3772.560     1290.140        0.427        0.323       36.276       43.763        1.455      336.747        8.256      863.794
01/07/2014  11:59:00       45.767       23.313       43.389       41.119       68.219       44.152     1690.807     4653.780     1949.419        0.641        0.415       51.363       44.428        0.748      336.443        7.748      863.774
01/07/2014  12:00:00       46.555       47.551       53.583       48.879       35.587       34.669     2389.147     1266.421     1201.955        0.608        0.243       66.547       27.860        0.175      336.565        7.952      863.760
01/07/2014  12:01:00      107.314       72.381       24.301       30.608       22.028       36.511      936.878      485.226     1333.087        1.005        0.138      129.443        9.780        0.006      336.191        7.325      863.719
01/07/2014  12:02:00       25.113       58.286       19.931       37.815       43.862       30.517     1429.947     1923.894      931.305        0.435        0.214       63.466       20.267        0.102      336.643        8.081      863.689
01/07/2014  12:03:00       18.160       -1.736       31.617       48.723       51.132       31.993     2373.925     2614.481     1023.537        0.367        0.301       18.243       29.001        2.527      336.710        8.192      863.684
01/07/2014  12:04:00       12.179       -2.898       31.695       22.160       47.992       24.876      491.055     2303.250      618.797        0.229        0.171       12.519       18.572        2.201      336.505        7.851      863.686
01/07/2014  12:05:00        8.416       -9.415        5.366       34.167       29.019       27.002     1167.352      842.084      729.118        0.146        0.137       12.629        5.653        0.200      336.581        7.979      863.649
01/07/2014  12:06:00       71.423     -103.502       -3.370       37.894       47.551       32.851     1435.945     2261.062     1079.180        1.030        0.239      125.753       30.654        0.059      336.251        7.427      863.602
01/07/2014  12:07:00       32.998       17.120       65.198       45.522       91.215       44.715     2072.281     8320.247     1999.444        0.901        0.620       37.175       56.411        2.303      336.576        7.971      863.549
01/07/2014  12:08:00       -1.197       -4.902       50.933       25.864       58.591       27.465      668.957     3432.935      754.324        0.374        0.243        5.046       35.259       48.817      336.936        8.572      863.542
01/07/2014  12:09:00        8.214       28.912       47.699       29.365       55.669       52.899      862.296     3099.025     2798.339        0.497        0.338       30.056       42.112        1.963      336.814        8.369      863.529
01/07/2014  12:10:00       75.943       86.051       68.807       43.200       33.476       26.595     1866.253     1120.635      707.278        1.080        0.185      114.770       14.844        0.017      336.341        7.578      863.506
01/07/2014  12:11:00       93.001       56.420       21.300       36.819       39.944       30.714     1355.647     1595.519      943.373        0.809        0.195      108.777       22.776        0.044      336.338        7.571      863.475
01/07/2014  12:12:00       73.365       60.753       36.638       48.169       30.104       43.028     2320.279      906.256     1851.415        0.775        0.254       95.254       38.181        0.161      336.463        7.782      863.427
01/07/2014  12:13:00       62.434       61.573       65.478       52.010       41.945       37.255     2705.015     1759.363     1387.945        0.891        0.293       87.688       35.511        0.164      336.534        7.902      863.396
01/07/2014  12:14:00       20.019       47.702       57.871       44.564       39.527       26.650     1985.984     1562.399      710.224        0.514        0.213       51.732       19.635        0.144      336.880        8.480      863.370
01/07/2014  12:15:00       24.445       24.967       13.442       55.072       31.880       19.763     3032.965     1016.347      390.589        0.292        0.222       34.942       12.688        0.132      336.977        8.641      863.361
01/07/2014  12:16:00       48.438      -53.506        0.189       29.676       47.632       25.369      880.673     2268.792      643.609        0.450        0.190       72.174       16.056        0.049      336.557        7.939      863.340
01/07/2014  12:17:00        3.999      -29.366        7.804       25.832       39.984       22.785      667.284     1598.757      519.142        0.186        0.139       29.637       19.427        0.430      336.738        8.241      863.331
01/07/2014  12:18:00       49.334       44.908       59.636       40.531       45.644       39.647     1642.794     2083.397     1571.893        0.665        0.265       66.713       39.790        0.356      336.689        8.160      863.304
01/07/2014  12:19:00       64.244       54.267       52.349       35.476       35.561       28.626     1258.574     1264.576      819.421        0.658        0.167       84.097       20.174        0.058      336.722        8.214      863.263
01/07/2014  12:20:00       71.882       86.793       67.398       28.503       29.287       29.501      812.434      857.709      870.290        0.989        0.127      112.694       18.590        0.027      336.576        7.970      863.230
01/07/2014  12:21:00       39.102       35.965       51.026       34.070       50.098       22.113     1160.754     2509.843      488.993        0.479        0.208       53.127        7.394        0.019      336.800        8.345      863.187
01/07/2014  12:22:00       19.639       25.395       41.635       36.601       46.412       34.913     1339.646     2154.118     1218.941        0.374        0.236       32.103       25.353        0.624      337.035        8.737      863.169
01/07/2014  12:23:00       29.320       19.272       55.550       42.030       46.236       34.830     1766.493     2137.759     1213.139        0.472        0.256       35.087       28.649        0.667      337.177        8.975      863.153
01/07/2014  12:24:00       49.205       66.677       79.190       50.689       53.108       47.391     2569.357     2820.446     2245.898        1.039        0.382       82.868       37.895        0.209      336.837        8.406      863.141
01/07/2014  12:25:00      120.116       73.098       53.432       71.692       48.177       70.338     5139.743     2320.983     4947.497        1.752        0.620      140.610       46.858        0.111      336.534        7.899      863.130
01/07/2014  12:26:00       98.783       66.326       61.695       49.983       53.368       42.718     2498.304     2848.145     1824.810        1.257        0.359      118.984       34.883        0.086      336.773        8.300      863.122
01/07/2014  12:27:00       26.375       93.875      100.354       61.604       45.714       41.228     3795.038     2089.732     1699.743        1.358        0.379       97.510       38.360        0.155      337.053        8.766      863.108
01/07/2014  12:28:00      102.952       85.613       75.730       66.748       47.464       50.656     4455.360     2252.824     2566.041        1.647        0.464      133.898       42.024        0.098      336.794        8.335      863.073
01/07/2014  12:29:00       18.358       91.552      100.168       43.010       50.179       39.873     1849.862     2517.951     1589.879        1.235        0.298       93.374       34.387        0.136      336.797        8.339      863.054
01/07/2014  12:30:00       67.465      101.652       86.558       51.365       37.175       32.541     2638.346     1381.970     1058.908        1.373        0.254      122.002       24.160        0.039      336.656        8.106      863.035
01/07/2014  12:31:00      -19.145      -19.894       25.424       27.983       45.763       33.763      783.024     2094.256     1139.918        0.271        0.201       27.610       28.275        1.049      337.127        8.892      863.036
01/07/2014  12:32:00       -3.005       -2.626       42.873       22.476       51.844       22.671      505.155     2687.834      513.991        0.278        0.185        3.990       28.918       52.517      337.232        9.067      863.050
01/07/2014  12:33:00       38.277      -66.422        0.940       47.669       74.143       42.625     2272.329     5497.120     1816.881        0.773        0.479       76.661       46.681        0.371      337.023        8.718      863.031
01/07/2014  12:34:00       58.277      -69.973       -4.017       48.869       44.811       43.828     2388.212     2008.069     1920.870        0.731        0.316       91.062       32.517        0.128      336.766        8.286      862.980
01/07/2014  12:35:00      102.251     -109.676      -16.634       44.075       42.149       27.646     1942.577     1776.547      764.274        1.362        0.224      149.947       24.868        0.028      336.645        8.086      862.923
01/07/2014  12:36:00       37.655       12.915       31.765       37.151       47.454       35.011     1380.216     2251.848     1225.776        0.372        0.243       39.808       36.156        0.825      336.899        8.511      862.891
01/07/2014  12:37:00       42.151       54.806       71.790       32.530       39.405       28.289     1058.202     1552.777      800.249        0.667        0.171       69.140       22.836        0.109      336.895        8.504      862.878
01/07/2014  12:38:00       17.437       36.306       31.279       50.522       33.164       28.347     2552.484     1099.881      803.558        0.353        0.223       40.276       22.205        0.304      336.926        8.557      862.862
01/07/2014  12:39:00       36.801      -76.806       -4.532       54.421       38.622       27.091     2961.695     1491.678      733.931        0.623        0.259       85.168       28.072        0.109      337.135        8.904      862.844
01/07/2014  12:40:00       48.432     -125.710       -8.868       47.807       72.481       41.929     2285.472     5253.440     1758.011        1.376        0.465      134.717       32.696        0.059      337.074        8.803      862.842
01/07/2014  12:41:00       82.589      -92.295      -13.977       47.476       60.295       36.900     2253.989     3635.459     1361.601        1.139        0.363      123.852       38.541        0.097      337.134        8.904      862.848
01/07/2014  12:42:00        2.512       -0.226       49.895       34.319       98.689       58.858     1177.790     9739.579     3464.306        0.844        0.719        2.522       71.821      810.949      337.234        9.070      862.846
01/07/2014  12:43:00       84.464       76.781       63.907       58.282       58.912       46.418     3396.784     3470.623     2154.676        1.307        0.451      114.146       34.247        0.090      337.046        8.756      862.821
01/07/2014  12:44:00       21.244       26.924       62.099       47.176       52.259       43.378     2225.554     2731.030     1881.646        0.593        0.342       34.296       35.494        1.071      337.374        9.304      862.800
01/07/2014  12:45:00       46.273       31.753       49.163       45.943       57.689       40.425     2110.744     3327.970     1634.202        0.632        0.354       56.120       38.208        0.464      337.290        9.166      862.806
01/07/2014  12:46:00       90.683      -21.924       43.034       97.967       69.834       44.125     9597.449     4876.775     1947.010        1.349        0.821       93.296       53.642        0.331      337.292        9.166      862.779
01/07/2014  12:47:00       35.879       24.581       29.143       58.356       33.855       28.922     3405.377     1146.145      836.458        0.406        0.269       43.491       24.160        0.309      337.189        8.994      862.777
01/07/2014  12:48:00       53.029       69.926       63.401       35.204       52.507       40.623     1239.310     2756.954     1650.222        0.868        0.282       87.760       38.272        0.190      337.237        9.075      862.764
01/07/2014  12:49:00       84.404       76.820       80.806       45.635       45.222       38.331     2082.564     2044.985     1469.235        1.258        0.280      114.129       35.513        0.097      336.969        8.628      862.729
01/07/2014  12:50:00       74.485       57.603       40.383       40.640       45.988       41.051     1651.644     2114.909     1685.147        0.797        0.273       94.160       33.344        0.125      337.030        8.727      862.728
01/07/2014  12:51:00       67.230       88.007       77.339       63.100       62.591       57.930     3981.657     3917.650     3355.838        1.475        0.563      110.748       54.142        0.239      337.129        8.895      862.707
01/07/2014  12:52:00      173.154      102.278       52.631       52.796       43.608       42.105     2787.386     1901.676     1772.855        2.484        0.323      201.105       35.221        0.031      336.956        8.604      862.626
01/07/2014  12:53:00       49.106      105.453       99.840       59.315       51.963       47.780     3518.215     2700.157     2282.914        1.600        0.425      116.326       40.540        0.121      337.388        9.330      862.570
01/07/2014  12:54:00      -19.367       26.276       55.278       29.236       48.561       36.232      854.768     2358.145     1312.791        0.432        0.226       32.643       31.488        0.931      337.615        9.711      862.623
01/07/2014  12:55:00        1.501      -14.105        2.575       51.745       30.465       21.988     2677.503      928.101      483.460        0.215        0.204       14.185       13.701        0.933      337.454        9.439      862.690
01/07/2014  12:56:00       23.420        6.025       36.322       38.794       67.906       39.407     1505.007     4611.279     1552.934        0.479        0.383       24.183       46.288        3.664      337.530        9.567      862.703
01/07/2014  12:57:00       49.823       97.077      125.394       76.058       75.729       43.925     5784.757     5734.839     1929.376        2.054        0.672      109.116       47.193        0.187      337.453        9.436      862.608
01/07/2014  12:58:00      124.573      118.160      135.765       89.303       93.451       66.808     7975.110     8733.090     4463.255        3.454        1.059      171.698       67.206        0.153      337.281        9.147      862.516
01/07/2014  12:59:00       47.953       92.533       95.210       62.645       57.299       50.024     3924.450     3283.181     2502.399        1.482        0.486      104.220       40.188        0.149      337.407        9.360      862.523
01/07/2014  13:00:00       73.504       91.867       79.474       62.686       37.145       43.457     3929.517     1379.726     1888.474        1.368        0.360      117.653       43.221        0.135      337.263        9.119      862.526
01/07/2014  13:01:00      154.953      108.001       30.985       36.334       35.108       30.247     1320.170     1232.580      914.884        2.005        0.173      188.877       15.195        0.006      337.165        8.953      862.490
01/07/2014  13:02:00      167.977       83.695       42.964       66.683       48.744       40.668     4446.584     2375.994     1653.910        2.277        0.424      187.673       20.805        0.012      337.424        9.387      862.444
01/07/2014  13:03:00       93.162       39.707       58.917       89.306       98.577       48.805     7975.532     9717.443     2381.972        1.690        1.004      101.271       43.702        0.186      337.615        9.707      862.432
01/07/2014  13:04:00       81.661       11.047       71.201       85.179      135.111       66.258     7255.399    18255.000     4390.066        2.088        1.495       82.405       90.642        1.210      337.539        9.579      862.393
01/07/2014  13:05:00       53.346       45.456       32.990       62.156       46.010       44.419     3863.417     2116.893     1973.046        0.698        0.398       70.086       31.952        0.208      337.537        9.579      862.370
01/07/2014  13:06:00      -25.947      -20.239       35.292       81.301       57.148       38.166     6609.911     3265.927     1456.648        0.683        0.567       32.906       44.603        1.837      337.867       10.132      862.411
01/07/2014  13:07:00     -202.550      -52.243       -7.227       42.112       46.116       27.468     1773.399     2126.714      754.503        2.423        0.233      209.179       17.763        0.007      337.430        9.397      862.461
01/07/2014  13:08:00     -104.584     -114.582      -10.964       63.456       64.830       42.560     4026.718     4202.878     1811.368        1.711        0.502      155.136       30.814        0.039      337.497        9.509      862.480
01/07/2014  13:09:00      -30.991      -72.033        1.562       50.743       77.575       47.031     2574.876     6017.915     2211.932        0.848        0.540       78.417       32.091        0.167      337.646        9.761      862.421
01/07/2014  13:10:00       26.437       32.747       72.488       52.447       52.797       44.181     2750.732     2787.502     1951.974        0.726        0.375       42.086       22.421        0.284      337.785        9.994      862.342
01/07/2014  13:11:00       24.277       45.905       73.428       48.525       56.222       49.401     2354.680     3160.958     2440.427        0.802        0.398       51.929       44.675        0.740      337.708        9.865      862.280
01/07/2014  13:12:00       75.439      119.069      103.700       84.705       58.559       39.148     7174.897     3429.145     1532.544        2.138        0.607      140.956       41.898        0.088      337.621        9.716      862.184
01/07/2014  13:13:00       78.786       42.515       80.782       86.674       69.373       44.887     7512.422     4812.654     2014.820        1.444        0.717       89.525       39.019        0.190      337.866       10.129      862.129
01/07/2014  13:14:00       46.413      -72.575       16.384       66.674       99.100       50.902     4445.477     9820.727     2590.964        1.227        0.843       86.147       67.760        0.619      337.964       10.292      862.154
01/07/2014  13:15:00      100.150        9.613       61.186       62.336       84.859       59.564     3885.737     7201.106     3547.895        1.425        0.732      100.610       65.222        0.420      337.818       10.049      862.111
01/07/2014  13:16:00       60.050      -48.811        4.550       39.688       34.606       19.773     1575.168     1197.594      390.964        0.459        0.158       77.386       13.079        0.029      337.770        9.969      862.072
01/07/2014  13:17:00       -2.916      -28.922       22.578       13.467       21.030       16.258      181.358      442.275      264.318        0.112        0.044       29.069        9.230        0.101      338.334       10.914      862.084
01/07/2014  13:18:00     -122.352      -57.016       -7.525       73.945       32.865       24.119     5467.909     1080.102      581.749        1.270        0.356      134.985       22.519        0.028      337.997       10.349      862.151
01/07/2014  13:19:00     -210.869     -100.018        1.226       70.239       43.585       37.156     4933.579     1899.662     1380.534        3.134        0.411      233.386       28.856        0.015      337.819       10.047      862.224
01/07/2014  13:20:00     -130.954      -39.824        0.021       56.953       40.286       27.627     3243.637     1623.001      763.260        1.218        0.281      136.876       30.838        0.051      337.964       10.294      862.249
01/07/2014  13:21:00      -65.290      -48.683       -8.691       45.148       58.579       24.926     2038.328     3431.479      621.329        0.640        0.305       81.443       18.482        0.051      338.012       10.374      862.198
01/07/2014  13:22:00       33.247     -125.559       24.553       70.723       99.008       46.831     5001.791     9802.582     2193.108        1.723        0.850      129.886       58.708        0.204      337.931       10.238      862.076
01/07/2014  13:23:00      101.908       56.510       94.335       79.939       89.646       62.446     6390.243     8036.478     3899.522        2.040        0.916      116.527       68.252        0.343      338.087       10.499      861.969
01/07/2014  13:24:00       40.661       59.990       86.129       58.533       51.153       41.727     3426.105     2616.629     1741.108        1.023        0.389       72.471       38.645        0.284      338.243       10.762      861.897
01/07/2014  13:25:00       99.695       60.143       24.103       83.248       60.542       46.014     6930.270     3665.345     2117.317        1.342        0.636      116.432       24.167        0.043      338.167       10.634      861.897
01/07/2014  13:26:00       38.937       37.399       10.584       61.828       40.832       38.439     3822.686     1667.262     1477.553        0.500        0.348       53.989       20.257        0.141      338.282       10.828      861.965
01/07/2014  13:27:00      -25.734       -1.554        2.698       38.702       21.863       15.627     1497.866      478.009      244.191        0.145        0.111       25.781       16.750        0.422      338.381       10.994      862.046
01/07/2014  13:28:00      -59.724       -7.788       -3.816       60.032       34.357       21.893     3603.901     1180.402      479.299        0.445        0.263       60.230       29.383        0.238      338.516       11.220      862.104
01/07/2014  13:29:00       20.761      -12.505       11.020       25.038       39.870       17.894      626.895     1589.619      320.197        0.162        0.127       24.236        5.733        0.056      338.475       11.152      862.105
01/07/2014  13:30:00      111.946       69.262        9.143       46.923       42.272       32.809     2201.806     1786.922     1076.409        1.124        0.253      131.640       26.055        0.039      338.274       10.815      862.020
01/07/2014  13:31:00       83.109      109.408        0.242       67.458       70.206       45.515     4550.612     4928.871     2071.599        1.521        0.578      137.394       42.422        0.095      338.181       10.658      861.926
01/07/2014  13:32:00      108.990      121.073        0.848      108.414       85.383       58.519    11753.694     7290.246     3424.524        2.450        1.123      162.903       48.413        0.088      338.101       10.521      861.868
01/07/2014  13:33:00      111.695       62.652        1.266      103.680       53.440       38.011    10749.439     2855.797     1444.849        1.572        0.753      128.067       15.655        0.015      338.167       10.632      861.904
01/07/2014  13:34:00       90.484       56.195        8.514       36.066       29.739       31.957     1300.751      884.418     1021.281        0.731        0.160      106.514       19.520        0.034      338.127       10.568      861.974
01/07/2014  13:35:00       44.116       37.746       11.647       46.145       31.798       29.046     2129.367     1011.084      843.670        0.374        0.199       58.060       16.651        0.082      338.236       10.751      861.996
01/07/2014  13:36:00       47.841       87.660        3.589       43.061       47.846       35.143     1854.220     2289.252     1235.023        0.768        0.269       99.865       33.390        0.112      338.182       10.660      862.015
01/07/2014  13:37:00       -7.804      147.147      -15.391       43.662       34.631       20.886     1906.367     1199.297      436.209        1.275        0.177      147.354       18.924        0.016      338.181       10.659      861.991
01/07/2014  13:38:00      -52.890      130.734      -14.742       37.979       49.544       33.399     1442.410     2454.591     1115.460        1.256        0.251      141.027       25.282        0.032      338.335       10.917      861.928
01/07/2014  13:39:00      -30.279      169.534      -25.833       26.385       59.987       26.029      696.163     3598.480      677.530        1.765        0.249      172.216       27.882        0.026      338.278       10.819      861.873
01/07/2014  13:40:00       16.637       83.281       -2.372       76.319       39.910       24.537     5824.622     1592.838      602.053        0.762        0.401       84.926       18.080        0.045      338.490       11.176      861.838
01/07/2014  13:41:00      119.170       69.275       11.879       56.304       46.431       36.431     3170.126     2155.843     1327.182        1.290        0.333      137.842       31.668        0.053      338.413       11.047      861.824
01/07/2014  13:42:00       94.831       52.215       21.959       51.104       33.008       40.692     2611.655     1089.518     1655.805        0.878        0.268      108.256       32.190        0.088      338.462       11.130      861.813
01/07/2014  13:43:00      129.271      147.402       88.107       63.162       53.194       60.020     3989.382     2829.651     3602.411        2.831        0.521      196.057       34.129        0.030      338.496       11.182      861.741
01/07/2014  13:44:00       16.264       74.948      103.998       38.842       75.998       43.557     1508.701     5775.761     1897.172        1.294        0.459       76.693       50.093        0.427      338.575       11.320      861.734
01/07/2014  13:45:00      122.463     -130.886       -6.385       50.490       56.094       30.258     2549.270     3146.562      915.569        1.939        0.331      179.244       29.205        0.027      338.491       11.176      861.743
01/07/2014  13:46:00       52.364      -84.466       -1.252       48.282       56.076       28.281     2331.136     3144.481      799.817        0.808        0.314       99.380       27.550        0.077      338.713       11.552      861.743
01/07/2014  13:47:00       41.093       -0.813       29.842       41.908       33.444       22.717     1756.289     1118.507      516.044        0.298        0.170       41.101       18.757        0.208      338.772       11.652      861.757
01/07/2014  13:48:00       89.000       44.963       45.654       57.431       61.604       50.606     3298.371     3795.012     2561.011        1.084        0.483       99.713       41.255        0.171      338.649       11.444      861.777
01/07/2014  13:49:00      134.575       78.212       31.139       27.580       26.515       34.936      760.647      703.060     1220.490        1.394        0.134      155.652       22.798        0.021      338.485       11.169      861.762
01/07/2014  13:50:00       98.497       80.747       33.574       45.220       21.675       28.562     2044.881      469.825      815.809        1.034        0.167      127.364       14.115        0.012      338.505       11.202      861.759
01/07/2014  13:51:00       32.393       33.491        7.290       45.903       31.018       33.609     2107.092      962.126     1129.568        0.321        0.210       46.594       34.083        0.535      338.710       11.546      861.796
01/07/2014  13:52:00      -14.187       21.621        5.492       34.053       27.111       26.837     1159.611      735.029      720.241        0.166        0.131       25.860       27.664        1.144      338.774       11.654      861.807
01/07/2014  13:53:00       73.867       59.159       50.193       58.944       39.848       43.750     3474.377     1587.862     1914.056        0.922        0.349       94.637       38.237        0.163      338.815       11.723      861.776
01/07/2014  13:54:00      113.072       47.463       11.090       58.903       40.751       30.174     3469.512     1660.634      910.461        1.060        0.302      122.630       16.498        0.018      338.707       11.541      861.774
01/07/2014  13:55:00       94.450       67.359       53.218       65.669       47.103       47.673     4312.477     2218.657     2272.744        1.255        0.440      116.009       35.031        0.091      338.854       11.788      861.805
01/07/2014  13:56:00       17.642      106.164      118.969       55.546       48.682       35.319     3085.379     2369.961     1247.433        1.622        0.335      107.620       29.801        0.077      338.943       11.938      861.782
01/07/2014  13:57:00       55.240        4.454       60.464       73.750       70.085       43.827     5439.082     4911.909     1920.836        0.950        0.614       55.419       48.743        0.774      339.122       12.239      861.778
01/07/2014  13:58:00       83.131      -64.864       27.786       71.649      103.873       52.347     5133.600    10789.675     2740.197        1.527        0.933      105.442       40.313        0.146      339.049       12.115      861.777
01/07/2014  13:59:00       43.902       14.362       64.464       51.261       70.598       41.194     2627.687     4984.025     1696.954        0.780        0.465       46.192       39.725        0.740      339.096       12.195      861.794
01/07/2014  14:00:00       44.334       45.226       55.836       47.470       41.096       38.425     2253.426     1688.860     1476.475        0.627        0.271       63.331       35.215        0.309      338.949       11.948      861.827
01/07/2014  14:01:00       47.680       60.353       60.687       54.466       44.003       39.920     2966.572     1936.255     1593.610        0.805        0.325       76.914       24.312        0.100      339.047       12.115      861.849
01/07/2014  14:02:00       62.080       46.094       37.603       72.460       42.541       36.119     5250.435     1809.702     1304.609        0.788        0.418       77.321       32.639        0.178      339.115       12.227      861.852
01/07/2014  14:03:00      186.517       84.450       60.787       89.695       70.708       67.252     8045.205     4999.593     4522.791        3.159        0.878      204.744       51.588        0.063      338.835       11.753      861.797
01/07/2014  14:04:00      116.429       79.086       57.971       97.194       68.460       58.935     9446.590     4686.817     3473.303        2.039        0.880      140.749       58.203        0.171      338.952       11.951      861.756
01/07/2014  14:05:00       57.752        7.616       -0.852       76.347       52.676       35.271     5828.918     2774.801     1244.076        0.662        0.492       58.252       28.357        0.237      339.066       12.145      861.808
01/07/2014  14:06:00      -83.234      -49.045        5.540       42.252       61.492       27.902     1785.213     3781.288      778.496        0.785        0.317       96.609       24.460        0.064      339.164       12.309      861.861
01/07/2014  14:07:00      -70.875      -61.855       -6.469       89.447       63.051       29.131     8000.766     3975.372      848.643        1.086        0.641       94.071       36.725        0.152      339.139       12.268      861.865
01/07/2014  14:08:00       -2.743       68.580       96.098       25.443       53.452       35.080      647.366     2857.095     1230.606        0.934        0.237       68.635       35.489        0.267      339.438       12.771      861.798
01/07/2014  14:09:00       17.152       72.144       85.699       50.438       59.181       41.880     2543.995     3502.384     1753.946        1.032        0.390       74.155       35.285        0.226      339.415       12.733      861.749
01/07/2014  14:10:00      121.314       53.821       58.408      104.310       53.365       51.287    10880.475     2847.778     2630.384        1.869        0.818      132.717       55.936        0.178      339.153       12.289      861.755
01/07/2014  14:11:00      201.270       95.274       26.064       65.803       49.597       46.961     4330.058     2459.895     2205.299        2.963        0.450      222.681       40.664        0.033      339.066       12.142      861.699
01/07/2014  14:12:00      200.372       79.537       44.727      117.374       78.791       54.920    13776.563     6207.944     3016.222        3.573        1.150      215.581       58.967        0.075      339.201       12.369      861.607
01/07/2014  14:13:00      242.365      139.329       16.415       78.015       85.192       62.142     6086.323     7257.714     3861.680        4.781        0.860      279.559       39.153        0.020      339.161       12.301      861.579
01/07/2014  14:14:00      131.566       99.686        9.556       73.542       56.714       44.105     5408.446     3216.504     1945.269        1.895        0.529      165.066       40.123        0.059      339.233       12.425      861.610
01/07/2014  14:15:00       66.890      109.286      -11.764       82.985       47.707       25.740     6886.528     2275.942      662.569        1.319        0.491      128.131       32.894        0.066      339.198       12.366      861.630
01/07/2014  14:16:00       57.227      101.901      -12.585       47.785       55.705       38.002     2283.381     3103.065     1444.183        1.032        0.342      116.871       25.396        0.047      339.299       12.537      861.613
01/07/2014  14:17:00      136.948      110.442       11.272       60.417       49.490       40.420     3650.220     2449.274     1633.806        1.941        0.387      175.933       31.817        0.033      339.389       12.688      861.577
01/07/2014  14:18:00      178.067      119.065       29.702       62.215       48.306       51.928     3870.739     2333.428     2696.536        2.783        0.445      214.206       33.001        0.024      339.579       13.006      861.539
01/07/2014  14:19:00      157.886       57.555       40.143       87.777       50.730       54.025     7704.767     2573.518     2918.722        2.152        0.660      168.050       46.248        0.076      339.537       12.937      861.539
01/07/2014  14:20:00       36.656       26.718       12.158       59.419       49.158       34.255     3530.588     2416.555     1173.389        0.466        0.356       45.360       14.462        0.102      339.733       13.269      861.576
01/07/2014  14:21:00       86.655      -17.600       11.084       57.361       49.337       44.593     3290.308     2434.096     1988.533        0.783        0.386       88.424       11.637        0.017      339.692       13.198      861.605
01/07/2014  14:22:00        6.604       78.208      -14.648       34.093       31.166       23.872     1162.303      971.336      569.879        0.454        0.135       78.486       18.538        0.056      339.603       13.050      861.609
01/07/2014  14:23:00       39.014       77.724       -3.912       45.610       34.186       21.113     2080.286     1168.716      445.769        0.564        0.185       86.966       26.718        0.094      339.683       13.185      861.594
01/07/2014  14:24:00       97.088       78.937       10.759       42.812       38.842       30.159     1832.869     1508.718      909.569        1.001        0.213      125.128       23.542        0.035      339.752       13.301      861.568
01/07/2014  14:25:00       73.122       38.566       39.550       48.470       36.781       28.822     2349.315     1352.810      830.714        0.646        0.227       82.669       24.616        0.089      339.756       13.307      861.562
01/07/2014  14:26:00       36.283       -8.143       -6.733       33.211       23.068       23.723     1102.952      532.143      562.771        0.181        0.110       37.186       15.521        0.174      339.845       13.457      861.563
01/07/2014  14:27:00      -51.105       15.609      -14.017       25.716       16.754       12.742      661.307      280.712      162.349        0.208        0.055       53.436       10.837        0.041      340.237       14.119      861.575
01/07/2014  14:28:00     -180.181      -51.908       -4.767       75.676       66.317       30.135     5726.921     4397.894      908.116        2.311        0.552      187.509       25.201        0.018      339.985       13.691      861.605
01/07/2014  14:29:00     -195.229      -87.943        3.793       79.989       48.104       40.473     6398.314     2314.004     1638.103        2.810        0.518      214.122       41.109        0.037      339.723       13.251      861.649
01/07/2014  14:30:00      -55.186      -82.063       19.556      115.257       65.188       43.785    13284.078     4249.532     1917.097        1.480        0.973       98.893       45.551        0.212      339.831       13.433      861.694
01/07/2014  14:31:00      -29.329     -160.403       10.533       64.230       47.605       39.968     4125.547     2266.242     1597.463        1.734        0.399      163.062       28.398        0.030      339.666       13.155      861.708
01/07/2014  14:32:00        5.351       64.176       76.191       36.723       83.249       93.721     1348.580     6930.359     8783.712        1.350        0.853       64.399       81.811        1.614      339.780       13.349      861.621
01/07/2014  14:33:00       14.403       41.763      104.383       57.181      113.368       65.383     3269.617    12852.415     4274.917        1.662        1.020       44.177       73.740        2.786      339.834       13.438      861.541
01/07/2014  14:34:00        7.472       32.192       73.834       38.326       71.696       45.332     1468.916     5140.362     2054.960        0.760        0.433       33.047       46.697        1.997      339.836       13.441      861.555
01/07/2014  14:35:00       16.654      -23.401       12.772       56.016       48.283       27.464     3137.759     2331.239      754.278        0.360        0.311       28.722       20.582        0.514      339.869       13.498      861.607
01/07/2014  14:36:00     -159.280      -29.900      -17.507       69.485       65.667       29.946     4828.177     4312.140      896.735        1.830        0.502      162.062       28.902        0.032      340.017       13.746      861.674
01/07/2014  14:37:00     -183.532       36.147      -10.119      103.706       57.457       36.480    10754.967     3301.290     1330.797        2.524        0.769      187.058       46.604        0.062      340.038       13.782      861.684
01/07/2014  14:38:00     -303.427       39.165      -10.080      249.851      136.242       75.446    62425.486    18561.891     5692.170        9.018        4.334      305.944       88.477        0.084      339.972       13.670      861.631
01/07/2014  14:39:00     -347.387       46.912      -31.211      147.809      134.589       65.028    21847.507    18114.146     4228.689        8.401        2.210      350.541       72.983        0.043      339.915       13.571      861.553
01/07/2014  14:40:00     -303.443     -100.828      -30.101      139.599      102.018       51.008    19487.929    10407.737     2601.767        6.782        1.625      319.756       41.256        0.017      339.801       13.380      861.589
01/07/2014  14:41:00      -86.524      -90.801        6.511       92.993       75.269       34.328     8647.684     5665.357     1178.390        1.563        0.775      125.424       36.114        0.083      339.879       13.515      861.657
01/07/2014  14:42:00     -179.790      -86.562       -5.523       71.855       70.977       41.340     5163.164     5037.672     1708.987        2.588        0.595      199.543       34.229        0.029      339.970       13.666      861.640
01/07/2014  14:43:00     -347.030     -211.845        9.627      223.904      170.388       97.810    50132.780    29031.920     9566.880       12.705        4.437      406.581      111.084        0.075      339.967       13.660      861.719
01/07/2014  14:44:00     -264.330     -194.580      -10.970      252.362      161.336      101.219    63686.351    26029.244    10245.223       10.389        4.998      328.225      123.825        0.142      340.085       13.858      861.723
01/07/2014  14:45:00     -206.178      -80.389        3.601      133.922       96.231       60.563    17935.197     9260.327     3667.918        3.992        1.543      221.295       63.037        0.081      340.181       14.021      861.698
01/07/2014  14:46:00     -270.877     -200.611       -3.528      165.977      103.541       69.093    27548.441    10720.826     4773.841        7.833        2.152      337.074       66.253        0.039      340.134       13.942      861.723
01/07/2014  14:47:00     -364.982     -161.584       -8.356      215.070      184.095       92.165    46255.315    33890.928     8494.459       12.400        4.432      399.151       92.645        0.054      340.170       14.002      861.660
01/07/2014  14:48:00     -295.916     -111.184        5.558      160.416      109.736       80.305    25733.345    12042.058     6448.895        7.208        2.211      316.114       85.781        0.074      340.139       13.950      861.668
01/07/2014  14:49:00     -253.831     -155.363        0.942      133.624       97.373       68.131    17855.403     9481.520     4641.791        6.027        1.599      297.603       68.228        0.053      340.122       13.922      861.682
01/07/2014  14:50:00     -447.238     -250.927      -10.384      228.707      189.008       91.385    52306.788    35723.981     8351.132       17.972        4.819      512.821      114.368        0.050      340.132       13.937      861.652
01/07/2014  14:51:00     -283.007      -82.766       -0.012      185.995      109.091       73.125    34594.070    11900.826     5347.241        6.938        2.592      294.861       70.768        0.058      340.177       14.014      861.680
01/07/2014  14:52:00     -354.484     -254.377       -5.569      211.715      148.924       97.755    44823.192    22178.270     9555.986       13.346        3.828      436.310      112.710        0.067      340.093       13.871      861.667
01/07/2014  14:53:00     -408.455     -118.382      -11.537      297.081      183.601       95.585    88256.847    33709.157     9136.494       15.602        6.555      425.265      142.122        0.112      340.106       13.895      861.682
01/07/2014  14:54:00     -245.491     -174.196       12.817      153.005      170.271       93.080    23410.546    28992.291     8663.880        7.591        3.053      301.015       79.191        0.069      340.148       13.965      861.716
01/07/2014  14:55:00     -535.705     -205.234      -14.083      190.013      156.186       78.624    36105.041    24394.039     6181.737       19.798        3.334      573.673       85.508        0.022      340.111       13.903      861.710
01/07/2014  14:56:00     -422.331     -194.318      -16.363      241.011      163.272       81.878    58086.363    26657.841     6704.000       15.390        4.572      464.891      109.083        0.055      340.143       13.956      861.739
01/07/2014  14:57:00     -432.713     -192.056      -20.603      231.410      154.149       82.968    53550.683    23761.911     6883.611       15.436        4.210      473.420       90.885        0.037      340.035       13.775      861.755
01/07/2014  14:58:00     -260.242      -11.705        5.157      206.911      142.147       67.431    42812.069    20205.857     4546.948        6.772        3.378      260.505       90.201        0.120      340.113       13.907      861.761
01/07/2014  14:59:00     -337.044     -100.401      -19.293      189.564      116.306       79.101    35934.547    13527.114     6257.047        8.988        2.786      351.680       88.009        0.063      340.088       13.865      861.764
01/07/2014  15:00:00     -303.402     -244.348        3.696      210.639      146.111       98.650    44368.703    21348.456     9731.758       11.360        3.772      389.562      108.848        0.078      340.095       13.875      861.756
01/07/2014  15:01:00     -428.092     -199.196      -15.981      253.088      160.630       83.168    64053.525    25801.876     6916.934       15.997        4.839      472.167       94.621        0.040      340.032       13.770      861.756
01/07/2014  15:02:00     -277.611     -166.902       -9.747      183.953      106.506       62.332    33838.776    11343.552     3885.252        7.704        2.453      323.920       70.549        0.047      340.029       13.763      861.757
01/07/2014  15:03:00     -276.585     -128.871      -17.543      136.325      135.220       62.011    18584.614    18284.422     3845.353        6.706        2.036      305.134       53.297        0.031      340.077       13.845      861.774
01/07/2014  15:04:00     -350.632     -275.513      -16.915      216.404      140.827       96.642    46830.750    19832.270     9339.667       13.756        3.800      445.926      102.673        0.053      340.019       13.748      861.759
01/07/2014  15:05:00     -394.118     -267.088      -30.629      185.634      168.960       91.268    34460.050    28547.646     8329.779       14.946        3.567      476.094       91.955        0.037      340.036       13.774      861.765
01/07/2014  15:06:00     -326.899     -115.825        6.885      195.270      177.748       92.312    38130.351    31594.278     8521.414        9.927        3.912      346.812      105.389        0.092      340.065       13.824      861.785
01/07/2014  15:07:00     -335.586     -139.264       14.571      207.110      153.547       99.385    42894.749    23576.740     9877.406       10.427        3.817      363.336      113.287        0.097      340.061       13.819      861.792
01/07/2014  15:08:00     -381.807     -227.143      -25.820      199.339      139.747       71.336    39736.178    19529.338     5088.780       13.118        3.218      444.264       81.044        0.033      340.034       13.773      861.796
01/07/2014  15:09:00     -350.883     -214.182       -6.097      179.126      139.428       83.782    32086.016    19440.292     7019.458       11.378        2.927      411.087       94.120        0.052      340.033       13.770      861.807
01/07/2014  15:10:00     -554.065     -240.773      -26.935      192.624      145.410       84.400    37103.913    21144.062     7123.384       21.552        3.269      604.119       83.811        0.019      339.970       13.664      861.792
01/07/2014  15:11:00     -495.393     -175.608      -30.483      212.518      162.512       84.503    45163.932    26410.246     7140.766       17.794        3.936      525.598       95.538        0.033      339.984       13.688      861.794
01/07/2014  15:12:00     -279.916     -152.625       -3.022      183.597      153.121       89.638    33707.699    23446.137     8034.980        8.341        3.259      318.822       84.300        0.070      339.986       13.693      861.793
01/07/2014  15:13:00     -351.790     -100.966      -10.825      240.473      122.373       84.642    57827.187    14975.187     7164.193       10.700        3.998      365.992      111.168        0.092      339.979       13.680      861.793
01/07/2014  15:14:00     -451.478     -272.677      -29.762      188.351      180.685       96.795    35475.995    32647.145     9369.269       17.827        3.875      527.433       93.176        0.031      339.961       13.649      861.798
01/07/2014  15:15:00     -401.253      -89.211      -10.792      182.672      139.602       76.017    33369.080    19488.665     5778.572       11.385        2.932      411.050       83.186        0.041      339.977       13.677      861.781
01/07/2014  15:16:00     -238.979      -89.710        7.452      143.291      138.040       75.118    20532.265    19055.171     5642.698        5.521        2.262      255.262       83.362        0.107      340.009       13.732      861.785
01/07/2014  15:17:00     -414.702     -212.205      -11.029      223.576      146.409       87.044    49986.332    21435.457     7576.664       14.805        3.950      465.842      102.948        0.049      339.943       13.619      861.803
01/07/2014  15:18:00     -281.920      -80.283       -8.883      159.670      115.006       64.748    25494.398    13226.385     4192.283        6.445        2.146      293.129       76.762        0.069      339.988       13.696      861.827
01/07/2014  15:19:00     -239.445     -224.114       -1.933      140.485      113.091       76.599    19736.105    12789.515     5867.471        7.297        1.920      327.965       71.445        0.047      339.960       13.649      861.857
01/07/2014  15:20:00     -265.283     -114.583       -5.726      185.556      109.302       69.950    34431.086    11946.901     4893.010        6.740        2.564      288.971       73.759        0.065      339.952       13.635      861.861
01/07/2014  15:21:00     -355.173     -218.935      -14.910      142.383      176.725       80.194    20272.886    31231.740     6431.112       11.611        2.897      417.229       71.030        0.029      339.915       13.571      861.888
01/07/2014  15:22:00     -289.016     -150.552       -8.609      178.833      150.990       82.584    31981.110    22798.100     6820.177        8.392        3.080      325.878       89.642        0.076      339.891       13.531      861.919
01/07/2014  15:23:00     -413.385     -275.363       -5.089      171.495      137.189       92.123    29410.368    18820.868     8486.634       15.172        2.836      496.701       96.111        0.037      339.866       13.489      861.913
01/07/2014  15:24:00     -645.867     -204.251      -40.491      244.214      173.575       87.780    59640.344    30128.371     7705.380       27.897        4.874      677.394       96.590        0.020      339.860       13.479      861.927
01/07/2014  15:25:00     -486.873     -169.171      -16.613      242.256      210.400       97.899    58687.871    44268.070     9584.225       18.922        5.627      515.426      102.584        0.040      339.909       13.560      861.923
01/07/2014  15:26:00     -303.724     -213.553       19.339      220.202      184.778       86.599    48489.084    34142.985     7499.471       11.416        4.507      371.285      110.435        0.088      339.865       13.487      861.953
01/07/2014  15:27:00     -340.979     -174.717       -5.911      206.449      124.647       83.095    42621.242    15536.941     6904.820       10.593        3.253      383.136       96.512        0.063      339.877       13.507      861.957
01/07/2014  15:28:00     -282.268     -137.226        7.857      142.319      124.314       67.287    20254.692    15453.916     4527.485        6.940        2.012      313.857       69.600        0.049      339.886       13.522      861.991
01/07/2014  15:29:00     -289.789     -106.132        2.162      129.909      142.896       64.780    16876.327    20419.353     4196.469        6.836        2.075      308.612       62.708        0.041      339.890       13.529      862.014
01/07/2014  15:30:00     -231.901     -125.420       -0.628      152.422      115.256       71.810    23232.548    13284.032     5156.737        5.558        2.084      263.644       72.575        0.076      339.887       13.525      862.034
01/07/2014  15:31:00     -261.192     -141.055        3.160      203.616      147.736       79.684    41459.561    21825.928     6349.581        7.887        3.482      296.846       91.592        0.095      339.805       13.387      862.025
01/07/2014  15:32:00     -266.359     -131.715        3.445      159.283      127.391       60.815    25371.030    16228.503     3698.417        6.680        2.265      297.146       73.551        0.061      339.801       13.380      862.058
01/07/2014  15:33:00     -283.704     -137.643      -13.785      122.266      117.174       72.132    14949.057    13729.747     5202.975        6.675        1.694      315.331       71.214        0.051      339.804       13.386      862.067
01/07/2014  15:34:00     -336.475     -105.463       -8.992      120.858      147.189       64.745    14606.631    21664.593     4191.919        8.243        2.023      352.615       63.831        0.033      339.783       13.351      862.094
01/07/2014  15:35:00     -289.081     -229.619       -2.927      164.915      120.936       85.518    27197.049    14625.576     7313.303        9.271        2.457      369.179       93.665        0.064      339.754       13.301      862.117
01/07/2014  15:36:00     -100.911      -72.353       22.806      128.597       91.850       66.386    16537.228     8436.384     4407.102        2.265        1.469      124.169       65.068        0.275      339.794       13.371      862.135
01/07/2014  15:37:00      -89.507      -74.496        9.599       86.070       87.617       61.709     7408.094     7676.773     3808.060        1.627        0.945      116.452       62.091        0.284      339.776       13.341      862.136
01/07/2014  15:38:00     -159.093     -153.917       -7.987      125.865      107.517       61.505    15841.948    11559.870     3782.879        4.012        1.559      221.362       68.557        0.096      339.767       13.324      862.137
01/07/2014  15:39:00     -238.095     -148.222       -5.288      129.986      102.083       58.192    16896.450    10420.930     3386.339        5.469        1.535      280.462       59.776        0.045      339.735       13.270      862.147
01/07/2014  15:40:00     -313.259      -63.924       -5.970      173.785      127.764       74.815    30201.128    16323.749     5597.334        7.718        2.606      319.714       90.469        0.080      339.715       13.235      862.127
01/07/2014  15:41:00     -334.877      -99.840      -16.743      118.385      117.766       57.981    14015.007    13868.722     3361.833        7.681        1.562      349.444       61.275        0.031      339.729       13.260      862.120
01/07/2014  15:42:00     -355.170      -87.004      -14.216      141.509      106.282       74.652    20024.810    11295.957     5572.983        8.540        1.845      365.671       71.001        0.038      339.714       13.236      862.105
01/07/2014  15:43:00     -270.909      -55.614       -4.818      120.169      117.562       62.263    14440.596    13820.927     3876.649        5.432        1.607      276.558       67.126        0.059      339.750       13.295      862.098
01/07/2014  15:44:00     -295.361     -113.903        1.869      214.546      148.408       70.456    46030.086    22024.884     4963.992        8.660        3.651      316.562       88.666        0.078      339.739       13.275      862.085
01/07/2014  15:45:00     -314.970     -117.052       -6.625      194.290      124.931       74.980    37748.485    15607.635     5622.041        8.595        2.949      336.016       87.830        0.068      339.710       13.227      862.084
01/07/2014  15:46:00     -404.365     -240.018      -27.526      182.215      175.093       78.137    33202.268    30657.554     6105.333       14.591        3.498      470.233       80.684        0.029      339.681       13.178      862.093
01/07/2014  15:47:00     -481.812     -108.222       -8.016      150.167      128.143       74.097    22550.244    16420.588     5490.315       14.418        2.223      493.817       72.022        0.021      339.697       13.205      862.085
01/07/2014  15:48:00     -460.442     -132.852      -22.337      205.912      175.656       91.289    42399.928    30855.014     8333.596       15.586        4.079      479.225       96.799        0.041      339.670       13.158      862.117
01/07/2014  15:49:00     -393.951     -173.606      -19.393      237.683      167.616       94.838    56493.080    28094.992     8994.253       13.963        4.679      430.507      106.710        0.061      339.650       13.126      862.112
01/07/2014  15:50:00     -187.897     -102.456       15.881      161.925      122.362       69.807    26219.653    14972.465     4872.990        4.605        2.303      214.015       93.153        0.189      339.681       13.177      862.148
01/07/2014  15:51:00     -242.766     -119.510      -20.809      123.398      121.582       67.489    15226.945    14782.063     4554.721        5.410        1.728      270.588       59.724        0.049      339.696       13.203      862.156
01/07/2014  15:52:00     -241.848     -116.271       -0.345      167.423      124.727       66.475    28030.606    15556.826     4418.871        6.000        2.400      268.346       92.435        0.119      339.640       13.109      862.174
01/07/2014  15:53:00     -371.987      -68.733      -24.353      134.041      139.527       71.573    17967.036    19467.754     5122.718        9.312        2.128      378.283       74.872        0.039      339.619       13.072      862.158
01/07/2014  15:54:00     -275.715     -125.831       -6.084      162.434      126.708       71.059    26384.788    16054.968     5049.355        6.968        2.374      303.072       69.429        0.052      339.588       13.022      862.189
01/07/2014  15:55:00     -296.586     -195.700       -6.255      172.124      139.828       79.716    29626.690    19551.906     6354.594        9.091        2.777      355.333       76.694        0.047      339.572       12.995      862.162
01/07/2014  15:56:00     -330.431     -104.473       -3.551      155.549      165.323       89.608    24195.492    27331.734     8029.558        8.982        2.978      346.553       84.187        0.059      339.601       13.044      862.178
01/07/2014  15:57:00     -257.345      -92.660       16.945      191.264      137.356       74.046    36582.025    18866.550     5482.767        6.801        3.047      273.518       78.501        0.082      339.606       13.052      862.176
01/07/2014  15:58:00     -353.738      -69.022      -11.211      205.900      139.171       85.140    42394.827    19368.600     7248.866        9.950        3.451      360.409      100.804        0.078      339.557       12.969      862.170
01/07/2014  15:59:00     -267.655     -261.902       -4.084      202.565      154.327       97.414    41032.656    23816.686     9489.524       10.728        3.717      374.475      108.074        0.083      339.541       12.941      862.222
01/07/2014  16:00:00     -488.091     -154.797      -39.385      195.060      223.540       94.637    38048.217    49970.339     8956.116       18.034        4.849      512.050      102.712        0.040      339.511       12.890      862.180
01/07/2014  16:01:00     -453.750     -285.195       -8.750      211.768      182.831       88.930    44845.666    33427.162     7908.615       18.673        4.309      535.934      103.219        0.037      339.499       12.868      862.221
01/07/2014  16:02:00     -406.364     -267.806       -8.236      213.592      212.506      112.537    45621.595    45158.628    12664.551       17.016        5.172      486.674      124.183        0.065      339.501       12.873      862.237
01/07/2014  16:03:00     -307.056      -97.868       -9.990      181.147      157.671       88.268    32814.141    24860.079     7791.223        8.470        3.273      322.275       93.109        0.083      339.525       12.914      862.248
01/07/2014  16:04:00     -263.849     -113.045        0.283      188.182      106.869       72.452    35412.319    11420.954     5249.290        6.723        2.604      287.046       75.191        0.069      339.507       12.883      862.261
01/07/2014  16:05:00     -286.600      -86.658        0.478      225.931      163.528       88.562    51044.614    26741.519     7843.183        8.763        4.281      299.415      114.519        0.146      339.481       12.841      862.285
01/07/2014  16:06:00     -364.388     -198.949      -11.085      217.818      177.919      100.406    47444.602    31655.285    10081.389       13.082        4.459      415.162       93.386        0.051      339.478       12.835      862.318
01/07/2014  16:07:00     -395.093      -56.105      -10.455      280.693      161.688       91.971    78788.382    26143.061     8458.685       13.635        5.670      399.056       91.694        0.053      339.465       12.814      862.322
01/07/2014  16:08:00     -441.052     -258.080       -3.661      231.069      217.271      105.662    53392.660    47206.593    11164.558       18.644        5.588      511.011      101.116        0.039      339.399       12.703      862.369
01/07/2014  16:09:00     -419.245     -139.677      -19.605      219.030      146.717       89.630    47974.075    21525.972     8033.492       13.658        3.877      441.901       96.617        0.048      339.397       12.700      862.356
01/07/2014  16:10:00     -450.170     -136.655       -7.779      214.861      165.735       90.421    46165.206    27468.141     8175.880       15.158        4.090      470.454      106.614        0.051      339.378       12.667      862.359
01/07/2014  16:11:00     -459.049     -331.763      -18.085      256.178      183.817      118.207    65626.988    33788.724    13973.000       21.724        5.669      566.385      128.359        0.051      339.357       12.632      862.397
01/07/2014  16:12:00     -499.916     -252.100      -28.993      301.705      160.423      103.234    91026.016    25735.488    10657.253       22.084        6.371      559.885      134.257        0.058      339.348       12.617      862.390
01/07/2014  16:13:00     -489.795     -159.541      -31.151      186.633      163.876       80.587    34831.724    26855.301     6494.258       16.724        3.409      515.123       93.517        0.033      339.332       12.589      862.330
01/07/2014  16:14:00     -387.368     -125.531       -5.746      191.450      178.583       85.618    36653.066    31891.870     7330.401       12.085        3.794      407.200       88.262        0.047      339.330       12.585      862.320
01/07/2014  16:15:00     -315.727     -190.370       -7.133      194.740      152.817       95.289    37923.840    23353.151     9079.943       10.315        3.518      368.680      114.792        0.097      339.322       12.571      862.377
01/07/2014  16:16:00     -534.486     -251.075        7.552      355.661      202.052      128.424   126494.759    40824.989    16492.711       26.626        9.191      590.520      161.583        0.075      339.311       12.553      862.354
01/07/2014  16:17:00     -387.547     -250.748      -13.516      212.654      148.916      108.054    45221.863    22176.023    11675.668       14.615        3.954      461.593      107.544        0.054      339.299       12.534      862.360
01/07/2014  16:18:00     -386.108     -200.560      -18.221      232.622      165.270      100.770    54113.115    27314.081    10154.616       14.059        4.579      435.090      111.911        0.066      339.279       12.501      862.309
01/07/2014  16:19:00     -407.671     -280.736      -15.552      268.033      187.450      104.990    71841.831    35137.342    11022.930       18.161        5.900      494.984      137.183        0.077      339.274       12.492      862.286
01/07/2014  16:20:00     -313.544     -138.196       -5.613      147.706      173.024       78.984    21817.098    29937.365     6238.404        8.771        2.900      342.649       80.013        0.055      339.263       12.473      862.285
01/07/2014  16:21:00     -373.131     -112.821       -4.280      171.430      123.269       78.146    29388.121    15195.353     6106.780       10.132        2.535      389.815       80.761        0.043      339.251       12.452      862.281
01/07/2014  16:22:00     -415.772     -189.884      -17.929      182.380      171.105       90.617    33262.383    29276.838     8211.428       13.999        3.538      457.080      100.240        0.048      339.226       12.412      862.298
01/07/2014  16:23:00     -378.424     -163.821      -28.667      242.595      156.448       92.237    58852.326    24475.854     8507.705       13.133        4.592      412.361       99.585        0.058      339.219       12.400      862.297
01/07/2014  16:24:00     -403.695     -331.012      -11.186      249.609      172.042      112.937    62304.769    29598.382    12754.667       18.864        5.233      522.052      121.442        0.054      339.213       12.390      862.303
01/07/2014  16:25:00     -405.103     -150.251      -14.447      222.919      163.160      104.540    49692.811    26621.345    10928.633       13.705        4.362      432.070      111.134        0.066      339.209       12.385      862.295
01/07/2014  16:26:00     -358.312     -244.878       13.284      227.150      204.532      107.136    51597.020    41833.299    11478.134       14.670        5.245      433.996      117.168        0.073      339.208       12.382      862.273
01/07/2014  16:27:00     -425.746     -215.187      -14.404      176.055      128.536       85.880    30995.362    16521.630     7375.449       14.132        2.745      477.038       87.161        0.033      339.194       12.358      862.267
01/07/2014  16:28:00     -309.855     -192.387        9.001      157.242      160.925       81.015    24725.104    25896.974     6563.489        9.514        2.859      364.723       74.050        0.041      339.180       12.333      862.283
01/07/2014  16:29:00     -316.404     -199.185       -7.457      144.954      132.945       64.605    21011.544    17674.408     4173.806        9.134        2.143      373.880       72.556        0.038      339.169       12.317      862.276
01/07/2014  16:30:00     -220.975     -153.064       10.525      177.407      138.137       75.013    31473.348    19081.791     5626.980        6.427        2.809      268.809       85.551        0.101      339.139       12.265      862.269
01/07/2014  16:31:00     -307.810     -253.391       -8.131      191.830      171.955       80.570    36798.847    29568.523     6491.585       11.593        3.643      398.691       87.083        0.048      339.136       12.261      862.223
01/07/2014  16:32:00     -251.809     -142.830      -12.014      163.910      155.080       83.028    26866.416    24049.946     6893.572        7.087        2.890      289.496       90.100        0.097      339.117       12.228      862.207
01/07/2014  16:33:00     -328.066     -225.630       12.695      172.733      159.230       87.687    29836.754    25354.225     7689.096       11.078        3.144      398.166       96.158        0.058      339.105       12.208      862.211
01/07/2014  16:34:00     -410.792     -147.123      -30.134      153.765      170.688       82.362    23643.607    29134.232     6783.504       12.542        2.978      436.343       73.794        0.029      339.086       12.174      862.189
01/07/2014  16:35:00     -353.079     -187.164       -9.193      184.773      165.675       70.059    34141.170    27448.258     4908.283       11.313        3.325      399.619       71.583        0.032      339.072       12.152      862.230
01/07/2014  16:36:00     -269.597     -212.526       -2.827      202.149      162.417       93.237    40864.141    26379.190     8693.223        9.688        3.797      343.292       98.630        0.083      339.051       12.116      862.262
01/07/2014  16:37:00     -375.862     -214.648       -7.675      196.404      164.248       90.388    38574.366    26977.499     8169.943       13.055        3.686      432.835       94.111        0.047      339.045       12.106      862.290
01/07/2014  16:38:00     -308.831     -148.316        8.872      177.037      130.137       76.543    31342.273    16935.723     5858.791        8.579        2.707      342.599       83.512        0.059      339.031       12.083      862.295
01/07/2014  16:39:00     -328.170      -80.153      -16.063      136.549       96.376       51.387    18645.503     9288.397     2640.628        7.247        1.529      337.817       48.278        0.020      339.014       12.054      862.273
01/07/2014  16:40:00     -260.053     -112.479      -19.168       95.238       84.903       53.529     9070.218     7208.503     2865.330        4.989        0.957      283.336       50.514        0.032      338.979       11.997      862.300
01/07/2014  16:41:00     -247.198      -80.717       -6.245      130.884      110.173       60.975    17130.718    12138.073     3717.944        5.032        1.649      260.042       69.469        0.071      338.966       11.975      862.300
01/07/2014  16:42:00     -232.333      -90.445       -4.959      138.842      111.287       59.963    19277.138    12384.890     3595.609        4.871        1.763      249.317       62.757        0.063      338.970       11.982      862.334
01/07/2014  16:43:00     -152.715      -24.604       11.165      131.198      118.960       69.316    17212.884    14151.563     4804.712        3.010        1.808      154.684       72.141        0.218      338.941       11.935      862.348
01/07/2014  16:44:00     -168.090      -88.590       -0.161      112.576      113.657       64.263    12673.276    12917.909     4129.724        3.291        1.486      190.007       60.472        0.101      338.934       11.921      862.344
01/07/2014  16:45:00     -359.918     -127.517      -12.601      134.030      108.573       62.089    17964.145    11788.000     3854.992        8.978        1.680      381.840       60.088        0.025      338.921       11.899      862.353
01/07/2014  16:46:00     -373.880     -114.438       -1.691      194.051      193.714       69.187    37655.983    37525.210     4786.801       11.641        3.998      391.002       86.032        0.048      338.915       11.887      862.351
01/07/2014  16:47:00     -445.917     -223.340      -18.311      228.357      178.211      105.713    52146.832    31759.189    11175.175       17.205        4.754      498.721      111.944        0.050      338.982       12.000      862.366
01/07/2014  16:48:00     -343.906     -124.137      -16.846      192.487      135.618       72.347    37051.349    18392.112     5234.129        9.731        3.034      365.625       92.414        0.064      338.965       11.973      862.344
01/07/2014  16:49:00     -298.757      -33.838      -12.924      125.424      115.302       59.494    15731.076    13294.481     3539.505        6.156        1.628      300.667       64.174        0.046      338.892       11.849      862.360
01/07/2014  16:50:00     -350.625      -30.907       -6.382      128.593      105.140       59.318    16536.034    11054.372     3518.636        7.752        1.555      351.985       61.917        0.031      338.888       11.844      862.372
01/07/2014  16:51:00     -273.774      -61.877      -16.704      125.217       91.165       55.780    15679.232     8311.139     3111.399        5.308        1.355      280.679       59.735        0.045      338.864       11.802      862.395
01/07/2014  16:52:00     -285.385      -25.972      -14.486      119.009      125.390       54.381    14163.153    15722.616     2957.311        5.758        1.642      286.565       53.897        0.035      338.825       11.736      862.387
01/07/2014  16:53:00     -292.103      -28.813       -7.425      117.992      124.272       64.091    13922.115    15443.553     4107.698        5.984        1.674      293.521       50.032        0.029      338.803       11.700      862.362
01/07/2014  16:54:00     -281.262      -73.716      -10.450      138.869      101.379       58.330    19284.559    10277.627     3402.389        5.880        1.648      290.762       59.936        0.042      338.798       11.690      862.386
01/07/2014  16:55:00     -405.146      -27.108      -17.427      131.392      118.106       70.574    17263.902    13949.109     4980.631       10.068        1.810      406.052       70.774        0.030      338.821       11.730      862.363
01/07/2014  16:56:00     -267.867      -55.444       -4.559      108.922      109.093       54.689    11864.058    11901.216     2990.925        5.080        1.338      273.545       51.554        0.036      338.775       11.654      862.334
01/07/2014  16:57:00     -420.520      -94.170      -11.705      161.460      161.498       73.075    26069.312    26081.476     5339.959       12.166        2.875      430.935       53.156        0.015      338.770       11.645      862.311
01/07/2014  16:58:00     -428.541     -142.569        2.574      212.059      161.462       85.521    44968.951    26069.888     7313.837       14.115        3.918      451.634       93.831        0.043      338.786       11.670      862.314
01/07/2014  16:59:00     -363.820      -62.696       -1.553      145.253      103.037       69.687    21098.405    10616.530     4856.228        8.643        1.829      369.183       69.271        0.035      338.753       11.616      862.280
01/07/2014  17:00:00     -396.645      -43.077      -18.029      148.512       93.323       60.169    22055.738     8709.150     3620.319        9.694        1.719      398.977       71.927        0.033      338.732       11.580      862.281
01/07/2014  17:01:00     -320.370      -86.719      -17.877      118.876      116.594       59.600    14131.444    13594.148     3552.122        7.087        1.564      331.899       56.200        0.029      338.698       11.523      862.276
01/07/2014  17:02:00     -354.926      -62.733      -15.820      183.846      154.829       79.968    33799.362    23971.948     6394.870        9.715        3.208      360.428       79.018        0.048      338.722       11.563      862.277
01/07/2014  17:03:00     -351.153      -62.811       -6.604      161.884      116.758       68.706    26206.274    13632.453     4720.467        8.592        2.228      356.726       83.219        0.054      338.743       11.599      862.282
01/07/2014  17:04:00     -251.781      -93.349        2.615      184.216      125.906       70.197    33935.419    15852.313     4927.651        6.341        2.736      268.529       82.512        0.094      338.700       11.527      862.287
01/07/2014  17:05:00     -321.130      -69.861       -6.283      116.987       98.303       53.882    13685.925     9663.466     2903.301        6.714        1.313      328.641       52.737        0.026      338.671       11.476      862.302
01/07/2014  17:06:00     -304.770      -42.595       -9.190       91.546       87.434       51.757     8380.600     7644.658     2678.836        5.674        0.935      307.733       42.576        0.019      338.640       11.426      862.321
01/07/2014  17:07:00     -412.450     -101.329      -25.313      124.869      121.387       62.040    15592.326    14734.862     3848.980       10.759        1.709      424.715       49.457        0.014      338.646       11.436      862.323
01/07/2014  17:08:00     -401.917      -98.175       -5.981      140.691      107.278       51.557    19793.950    11508.639     2658.137       10.258        1.698      413.734       56.488        0.019      338.672       11.479      862.336
01/07/2014  17:09:00     -356.567      -51.133      -31.158      124.867      112.916       65.285    15591.883    12750.038     4262.160        8.166        1.630      360.214       61.695        0.029      338.638       11.423      862.315
01/07/2014  17:10:00     -382.153      -42.276      -18.867      150.075      136.506       63.388    22522.517    18633.770     4018.008        9.667        2.259      384.484       69.261        0.032      338.627       11.403      862.320
01/07/2014  17:11:00     -492.726      -81.614      -34.727      114.370      107.281       61.849    13080.426    11509.277     3825.342       13.953        1.421      499.439       52.559        0.011      338.623       11.397      862.301
01/07/2014  17:12:00     -337.925       -0.530      -18.437      152.451      121.270       62.687    23241.327    14706.397     3929.682        7.820        2.094      337.926       63.693        0.036      338.597       11.352      862.280
01/07/2014  17:13:00     -339.074      -40.809      -17.716      114.511       85.210       55.708    13112.789     7260.679     3103.332        7.021        1.174      341.521       57.337        0.028      338.593       11.347      862.246
01/07/2014  17:14:00     -428.786      -19.327      -36.944      205.005      137.260       82.203    42026.916    18840.171     6757.406       12.660        3.381      429.221       92.604        0.047      338.624       11.400      862.216
01/07/2014  17:15:00     -401.309     -111.972      -21.323      106.305      111.290       59.160    11300.704    12385.453     3499.913       10.061        1.359      416.638       50.572        0.015      338.616       11.386      862.219
01/07/2014  17:16:00     -322.112      -72.227      -20.127      105.828      124.643       58.658    11199.557    15535.854     3440.719        6.977        1.509      330.110       44.749        0.018      338.507       11.203      862.237
01/07/2014  17:17:00     -218.638      -51.765       16.136      160.864      100.797       70.658    25877.116    10159.962     4992.555        4.588        2.051      224.683       92.107        0.168      338.497       11.186      862.244
01/07/2014  17:18:00     -316.624      -62.475       -3.014      124.446       95.507       62.173    15486.686     9121.576     3865.441        6.631        1.424      322.729       60.593        0.035      338.515       11.216      862.256
01/07/2014  17:19:00     -301.672      -87.961       -3.223      143.646      119.178       73.066    20634.166    14203.471     5338.641        6.946        2.009      314.234       68.369        0.047      338.503       11.196      862.261
01/07/2014  17:20:00     -517.517     -144.344      -18.882      179.678      147.103       86.688    32284.118    21639.331     7514.859       17.522        3.072      537.270       80.273        0.022      338.597       11.354      862.270
01/07/2014  17:21:00     -331.317      -53.820       -9.761      177.017      114.601       70.872    31335.065    13133.471     5022.807        8.112        2.475      335.660       90.141        0.072      338.539       11.256      862.277
01/07/2014  17:22:00     -318.737     -119.670       10.121      151.884      145.213       72.886    23068.652    21086.916     5312.345        8.273        2.473      340.462       65.187        0.037      338.532       11.244      862.269
01/07/2014  17:23:00     -426.929     -123.201      -36.562      187.679      141.017       82.816    35223.479    19885.782     6858.441       13.037        3.098      444.350       84.155        0.036      338.564       11.299      862.249
01/07/2014  17:24:00     -357.814      -68.539       -6.017      148.109      110.322       67.875    21936.271    12170.998     4607.043        8.573        1.936      364.319       75.657        0.043      338.526       11.235      862.237
01/07/2014  17:25:00     -310.173     -133.009        5.056      152.660      117.388       72.739    23305.062    13780.032     5290.891        7.814        2.119      337.489       81.016        0.058      338.471       11.142      862.233
01/07/2014  17:26:00     -468.597     -103.772      -19.732      190.339      138.143       76.954    36228.867    19083.532     5921.952       14.598        3.062      479.950       86.252        0.032      338.494       11.180      862.243
01/07/2014  17:27:00     -485.718      -94.159      -21.874      140.399      101.951       67.976    19711.904    10393.915     4620.798       13.999        1.736      494.760       76.667        0.024      338.526       11.234      862.260
01/07/2014  17:28:00     -438.231      -63.995      -19.495      150.992      122.928       69.598    22798.581    15111.226     4843.895       11.963        2.138      442.879       62.624        0.020      338.464       11.130      862.274
01/07/2014  17:29:00     -465.789     -146.589      -23.332      159.669      153.913       78.306    25494.116    23689.080     6131.801       14.714        2.766      488.311       74.325        0.023      338.447       11.100      862.293
01/07/2014  17:30:00     -471.277     -201.616      -33.458      176.705      117.678       86.443    31224.615    13848.204     7472.436       15.820        2.627      512.593       74.815        0.021      338.503       11.194      862.300
01/07/2014  17:31:00     -444.744      -76.777      -21.402      158.602      130.620       74.143    25154.698    17061.458     5497.139       12.592        2.386      451.323       71.734        0.025      338.454       11.111      862.330
01/07/2014  17:32:00     -363.872     -125.416       -1.125      159.409      108.189       57.443    25411.131    11704.956     3299.687        9.427        2.021      384.879       56.665        0.022      338.425       11.065      862.358
01/07/2014  17:33:00     -339.522      -68.856       -3.163      140.917      129.111       60.076    19857.574    16669.591     3609.126        8.007        2.007      346.433       56.607        0.027      338.419       11.055      862.366
01/07/2014  17:34:00     -321.002      -55.729      -12.533      106.433       85.490       53.958    11327.991     7308.523     2911.468        6.392        1.077      325.804       56.061        0.030      338.433       11.077      862.342
01/07/2014  17:35:00     -293.440      -22.830      -11.575      144.801      117.312       57.758    20967.429    13762.021     3336.034        6.241        1.903      294.327       58.391        0.039      338.406       11.033      862.324
01/07/2014  17:36:00     -372.093     -102.620      -19.707      119.714       88.370       58.007    14331.473     7809.289     3364.772        8.743        1.275      385.985       53.093        0.019      338.402       11.024      862.287
01/07/2014  17:37:00     -405.388     -129.495       -9.995      149.421      124.189       63.963    22326.592    15422.843     4091.252       11.152        2.092      425.568       69.113        0.026      338.449       11.104      862.246
01/07/2014  17:38:00     -394.803      -43.228      -12.935      133.253       98.510       57.823    17756.306     9704.306     3343.486        9.435        1.540      397.163       56.029        0.020      338.473       11.144      862.218
01/07/2014  17:39:00     -402.676      -79.196      -31.084      120.484      109.167       51.436    14516.301    11917.475     2645.678        9.923        1.454      410.390       49.023        0.014      338.484       11.164      862.198
01/07/2014  17:40:00     -295.953     -132.124      -24.128      104.692       75.956       48.875    10960.373     5769.248     2388.776        6.237        0.956      324.107       44.618        0.019      338.402       11.026      862.186
01/07/2014  17:41:00     -266.948     -111.599      -15.829      130.003       91.276       51.563    16900.854     8331.346     2658.711        5.592        1.395      289.336       44.304        0.023      338.360       10.956      862.167
01/07/2014  17:42:00     -325.669      -79.269      -18.992       94.017       89.848       48.701     8839.129     8072.581     2371.767        6.599        0.964      335.178       37.704        0.013      338.344       10.929      862.170
01/07/2014  17:43:00     -335.302      -48.863      -26.161       98.545       87.019       50.218     9711.205     7572.366     2521.832        6.765        0.990      338.844       49.386        0.021      338.306       10.866      862.185
01/07/2014  17:44:00     -222.915      -51.209       -7.885      117.324       72.142       44.930    13764.941     5204.510     2018.692        3.668        1.049      228.721       50.993        0.050      338.227       10.732      862.195
01/07/2014  17:45:00     -364.657      -77.473      -19.431      139.926       93.700       60.020    19579.363     8779.636     3602.448        8.565        1.598      372.796       63.133        0.029      338.250       10.771      862.213
01/07/2014  17:46:00     -310.201      -80.189       -6.683      163.477      118.005       58.774    26724.571    13925.246     3454.393        7.339        2.205      320.398       71.931        0.050      338.243       10.759      862.205
01/07/2014  17:47:00     -404.441      -65.151      -12.689      162.369      133.437       76.310    26363.709    17805.454     5823.240       10.898        2.500      409.655       64.500        0.025      338.271       10.807      862.190
01/07/2014  17:48:00     -330.510     -115.028      -39.250      160.580      108.679       59.711    25786.044    11811.152     3565.374        8.258        2.058      349.954       72.038        0.042      338.234       10.744      862.194
01/07/2014  17:49:00     -382.176      -43.594      -31.539      177.834      123.842       72.501    31624.901    15336.842     5256.378       10.058        2.611      384.654       85.783        0.050      338.290       10.838      862.197
01/07/2014  17:50:00     -418.242     -111.353      -25.036      118.023       96.551       51.050    13929.441     9322.039     2606.146       10.690        1.293      432.812       51.497        0.014      338.260       10.787      862.219
01/07/2014  17:51:00     -325.624     -142.730      -21.130      122.222       71.949       48.085    14938.161     5176.596     2312.206        7.463        1.121      355.532       31.470        0.008      338.215       10.712      862.233
01/07/2014  17:52:00     -372.415      -60.800      -23.689      111.259      105.881       59.694    12378.462    11210.868     3563.341        8.505        1.358      377.346       55.842        0.022      338.212       10.706      862.243
01/07/2014  17:53:00     -348.627      -67.196      -23.054       90.880      119.204       58.664     8259.134    14209.593     3441.461        7.624        1.296      355.044       30.111        0.007      338.244       10.761      862.240
01/07/2014  17:54:00     -318.449     -105.977      -30.351      185.139      131.873       73.562    34276.586    17390.471     5411.338        8.531        2.854      335.620       83.883        0.062      338.265       10.797      862.229
01/07/2014  17:55:00     -378.853     -108.321      -30.332      124.550      101.120       57.506    15512.657    10225.156     3306.983        9.261        1.452      394.034       56.900        0.021      338.210       10.703      862.238
01/07/2014  17:56:00     -323.541      -92.356      -13.291      164.027      130.428       71.829    26904.856    17011.431     5159.377        8.122        2.454      336.464       80.790        0.058      338.239       10.752      862.218
01/07/2014  17:57:00     -421.152     -111.508      -39.352      129.876      119.113       67.007    16867.898    14187.833     4489.963       11.344        1.777      435.664       62.085        0.020      338.298       10.852      862.213
01/07/2014  17:58:00     -308.778     -156.618      -31.652      138.786       90.717       73.184    19261.652     8229.536     5355.853        7.686        1.642      346.227       65.206        0.035      338.259       10.787      862.190
01/07/2014  17:59:00     -407.612      -38.009      -37.833      111.898      122.328       56.254    12521.095    14964.112     3164.460        9.983        1.532      409.380       51.780        0.016      338.227       10.732      862.202
01/07/2014  18:00:00     -378.361      -77.256      -40.032      113.945       95.602       65.481    12983.353     9139.809     4287.768        8.856        1.321      386.167       56.026        0.021      338.250       10.771      862.214
01/07/2014  18:01:00     -348.210      -84.635      -32.326      104.266      107.107       52.959    10871.340    11471.969     2804.664        7.730        1.257      358.348       43.336        0.015      338.243       10.760      862.228
01/07/2014  18:02:00     -285.397     -140.344      -36.672      129.504       80.597       63.680    16771.213     6495.945     4055.095        6.490        1.366      318.037       57.567        0.033      338.225       10.728      862.223
01/07/2014  18:03:00     -367.264     -102.804      -16.463      194.562      117.322       83.620    37854.302    13764.339     6992.317       10.216        2.931      381.381      104.164        0.075      338.200       10.687      862.220
01/07/2014  18:04:00     -481.192     -140.096      -32.183      157.625      132.336       68.071    24845.730    17512.864     4633.651       14.959        2.350      501.171       70.826        0.020      338.288       10.835      862.212
01/07/2014  18:05:00     -374.657     -150.176      -22.139      190.484      108.705       76.528    36283.989    11816.836     5856.476       10.868        2.698      403.635       60.599        0.023      338.245       10.762      862.218
01/07/2014  18:06:00     -383.214     -118.811      -32.298       99.298      118.863       55.806     9860.026    14128.478     3114.365        9.455        1.355      401.210       45.198        0.013      338.199       10.685      862.214
01/07/2014  18:07:00     -374.462      -61.208      -24.733      112.589      117.274       64.161    12676.295    13753.193     4116.575        8.756        1.527      379.432       50.052        0.017      338.207       10.699      862.177
01/07/2014  18:08:00     -436.202     -121.860      -33.505      167.033      131.846       70.901    27900.107    17383.326     5027.008       12.827        2.516      452.904       70.549        0.024      338.223       10.725      862.165
01/07/2014  18:09:00     -426.558      -99.338      -10.408      149.963      118.493       71.339    22488.897    14040.626     5089.273       11.677        2.081      437.972       60.736        0.019      338.246       10.765      862.181
01/07/2014  18:10:00     -388.570      -70.924      -16.807      156.268      108.674       57.960    24419.662    11809.998     3359.326        9.794        1.979      394.990       70.142        0.032      338.232       10.741      862.199
01/07/2014  18:11:00     -286.379      -85.760      -24.812      122.144      110.234       56.338    14919.073    12151.484     3173.999        6.011        1.512      298.945       49.450        0.027      338.202       10.689      862.198
01/07/2014  18:12:00     -302.684     -136.654      -14.397       91.264       88.659       52.529     8329.179     7860.380     2759.289        6.472        0.947      332.102       47.429        0.020      338.172       10.638      862.210
01/07/2014  18:13:00     -370.676      -67.360      -16.655      144.341      164.923       68.753    20834.230    27199.593     4726.987        9.748        2.638      376.747       65.776        0.030      338.172       10.640      862.204
01/07/2014  18:14:00     -418.267      -87.116      -12.169      139.429      127.970       69.722    19440.326    16376.317     4861.096       11.167        2.034      427.243       75.405        0.031      338.199       10.683      862.219
01/07/2014  18:15:00     -386.151      -79.347       -2.055      132.180      113.060       71.511    17471.588    12782.669     5113.855        9.538        1.768      394.219       66.567        0.029      338.192       10.672      862.245
01/07/2014  18:16:00     -326.848      -47.325       -4.015      139.379      113.106       64.855    19426.645    12793.044     4206.224        7.275        1.821      330.257       61.843        0.035      338.165       10.629      862.257
01/07/2014  18:17:00     -402.205      -87.433      -20.138      141.640      128.667       64.024    20061.959    16555.300     4099.016       10.526        2.036      411.598       73.603        0.032      338.163       10.625      862.250
01/07/2014  18:18:00     -396.851      -84.869      -10.804      193.239      120.953       73.250    37341.189    14629.617     5365.538       11.106        2.867      405.824       82.058        0.041      338.131       10.569      862.264
01/07/2014  18:19:00     -267.209      -70.472      -12.844      165.966      110.965       57.202    27544.565    12313.180     3272.075        5.982        2.156      276.345       69.511        0.063      338.132       10.574      862.272
01/07/2014  18:20:00     -128.757      -62.962        7.560      140.363      128.176       78.317    19701.772    16429.168     6133.620        3.142        2.113      143.326       91.121        0.404      338.130       10.572      862.281
01/07/2014  18:21:00     -291.360     -103.578      -17.561      175.846       97.860       70.187    30921.715     9576.482     4926.214        7.067        2.271      309.224       70.564        0.052      338.200       10.686      862.283
01/07/2014  18:22:00     -279.435      -86.759      -15.674      148.009      113.867       61.533    21906.597    12965.793     3786.298        6.225        1.933      292.594       64.330        0.048      338.208       10.700      862.279
01/07/2014  18:23:00     -399.254      -46.205      -30.167      210.236      123.995       77.085    44199.366    15374.811     5942.156       11.397        3.276      401.918       93.311        0.054      338.248       10.767      862.285
01/07/2014  18:24:00     -332.402      -41.581       -2.070      207.472      117.871       73.273    43044.463    13893.607     5368.942        8.726        3.115      334.993       72.860        0.047      338.224       10.728      862.291
01/07/2014  18:25:00     -421.517       -6.364      -39.665      162.472      136.128       74.963    26397.278    18530.902     5619.464       11.491        2.527      421.565       81.433        0.037      338.211       10.705      862.283
01/07/2014  18:26:00     -378.558      -85.202       -9.110      153.485      140.286       66.771    23557.600    19680.173     4458.305        9.916        2.385      388.028       65.863        0.029      338.164       10.626      862.290
01/07/2014  18:27:00     -419.467     -100.764      -21.280      185.823      153.367       72.494    34530.303    23521.357     5255.441       12.492        3.165      431.400       85.934        0.040      338.184       10.659      862.299
01/07/2014  18:28:00     -390.658      -72.000       -2.596      211.300      122.228       68.409    44647.805    14939.584     4679.783       11.102        3.213      397.237       87.814        0.049      338.170       10.636      862.303
01/07/2014  18:29:00     -311.301      -99.681      -16.353      153.623       98.320       67.832    23599.887     9666.808     4601.173        7.248        1.893      326.871       77.226        0.056      338.144       10.593      862.301
01/07/2014  18:30:00     -361.311      -42.458      -23.345      177.742      105.586       68.056    31592.331    11148.430     4631.636        9.012        2.369      363.797       86.072        0.056      338.114       10.542      862.298
01/07/2014  18:31:00     -303.188      -71.134      -12.185      105.678      137.112       60.749    11167.788    18799.631     3690.494        6.539        1.683      311.421       55.042        0.031      338.126       10.561      862.269
01/07/2014  18:32:00     -269.254     -104.172      -25.791      120.375      104.909       59.027    14490.118    11005.984     3484.221        5.649        1.449      288.704       62.708        0.047      338.100       10.518      862.232
01/07/2014  18:33:00     -283.953      -77.599       -8.841      125.367      103.697       57.585    15716.762    10753.117     3316.054        5.825        1.489      294.365       54.502        0.034      338.055       10.443      862.200
01/07/2014  18:34:00     -301.647      -47.819       -9.298      132.397      108.673       63.576    17528.970    11809.863     4041.880        6.337        1.669      305.414       52.050        0.029      338.071       10.471      862.165
01/07/2014  18:35:00     -270.299      -59.008        5.424      122.075      105.775       56.220    14902.427    11188.403     3160.691        5.291        1.463      276.665       55.797        0.041      338.018       10.382      862.153
01/07/2014  18:36:00     -278.846      -55.873        4.098      171.754      100.253       66.580    29499.309    10050.723     4432.855        6.243        2.199      284.388       74.026        0.068      338.030       10.402      862.124
01/07/2014  18:37:00     -328.400      -39.275       -5.629      113.584      130.278       65.265    12901.317    16972.380     4259.579        7.177        1.707      330.740       54.258        0.027      338.056       10.444      862.105
01/07/2014  18:38:00     -319.067      -59.475       -3.164      142.889      129.128       63.622    20417.219    16674.026     4047.762        7.324        2.057      324.563       74.203        0.052      338.031       10.404      862.085
01/07/2014  18:39:00     -228.378      -35.941        2.821      139.787       86.430       52.961    19540.289     7470.149     2804.839        4.163        1.491      231.188       58.765        0.065      338.029       10.401      862.059
01/07/2014  18:40:00     -264.653      -85.517      -20.242       97.816      103.368       50.034     9568.029    10684.921     2503.406        5.026        1.138      278.127       47.789        0.030      338.043       10.422      862.025
01/07/2014  18:41:00     -183.005      -84.360       -6.586       80.444       73.461       43.338     6471.312     5396.583     1878.189        2.720        0.687      201.513       38.471        0.036      338.028       10.399      861.969
01/07/2014  18:42:00     -337.440     -121.371       -4.147      122.366      107.266       52.327    14973.324    11505.912     2738.067        7.891        1.461      358.604       53.501        0.022      338.139       10.584      861.898
01/07/2014  18:43:00     -335.055      -95.800       -4.971      116.802      119.169       58.853    13642.795    14201.211     3463.709        7.638        1.565      348.482       55.187        0.025      338.136       10.580      861.850
01/07/2014  18:44:00     -327.269      -37.345       -8.000      173.386      106.037       68.653    30062.798    11243.879     4713.295        7.728        2.301      329.393       76.109        0.053      338.126       10.562      861.813
01/07/2014  18:45:00     -249.012      -44.336        5.037      131.241      112.970       61.441    17224.172    12762.212     3775.040        4.887        1.688      252.928       61.706        0.060      338.158       10.616      861.828
01/07/2014  18:46:00     -310.038     -110.058       -9.337      114.832      107.496       57.207    13186.427    11555.327     3272.641        6.816        1.401      328.993       59.602        0.033      338.167       10.631      861.832
01/07/2014  18:47:00     -190.818     -112.309       -2.342      132.730      117.152       55.002    17617.169    13724.540     3025.242        4.169        1.718      221.416       56.014        0.064      338.188       10.667      861.798
01/07/2014  18:48:00     -327.079     -111.320      -10.442       93.243       87.596       47.857     8694.273     7673.018     2290.284        6.907        0.933      345.504       43.516        0.016      338.182       10.656      861.759
01/07/2014  18:49:00     -382.548      -87.961      -17.461       92.231       95.190       49.145     8506.600     9061.133     2415.271        8.718        0.999      392.530       49.705        0.016      338.137       10.579      861.740
01/07/2014  18:50:00     -266.202     -132.454        8.264      131.805      121.380       69.989    17372.448    14733.094     4898.525        6.273        1.850      297.334       74.706        0.063      338.134       10.576      861.720
01/07/2014  18:51:00     -376.057      -42.820      -15.080      113.938      104.865       64.788    12981.831    10996.567     4197.522        8.582        1.409      378.487       65.176        0.030      338.167       10.631      861.686
01/07/2014  18:52:00     -281.041      -82.421       -2.746      161.524      107.069       70.003    26089.900    11463.763     4900.453        6.411        2.123      292.878       80.180        0.075      338.124       10.559      861.649
01/07/2014  18:53:00     -318.363      -66.097      -10.953      142.262       99.398       60.237    20238.518     9879.871     3628.498        6.979        1.687      325.152       63.191        0.038      338.136       10.578      861.600
01/07/2014  18:54:00     -319.363      -49.270        0.914      131.929      106.691       61.231    17405.178    11382.883     3749.191        6.847        1.627      323.141       63.100        0.038      338.177       10.647      861.548
01/07/2014  18:55:00     -317.484      -18.456      -10.356      155.386      101.869       62.680    24144.827    10377.302     3928.759        6.984        1.923      318.020       67.268        0.045      338.122       10.557      861.528
01/07/2014  18:56:00     -283.925      -17.630       -4.187      129.367      102.560       61.427    16735.944    10518.456     3773.334        5.598        1.551      284.471       64.303        0.051      338.131       10.569      861.529
01/07/2014  18:57:00     -258.656      -18.790       10.992      124.477       91.831       61.052    15494.560     8432.930     3727.339        4.751        1.383      259.337       63.439        0.060      338.191       10.673      861.523
01/07/2014  18:58:00     -260.020      -18.248       -1.019      134.287       82.568       55.050    18032.924     6817.555     3030.488        4.791        1.394      260.660       68.007        0.068      338.139       10.584      861.514
01/07/2014  18:59:00     -288.822      -72.733       -7.911      111.772       89.030       52.780    12493.000     7926.429     2785.696        5.598        1.160      297.839       51.739        0.030      338.166       10.630      861.506
01/07/2014  19:00:00     -341.499      -12.781      -19.837      121.949       88.027       51.911    14871.650     7748.753     2694.778        7.124        1.266      341.738       39.522        0.013      338.102       10.522      861.502
01/07/2014  19:01:00     -266.082     -112.310       -3.627      140.267      100.069       60.569    19674.916    10013.821     3668.634        5.839        1.668      288.813       70.661        0.060      338.065       10.461      861.489
01/07/2014  19:02:00     -315.406      -93.003       -6.562      106.711      106.433       57.263    11387.294    11328.052     3279.099        6.708        1.300      328.833       53.343        0.026      337.971       10.301      861.486
01/07/2014  19:03:00     -362.773     -132.250      -15.951      144.944      115.308       71.124    21008.659    13295.945     5058.653        9.435        1.968      386.128       72.592        0.035      338.151       10.605      861.492
01/07/2014  19:04:00     -369.126     -102.119      -18.128      106.884      117.275       53.665    11424.281    13753.405     2879.880        8.753        1.403      382.991       42.645        0.012      338.123       10.557      861.490
01/07/2014  19:05:00     -363.298      -26.029      -22.990      117.173      100.926       59.560    13729.509    10186.157     3547.377        8.032        1.373      364.230       60.120        0.027      338.032       10.403      861.490
01/07/2014  19:06:00     -216.892      -77.054      -10.658      100.192      114.416       54.555    10038.358    13090.932     2976.221        3.959        1.305      230.173       51.815        0.051      337.897       10.179      861.544
01/07/2014  19:07:00     -274.384     -109.686        2.613       98.024       76.175       51.417     9608.654     5802.582     2643.750        5.269        0.903      295.495       50.535        0.029      337.933       10.237      861.608
01/07/2014  19:08:00     -257.131      -66.107        3.956       82.800       78.935       42.828     6855.865     6230.807     1834.205        4.271        0.746      265.493       41.978        0.025      337.878       10.146      861.652
01/07/2014  19:09:00     -286.486      -67.215      -26.856      124.825       88.848       58.627    15581.377     7894.038     3437.126        5.711        1.346      294.265       64.463        0.048      338.008       10.366      861.655
01/07/2014  19:10:00     -132.486       -6.846       -1.032       89.033       42.352       39.919     7926.892     1793.728     1593.551        1.446        0.566      132.662       49.100        0.137      337.938       10.249      861.617
01/07/2014  19:11:00     -200.329      -19.575      -18.544       88.095       54.066       39.992     7760.692     2923.129     1599.354        2.657        0.614      201.283       44.782        0.049      337.896       10.176      861.617
01/07/2014  19:12:00     -237.390      -56.337      -14.620       53.746       69.890       32.954     2888.672     4884.614     1085.998        3.430        0.443      243.983       30.670        0.016      337.967       10.295      861.638
01/07/2014  19:13:00     -209.764      -67.618       -6.837       62.109       63.464       39.003     3857.470     4027.632     1521.226        2.901        0.470      220.393       32.044        0.021      337.995       10.343      861.678
01/07/2014  19:14:00     -103.250      -33.831       -4.003       48.424       36.995       29.861     2344.861     1368.605      891.698        0.821        0.230      108.651       22.396        0.042      337.924       10.227      861.720
01/07/2014  19:15:00     -105.175      -43.645        5.652       76.902       55.896       39.120     5913.938     3124.385     1530.374        1.178        0.528      113.872       44.092        0.150      337.892       10.172      861.744
01/07/2014  19:16:00      -72.167      -22.907        2.181       45.440       50.097       21.053     2064.767     2509.759      443.221        0.538        0.251       75.716       18.942        0.063      337.820       10.052      861.764
01/07/2014  19:17:00     -104.455       -6.084       -0.003       39.657       40.783       28.389     1572.716     1663.251      805.950        0.749        0.202      104.632       15.609        0.022      337.772        9.973      861.805
01/07/2014  19:18:00      -48.267       20.923       -2.409       50.561       39.152       27.582     2556.459     1532.904      760.781        0.381        0.243       52.607       30.818        0.343      337.767        9.963      861.838
01/07/2014  19:19:00      -48.708      -28.803        7.901       52.039       43.368       24.896     2708.103     1880.777      619.830        0.424        0.260       56.587       26.880        0.226      337.822       10.057      861.853
01/07/2014  19:20:00     -152.796      -46.781       -7.220      100.469       49.385       32.715    10094.069     2438.864     1070.293        1.959        0.680      159.797       34.206        0.046      337.880       10.150      861.851
01/07/2014  19:21:00       21.720       30.488       25.704       80.927       34.238       27.679     6549.240     1172.232      766.109        0.527        0.424       37.434       32.481        0.753      337.847       10.097      861.828
01/07/2014  19:22:00      -46.460       35.921       -0.438       59.036       36.477       20.871     3485.208     1330.565      435.599        0.435        0.263       58.727       13.886        0.056      337.971       10.306      861.838
01/07/2014  19:23:00     -104.084        3.726      -10.217       34.119       27.284       18.488     1164.098      744.409      341.793        0.660        0.113      104.150       14.567        0.020      337.930       10.235      861.866
01/07/2014  19:24:00      -45.055      -15.822       -2.720       22.426       27.899       17.712      502.927      778.361      313.728        0.194        0.080       47.753       14.757        0.095      337.834       10.076      861.896
01/07/2014  19:25:00      -14.634      -42.282        2.967       14.087       37.324       10.366      198.455     1393.094      107.456        0.185        0.085       44.743        9.584        0.046      337.811       10.036      861.922
01/07/2014  19:26:00      -17.725      -77.994       10.560       33.736       31.394       13.267     1138.117      985.593      176.015        0.440        0.115       79.982        9.829        0.015      337.982       10.325      861.937
01/07/2014  19:27:00       28.914       11.491        4.708       69.647       43.194       27.681     4850.681     1865.757      766.256        0.424        0.374       31.113       30.635        0.969      337.899       10.183      861.931
01/07/2014  19:28:00       59.776       15.112       23.946       44.208       28.080       29.858     1954.308      788.509      891.525        0.400        0.182       61.657       19.575        0.101      337.653        9.773      861.916
01/07/2014  19:29:00       51.455       54.865       35.381       29.779       29.234       28.115      886.764      854.655      790.429        0.472        0.127       75.218       11.807        0.025      337.578        9.647      861.903
01/07/2014  19:30:00       48.944       27.386       46.414       42.073       36.664       27.910     1770.147     1344.256      778.976        0.460        0.195       56.085       26.851        0.229      337.442        9.417      861.902
01/07/2014  19:31:00       54.147      -13.858       42.047       52.724       78.796       41.096     2779.770     6208.762     1688.916        0.778        0.534       55.892       55.619        0.990      337.605        9.691      861.908
01/07/2014  19:32:00       36.112       66.619       62.679       36.701       34.940       34.736     1346.947     1220.812     1206.579        0.672        0.189       75.777       32.886        0.188      337.511        9.535      861.929
01/07/2014  19:33:00       40.835       25.348       38.455       34.756       31.465       25.855     1207.991      990.050      668.488        0.333        0.143       48.062       22.788        0.225      337.476        9.475      861.950
01/07/2014  19:34:00       79.553       55.319       28.731       41.522       34.168       21.690     1724.095     1167.426      470.456        0.679        0.168       96.896       23.691        0.060      337.439        9.413      861.972
01/07/2014  19:35:00       66.762       37.615       15.600       34.268       21.215       17.275     1174.269      450.081      298.419        0.402        0.096       76.629       10.104        0.017      337.462        9.451      861.999
01/07/2014  19:36:00       34.225       22.274        1.559       16.990       18.818       10.295      288.652      354.116      105.981        0.121        0.037       40.835        8.735        0.046      337.430        9.399      862.038
01/07/2014  19:37:00      -23.570       21.470       -4.451       23.580       26.560       10.895      556.003      705.427      118.692        0.121        0.069       31.883       12.271        0.148      337.369        9.296      862.088
01/07/2014  19:38:00      -22.522        2.829       -4.065       12.788        9.653        8.425      163.533       93.186       70.984        0.043        0.016       22.699        8.318        0.134      337.412        9.368      862.131
01/07/2014  19:39:00        7.893      -34.687       -3.389       11.414       25.998        8.600      130.281      675.899       73.966        0.108        0.044       35.574        9.071        0.065      337.486        9.493      862.149
01/07/2014  19:40:00       40.535      -55.014       -4.972       38.927       37.464       29.416     1515.312     1403.536      865.295        0.424        0.189       68.334       28.305        0.172      337.572        9.637      862.144
01/07/2014  19:41:00        0.576       -2.051       29.780       27.092       23.520       20.583      733.981      553.211      423.677        0.130        0.086        2.131       15.926       55.872      337.462        9.453      862.143
01/07/2014  19:42:00      -10.856        8.111        4.900       16.247       14.342       10.647      263.968      205.689      113.368        0.040        0.029       13.552        5.747        0.180      337.367        9.293      862.151
01/07/2014  19:43:00        9.297       32.981       17.065       18.791       17.060       18.121      353.093      291.041      328.385        0.122        0.049       34.266       16.062        0.220      337.413        9.371      862.163
01/07/2014  19:44:00        9.617      -22.003       26.489       19.167       37.112       20.646      367.355     1377.313      426.247        0.172        0.109       24.013       15.575        0.421      337.563        9.621      862.157
01/07/2014  19:45:00      -12.542       -8.888        5.850       13.791        9.929       16.618      190.200       98.587      276.168        0.042        0.028       15.372       11.096        0.521      337.690        9.834      862.149
01/07/2014  19:46:00        3.838        9.055       -0.640       18.851       17.505       16.211      355.372      306.413      262.800        0.051        0.046        9.835       16.168        2.703      338.078       10.485      862.102
01/07/2014  19:47:00       19.911       21.966       18.165       23.890       16.834       23.229      570.728      283.392      539.589        0.130        0.070       29.648       20.299        0.469      338.024       10.394      862.062
01/07/2014  19:48:00       -6.021       52.903       -6.686       33.977       41.602       16.173     1154.425     1730.720      261.581        0.301        0.157       53.245       14.081        0.070      338.080       10.488      862.072
01/07/2014  19:49:00      -62.233      -29.673        6.879       48.695       39.939       25.360     2371.241     1595.143      643.123        0.470        0.230       68.945       22.163        0.103      337.855       10.111      862.107
01/07/2014  19:50:00      -51.716      -65.440        4.950       43.541       31.643       25.787     1895.785     1001.250      664.986        0.527        0.178       83.409       19.734        0.056      337.761        9.955      862.122
01/07/2014  19:51:00     -120.674      -91.189       -2.565       47.550       42.782       26.207     2260.996     1830.331      686.797        1.383        0.239      151.254       23.087        0.023      338.007       10.365      862.112
01/07/2014  19:52:00     -100.225      -50.776       -8.134       28.283       26.632       19.401      799.932      709.252      376.380        0.729        0.094      112.353       10.542        0.009      337.924       10.227      862.099
01/07/2014  19:53:00     -147.689      -83.266      -16.353       70.832       72.061       29.731     5017.107     5192.752      883.921        2.005        0.555      169.544       33.746        0.040      337.974       10.309      862.089
01/07/2014  19:54:00     -100.575      -59.348      -12.071       74.415       27.260       22.072     5537.637      743.116      487.162        1.027        0.338      116.780       25.566        0.048      338.131       10.575      862.097
01/07/2014  19:55:00      -87.763      -19.924        0.192       54.145       37.571       25.297     2931.717     1411.614      639.954        0.654        0.249       89.996       23.019        0.065      337.989       10.336      862.121
01/07/2014  19:56:00     -100.368      -37.029       -6.298       35.878       31.125       21.903     1287.254      968.739      479.721        0.711        0.137      106.981       23.055        0.046      337.936       10.247      862.142
01/07/2014  19:57:00      -88.136       -6.247       -3.040       24.597       15.874       14.487      605.030      251.982      209.862        0.444        0.053       88.358       12.954        0.021      337.883       10.158      862.155
01/07/2014  19:58:00      -85.672       38.821      -11.037       23.441       28.911       19.383      549.477      835.865      375.711        0.536        0.088       94.057       14.658        0.024      337.670        9.801      862.190
01/07/2014  19:59:00      -55.376      -34.212       -7.878       34.282       29.256       21.520     1175.229      855.899      463.124        0.340        0.125       65.092       12.692        0.038      337.370        9.298      862.247
01/07/2014  20:00:00     -102.167      -58.997       -0.837       39.357       33.045       21.116     1548.941     1091.989      445.882        0.850        0.154      117.978       13.183        0.012      337.374        9.304      862.287
01/07/2014  20:01:00     -117.221      -18.528       -7.764       32.529       25.627       19.311     1058.116      656.735      372.907        0.812        0.104      118.676       17.767        0.022      337.326        9.224      862.312
01/07/2014  20:02:00     -109.926      -35.148       -3.852       24.022       25.390       15.171      577.068      644.647      230.154        0.739        0.073      115.409        9.897        0.007      337.385        9.324      862.315
01/07/2014  20:03:00      -91.921      -59.333       -6.023       50.809       24.497       18.843     2581.529      600.079      355.074        0.777        0.177      109.406       21.842        0.040      337.502        9.519      862.299
01/07/2014  20:04:00     -117.781      -54.758       -4.444       28.602       27.952       16.322      818.103      781.330      266.397        0.938        0.093      129.887       11.070        0.007      337.459        9.448      862.275
01/07/2014  20:05:00     -114.889      -41.069       -3.752       29.340       32.114       16.808      860.839     1031.278      282.501        0.854        0.109      122.008       11.883        0.009      337.462        9.453      862.264
01/07/2014  20:06:00      -44.880       24.754       -0.698       21.301       21.172       11.668      453.712      448.252      136.131        0.183        0.052       51.254       10.178        0.039      337.438        9.411      862.246
01/07/2014  20:07:00       -6.798      -11.671       -5.665        7.176       22.482        9.835       51.497      505.432       96.717        0.043        0.033       13.506       13.128        0.945      337.513        9.537      862.262
01/07/2014  20:08:00      -10.656      -15.183        1.389       10.116       14.535        7.256      102.332      211.263       52.654        0.036        0.018       18.549        6.019        0.105      337.658        9.779      862.287
01/07/2014  20:09:00      -24.616       -2.985        3.294        9.640        8.650        6.680       92.933       74.818       44.626        0.042        0.011       24.796        5.329        0.046      337.722        9.888      862.307
01/07/2014  20:10:00      -79.671       20.505       -9.122       27.471       13.695        9.049      754.669      187.544       81.876        0.394        0.051       82.268       11.733        0.020      337.334        9.238      862.322
01/07/2014  20:11:00      -62.961       52.881       -6.714       25.136       23.726        7.804      631.834      562.921       60.905        0.403        0.063       82.222        6.571        0.006      337.670        9.803      862.313
01/07/2014  20:12:00      -14.566        1.204        2.879       16.002       15.730        8.749      256.049      247.438       76.549        0.040        0.029       14.616        9.705        0.441      337.927       10.233      862.291
01/07/2014  20:13:00      -50.596       -4.708       -6.490       15.593       12.154       10.485      243.130      147.717      109.927        0.156        0.025       50.814        9.541        0.035      337.668        9.798      862.290
01/07/2014  20:14:00      -90.655       10.225      -11.632       33.408       36.315       17.974     1116.082     1318.744      323.069        0.561        0.138       91.230        7.105        0.006      337.964       10.294      862.275
01/07/2014  20:15:00      -33.344       42.409        0.617       34.995       24.902       18.828     1224.633      620.124      354.486        0.255        0.110       53.947       18.672        0.120      337.906       10.197      862.244
01/07/2014  20:16:00      -45.368       -1.528      -10.587       33.670       76.515       18.601     1133.654     5854.567      345.994        0.475        0.367       45.394        6.737        0.022      337.991       10.338      862.259
01/07/2014  20:17:00      -73.842      -68.898       14.038       70.082       31.445       36.459     4911.503      988.819     1329.280        0.881        0.361      100.993       43.717        0.187      337.688        9.831      862.305
01/07/2014  20:18:00     -121.164      -90.344       10.560       76.238       50.756       34.856     5812.209     2576.220     1214.948        1.628        0.480      151.138       41.830        0.077      337.618        9.712      862.333
01/07/2014  20:19:00     -112.553      -84.381       -0.230       44.774       44.002       23.422     2004.753     1936.214      548.597        1.214        0.224      140.671       22.165        0.025      337.577        9.644      862.318
01/07/2014  20:20:00     -117.284     -110.314       -1.231       49.099       71.430       31.968     2410.746     5102.281     1021.973        1.723        0.427      161.011       30.817        0.037      337.796       10.012      862.289
01/07/2014  20:21:00      -49.603      -98.335        9.616       37.808       31.477       22.120     1429.479      990.816      489.308        0.757        0.145      110.138       17.990        0.027      338.153       10.612      862.248
01/07/2014  20:22:00      -78.167      -34.386       -1.785       36.283       37.047       16.470     1316.436     1372.506      271.271        0.513        0.148       85.396       17.817        0.044      337.970       10.305      862.241
01/07/2014  20:23:00     -124.139      -37.285       -6.077       61.923       50.129       30.073     3834.440     2512.871      904.386        1.204        0.363      129.618       38.774        0.089      337.991       10.340      862.250
01/07/2014  20:24:00     -165.075      -63.594        0.511       51.425       42.053       26.682     2644.575     1768.473      711.955        1.821        0.256      176.901       20.335        0.013      337.800       10.018      862.277
01/07/2014  20:25:00     -122.703      -70.798       -0.193       62.836       39.739       25.921     3948.422     1579.194      671.895        1.313        0.310      141.663       22.114        0.024      337.638        9.747      862.303
01/07/2014  20:26:00       -3.278        2.869       25.054       40.694       37.061       33.010     1655.971     1373.519     1089.658        0.238        0.206        4.356       22.527       26.744      337.657        9.778      862.278
01/07/2014  20:27:00       73.648       52.170       15.813       52.246       45.818       35.184     2729.666     2099.298     1237.946        0.723        0.303       90.254       17.396        0.037      337.855       10.112      862.212
01/07/2014  20:28:00     -165.189      -38.167      -18.575       90.473       36.654       19.259     8185.433     1343.543      370.923        1.949        0.495      169.541       19.168        0.013      337.783        9.989      862.215
01/07/2014  20:29:00     -302.186     -129.800      -23.310       96.966       62.240       44.902     9402.312     3873.833     2016.198        6.200        0.765      328.884       37.643        0.013      337.819       10.048      862.204
01/07/2014  20:30:00     -139.721     -105.844      -14.744       73.313       44.249       33.838     5374.755     1958.004     1144.995        1.971        0.424      175.286       32.013        0.033      337.817       10.045      862.188
01/07/2014  20:31:00     -113.729      -44.712       12.708       88.409       47.354       36.954     7816.221     2242.425     1365.563        1.326        0.571      122.202       48.672        0.159      337.919       10.217      862.130
01/07/2014  20:32:00     -172.579      -55.624       -5.271       76.273       54.143       44.524     5817.594     2931.508     1982.379        2.182        0.537      181.322       43.090        0.056      337.821       10.052      862.098
01/07/2014  20:33:00      -68.764      -92.155        7.541       91.252       56.411       38.851     8326.878     3182.163     1509.409        1.315        0.651      114.983       31.035        0.073      337.893       10.175      862.096
01/07/2014  20:34:00      -10.760       17.946       10.520       43.553       57.906       29.989     1896.873     3353.055      899.328        0.335        0.307       20.924       26.671        1.625      337.822       10.055      862.094
01/07/2014  20:35:00      -80.269      -29.132        2.049       35.634       40.683       24.134     1269.813     1655.146      582.473        0.540        0.175       85.392        7.685        0.008      337.711        9.868      862.123
01/07/2014  20:36:00      -18.286      -11.695        1.262       23.093       29.081       15.245      533.309      845.694      232.398        0.104        0.081       21.706       11.270        0.270      337.640        9.752      862.154
01/07/2014  20:37:00      -28.578      -24.190       -1.271       24.346       20.925       13.857      592.715      437.839      192.013        0.131        0.061       37.442        9.425        0.063      337.647        9.763      862.194
01/07/2014  20:38:00     -171.669      -42.680       -5.268       74.397       37.626       27.791     5534.959     1415.678      772.352        1.952        0.386      176.895       36.885        0.043      337.603        9.688      862.228
01/07/2014  20:39:00     -196.204      -61.598       -2.503      129.376       96.033       46.164    16738.203     9222.335     2131.108        3.519        1.405      205.646       59.487        0.084      337.598        9.677      862.236
01/07/2014  20:40:00     -141.023      -49.887       -5.066       68.548       60.551       29.818     4698.816     3666.365      889.112        1.583        0.463      149.587       26.100        0.030      337.852       10.105      862.229
01/07/2014  20:41:00      -40.785     -148.794        1.470       26.373       36.956       19.045      695.543     1365.764      362.727        1.311        0.121      154.283       15.711        0.010      338.065       10.463      862.230
01/07/2014  20:42:00       23.324      -16.865       30.671       20.073       44.913       23.477      402.934     2017.188      551.146        0.237        0.149       28.783       28.028        0.948      337.933       10.242      862.201
01/07/2014  20:43:00      -61.052      -44.874       10.206       56.994       38.072       28.185     3248.317     1449.465      794.395        0.567        0.275       75.769       24.971        0.109      337.978       10.318      862.181
01/07/2014  20:44:00      -67.858      -67.493       -3.030       59.634      111.957       37.471     3556.219    12534.440     1404.046        1.333        0.875       95.708       31.500        0.108      337.995       10.346      862.164
01/07/2014  20:45:00     -114.151       50.148        8.663       55.303       67.049       37.710     3058.430     4495.541     1422.072        1.230        0.449      124.681       24.702        0.039      337.951       10.272      862.118
01/07/2014  20:46:00     -100.872      -93.309       -0.067       72.727       47.139       39.275     5289.257     2222.115     1542.523        1.397        0.453      137.411       25.866        0.035      337.888       10.165      862.129
01/07/2014  20:47:00      -67.484     -101.761        3.065       60.065       69.335       39.226     3607.843     4807.345     1538.709        1.243        0.498      122.104       35.679        0.085      337.921       10.221      862.124
01/07/2014  20:48:00      -35.512       21.243       27.569       37.366       31.056       23.639     1396.223      964.491      558.819        0.270        0.146       41.381       15.110        0.133      337.792       10.005      862.076
01/07/2014  20:49:00        1.313       34.582       11.602       26.859       26.272       15.912      721.392      690.204      253.190        0.150        0.083       34.607       10.783        0.097      337.630        9.733      862.021
01/07/2014  20:50:00      -88.676        5.411      -10.038       71.833       39.902       18.662     5159.981     1592.205      348.283        0.755        0.355       88.841       26.508        0.089      337.687        9.829      862.014
01/07/2014  20:51:00      -15.828       -5.901       11.528       71.245       42.442       31.380     5075.865     1801.299      984.724        0.414        0.393       16.893       31.340        3.442      337.696        9.845      862.005
01/07/2014  20:52:00      -99.575      -20.425       -9.780       74.336       50.690       31.205     5525.809     2569.456      973.737        0.975        0.453      101.649       19.377        0.036      337.800       10.019      862.014
01/07/2014  20:53:00      -95.094      -23.679       -6.478       38.981       34.302       25.617     1519.500     1176.595      656.224        0.650        0.168       97.998       16.910        0.030      337.773        9.972      862.030
01/07/2014  20:54:00      -92.189      -67.742       -5.129       21.890       24.044       16.190      479.151      578.117      262.103        0.722        0.066      114.402       11.604        0.010      337.741        9.918      862.053
01/07/2014  20:55:00      -77.240      -43.218       -3.851       31.641       18.194       16.553     1001.172      331.020      274.013        0.473        0.080       88.509       17.325        0.038      337.747        9.929      862.061
01/07/2014  20:56:00      -56.210      -29.675       -3.854       25.249       16.493       13.521      637.511      272.027      182.829        0.257        0.055       63.562       10.988        0.030      337.772        9.971      862.061
01/07/2014  20:57:00      -28.144      -41.671        3.458       26.234       18.619       14.868      688.235      346.659      221.051        0.190        0.063       50.285       13.744        0.075      337.719        9.881      862.050
01/07/2014  20:58:00      -50.228      -18.474       -6.062       26.068       17.398        8.013      679.537      302.703       64.215        0.197        0.052       53.518        7.552        0.020      337.787        9.997      862.054
01/07/2014  20:59:00      -64.788      -19.287       -7.729       13.243       12.444       11.519      175.386      154.854      132.687        0.255        0.023       67.598        6.055        0.008      337.763        9.957      862.066
01/07/2014  21:00:00      -70.418      -51.214       -5.124       20.214       28.850       12.421      408.597      832.329      154.275        0.450        0.070       87.072        9.502        0.012      337.791       10.003      862.087
01/07/2014  21:01:00      -75.675      -11.168      -10.439       20.265       19.773       13.992      410.669      390.981      195.765        0.348        0.050       76.495       10.131        0.018      337.766        9.961      862.096
01/07/2014  21:02:00      -85.443       -9.495        1.169       33.834       31.522       21.189     1144.728      993.634      448.960        0.499        0.129       85.968       15.974        0.035      337.773        9.973      862.102
01/07/2014  21:03:00      -74.100      -16.112        5.596       51.886       26.638       21.666     2692.126      709.602      469.420        0.483        0.194       75.832       23.118        0.093      337.725        9.892      862.116
01/07/2014  21:04:00      -15.370      -51.392        2.111       19.606       30.244       19.450      384.407      914.687      378.286        0.228        0.084       53.641       18.253        0.116      337.888       10.167      862.119
01/07/2014  21:05:00      -14.355      -52.959       10.594       25.023       30.586       19.683      626.155      935.486      387.425        0.254        0.097       54.870       14.899        0.074      337.808       10.031      862.144
01/07/2014  21:06:00      -49.722       -0.703       -2.637       35.373       17.591       13.970     1251.253      309.439      195.157        0.212        0.088       49.727        6.610        0.018      337.782        9.987      862.179
01/07/2014  21:07:00       -1.523      -27.832       -4.360       24.784       24.844       13.980      614.232      617.231      195.428        0.111        0.071       27.873       11.087        0.158      337.709        9.865      862.220
01/07/2014  21:08:00       -8.981       30.264       26.986       21.876       16.751       21.755      478.564      280.591      473.285        0.148        0.062       31.568       17.883        0.321      337.693        9.839      862.257
01/07/2014  21:09:00       21.504       51.286       68.469       28.547       29.330       17.033      814.906      860.250      290.121        0.487        0.098       55.612       13.630        0.060      337.620        9.717      862.298
01/07/2014  21:10:00       38.821       64.355       52.795       28.315       27.288       24.037      801.711      744.623      577.790        0.528        0.106       75.158       17.799        0.056      337.551        9.601      862.350
01/07/2014  21:11:00       94.614       47.202       11.321       26.660       24.126       20.142      710.730      582.085      405.687        0.650        0.085      105.735       14.846        0.020      337.610        9.701      862.398
01/07/2014  21:12:00      122.179       42.568       11.913       39.983       30.858       27.175     1598.636      952.193      738.475        1.008        0.164      129.382       19.069        0.022      337.603        9.690      862.435
01/07/2014  21:13:00       87.212       55.133       32.215       37.831       37.905       38.294     1431.188     1436.815     1466.410        0.801        0.217      103.178       25.731        0.062      337.562        9.620      862.470
01/07/2014  21:14:00       87.619       37.506       20.246       41.509       31.669       31.350     1723.020     1002.895      982.818        0.660        0.185       95.309       20.511        0.046      337.629        9.732      862.511
01/07/2014  21:15:00       43.279        1.267       13.066       40.061       29.929       20.951     1604.856      895.739      438.961        0.249        0.147       43.298       20.525        0.225      337.603        9.688      862.530
01/07/2014  21:16:00        4.048       13.868       27.101       14.942       18.013       10.079      223.258      324.477      101.584        0.080        0.032       14.446        7.838        0.294      337.452        9.437      862.545
01/07/2014  21:17:00      -24.523      -19.938        9.546       29.520       21.993       21.703      871.408      483.677      471.005        0.146        0.091       31.605       20.918        0.438      337.501        9.517      862.587
01/07/2014  21:18:00      -49.725        7.003       -8.488       10.445       11.350        8.337      109.097      128.813       69.505        0.145        0.015       50.216        5.235        0.011      337.575        9.641      862.640
01/07/2014  21:19:00      -43.201       11.437      -12.151       13.557       17.652       11.147      183.779      311.577      124.255        0.138        0.031       44.690        8.232        0.034      337.769        9.966      862.696
01/07/2014  21:20:00      -26.148       31.882       -1.355       23.824       26.684       16.597      567.593      712.054      275.452        0.163        0.078       41.233       13.881        0.113      337.672        9.804      862.728
01/07/2014  21:21:00        9.878      142.778      -23.186       33.875       47.767       24.468     1147.528     2281.646      598.687        1.252        0.201      143.119       27.617        0.037      337.684        9.824      862.765
01/07/2014  21:22:00       29.900      106.346       -4.020       33.340       42.411       33.197     1111.581     1798.700     1102.021        0.812        0.201      110.470       28.689        0.067      337.521        9.552      862.805
01/07/2014  21:23:00       28.856      136.517      -18.385       23.671       26.231       22.667      560.296      688.048      513.801        1.078        0.088      139.533       16.377        0.014      337.419        9.381      862.821
01/07/2014  21:24:00       29.015      113.469      -14.665       29.496       55.252       21.282      870.008     3052.741      452.905        0.915        0.219      117.120       23.398        0.040      337.454        9.438      862.840
01/07/2014  21:25:00       24.919      123.943      -22.418       29.220       34.471       24.553      853.780     1188.280      602.873        0.956        0.132      126.423       19.209        0.023      337.498        9.513      862.886
01/07/2014  21:26:00       64.422       94.889       -3.012       55.500       37.561       28.079     3080.217     1410.812      788.439        0.922        0.264      114.691       24.942        0.047      337.599        9.681      862.945
01/07/2014  21:27:00      121.825       75.870       19.624       58.553       45.275       29.662     3428.406     2049.848      879.861        1.367        0.318      143.519       20.962        0.021      337.501        9.518      862.958
01/07/2014  21:28:00       22.341       44.598       -0.746       57.290       33.405       26.055     3282.142     1115.898      678.888        0.378        0.254       49.881       23.512        0.222      337.441        9.417      863.016
01/07/2014  21:29:00      -47.951       84.398      -22.341       51.181       51.752       17.921     2619.485     2678.291      321.147        0.777        0.281       97.069       20.048        0.043      337.475        9.474      863.074
01/07/2014  21:30:00     -109.836       64.267      -24.285       24.707       48.681       19.657      610.445     2369.881      386.391        1.007        0.168      127.256       23.488        0.034      337.299        9.180      863.092
01/07/2014  21:31:00      -19.590       89.414       -3.062       53.249       50.746       27.788     2835.465     2575.173      772.186        0.728        0.309       91.535       28.480        0.097      337.490        9.499      863.066
01/07/2014  21:32:00       20.646      172.676      -27.232       26.836       43.704       19.334      720.147     1910.020      373.817        1.699        0.150      173.906       22.722        0.017      337.545        9.591      863.036
01/07/2014  21:33:00      -17.594      156.117      -25.932       29.118       29.146       18.727      847.866      849.486      350.688        1.370        0.102      157.106       19.176        0.015      337.526        9.560      863.062
01/07/2014  21:34:00      -35.850      155.811       -9.044       47.637       78.350       35.275     2269.298     6138.765     1244.349        1.765        0.483      159.882       42.771        0.072      337.670        9.799      863.045
01/07/2014  21:35:00        2.308       72.490      -10.051       29.613       38.881       20.686      876.948     1511.730      427.905        0.409        0.141       72.527       16.189        0.050      337.464        9.458      863.029
01/07/2014  21:36:00      -93.639      109.642       -9.449       48.367       59.969       34.952     2339.324     3596.269     1221.622        1.402        0.358      144.186       28.916        0.040      337.580        9.649      863.030
01/07/2014  21:37:00     -105.848       92.657       -6.728       74.637       78.867       36.479     5570.739     6219.998     1330.750        1.648        0.656      140.674       45.954        0.107      337.572        9.636      863.030
01/07/2014  21:38:00     -142.272       27.403      -10.516       74.685       58.691       38.866     5577.828     3444.648     1510.581        1.582        0.527      144.887       28.939        0.040      337.490        9.498      863.024
01/07/2014  21:39:00      -74.125      -38.688       12.578       55.051       51.940       27.268     3030.583     2697.808      743.562        0.681        0.324       83.614       23.270        0.077      337.463        9.454      863.015
01/07/2014  21:40:00     -133.157      -32.100      -10.480       48.514       41.297       30.364     2353.614     1705.461      921.951        1.193        0.249      136.971       27.563        0.040      337.426        9.392      863.033
01/07/2014  21:41:00      -92.059      -28.335       -0.880       32.647       37.862       21.265     1065.858     1433.560      452.213        0.611        0.148       96.321       16.153        0.028      337.354        9.272      863.047
01/07/2014  21:42:00     -118.898      -27.482       -2.658       41.007       37.473       25.508     1681.585     1404.253      650.646        0.932        0.187      122.033       24.435        0.040      337.534        9.572      863.041
01/07/2014  21:43:00     -131.711      -19.241       -8.974       37.287       24.495       18.384     1390.332      599.999      337.987        1.006        0.116      133.109       11.345        0.007      337.549        9.599      863.056
01/07/2014  21:44:00      -98.535      -53.113      -11.140       29.561       24.062       14.930      873.874      578.960      222.919        0.716        0.084      111.938        9.249        0.007      337.523        9.555      863.065
01/07/2014  21:45:00      -98.750      -37.137      -11.359       17.958       29.433       12.716      322.483      866.310      161.696        0.630        0.068      105.502       13.683        0.017      337.532        9.569      863.091
01/07/2014  21:46:00     -100.235      -20.191       -4.544       32.991       24.903       19.985     1088.393      620.184      399.405        0.629        0.105      102.248       18.721        0.034      337.485        9.490      863.100
01/07/2014  21:47:00     -123.092       -2.410      -19.841       20.472       14.271       10.115      419.099      203.666      102.308        0.814        0.036      123.115        6.511        0.003      337.542        9.587      863.120
01/07/2014  21:48:00     -101.665       25.227       -5.904       20.485       30.567       13.743      419.617      934.314      188.875        0.627        0.077      104.749       14.002        0.018      337.436        9.409      863.121
01/07/2014  21:49:00      -70.586       39.104       -6.916       32.469       24.758       14.181     1054.208      612.945      201.096        0.421        0.093       80.694        9.870        0.015      337.440        9.414      863.120
01/07/2014  21:50:00      -31.436       65.376       -8.405       25.381       23.223       14.574      644.183      539.328      212.412        0.336        0.070       72.541       12.319        0.029      337.474        9.472      863.111
01/07/2014  21:51:00     -103.002        1.635      -13.158       34.531       33.120       21.478     1192.376     1096.965      461.298        0.677        0.138      103.015       16.015        0.024      337.422        9.385      863.107
01/07/2014  21:52:00     -139.007      -58.286       -7.066       45.829       45.147       25.500     2100.254     2038.237      650.259        1.378        0.239      150.732       14.684        0.009      337.280        9.147      863.122
01/07/2014  21:53:00     -118.872      -65.897       -1.352       28.608       32.090       20.940      818.440     1029.785      438.478        1.038        0.114      135.916       17.179        0.016      337.287        9.160      863.123
01/07/2014  21:54:00     -171.423      -54.130       -6.636       47.646       45.551       22.247     2270.146     2074.912      494.944        1.860        0.242      179.766       18.689        0.011      337.300        9.179      863.129
01/07/2014  21:55:00     -165.833      -53.498       -7.281       49.760       47.588       35.731     2476.070     2264.620     1276.714        1.822        0.301      174.249       31.607        0.033      337.266        9.123      863.155
01/07/2014  21:56:00     -171.514      -26.811      -10.395       80.732       62.950       32.794     6517.667     3962.751     1075.460        2.090        0.578      173.597       34.085        0.039      337.290        9.160      863.173
01/07/2014  21:57:00     -167.384      -23.175      -18.134       49.217       56.295       26.285     2422.344     3169.123      690.927        1.758        0.314      168.981       15.909        0.009      337.299        9.178      863.186
01/07/2014  21:58:00     -119.382      -13.879       -4.895       41.859       29.302       26.109     1752.140      858.605      681.657        0.888        0.165      120.186       26.374        0.048      337.282        9.152      863.190
01/07/2014  21:59:00     -146.823      -26.558      -12.239       32.651       41.888       24.848     1066.097     1754.611      617.444        1.292        0.172      149.205       19.176        0.017      337.241        9.083      863.188
01/07/2014  22:00:00     -192.563      -52.925      -18.427       49.504       49.576       33.786     2450.629     2457.735     1141.514        2.313        0.302      199.704       30.255        0.023      337.189        8.994      863.179
01/07/2014  22:01:00     -172.513      -37.682      -11.239       67.124       53.787       29.880     4505.694     2893.060      892.788        1.980        0.415      176.581       26.065        0.022      337.093        8.832      863.173
01/07/2014  22:02:00     -270.980      -27.734      -16.500      116.901       91.552       47.220    13665.846     8381.836     2229.728        4.937        1.214      272.395       48.947        0.032      337.208        9.024      863.172
01/07/2014  22:03:00     -209.097      -69.347      -17.501       84.830       71.136       45.323     7196.162     5060.350     2054.201        3.157        0.716      220.297       44.204        0.040      337.147        8.921      863.158
01/07/2014  22:04:00     -276.839      -27.577      -29.076       89.256       65.109       38.185     7966.692     4239.155     1458.089        4.595        0.683      278.209       35.715        0.016      337.099        8.840      863.146
01/07/2014  22:05:00     -313.789      -43.350      -26.064      100.349       91.300       53.126    10069.833     8335.737     2822.375        6.112        1.061      316.769       52.050        0.027      337.119        8.874      863.119
01/07/2014  22:06:00     -260.502      -14.180      -26.710       96.769       68.561       42.519     9364.185     4700.649     1807.869        4.232        0.794      260.888       40.438        0.024      337.111        8.863      863.090
01/07/2014  22:07:00     -314.676      -26.932      -26.885       64.757       70.343       34.907     4193.431     4948.123     1218.487        5.541        0.518      315.826       33.184        0.011      337.133        8.897      863.072
01/07/2014  22:08:00     -194.422      -44.203      -16.472       71.783       81.217       29.951     5152.745     6596.182      897.033        2.633        0.632      199.384       26.446        0.018      337.138        8.906      863.045
01/07/2014  22:09:00     -196.824      -40.129      -15.773       77.040       58.324       39.653     5935.213     3401.733     1572.340        2.575        0.545      200.873       37.475        0.035      337.169        8.960      863.037
01/07/2014  22:10:00     -189.607      -36.612      -25.360       70.294       75.812       40.011     4941.183     5747.526     1600.911        2.511        0.614      193.110       43.117        0.050      337.066        8.786      863.052
01/07/2014  22:11:00     -171.248      -31.627       -9.690       64.810       48.389       35.137     4200.383     2341.538     1234.622        1.910        0.389      174.144       35.483        0.042      336.971        8.626      863.071
01/07/2014  22:12:00     -233.745      -20.717      -16.155       53.669       52.200       31.670     2880.412     2724.824     1002.968        3.097        0.330      234.661       23.048        0.010      336.982        8.644      863.077
01/07/2014  22:13:00     -187.897       15.096      -26.972       90.438       64.071       33.473     8179.095     4105.136     1120.433        2.483        0.670      188.502       35.370        0.035      337.004        8.682      863.048
01/07/2014  22:14:00     -133.564       33.973      -15.962       43.630       54.098       29.766     1903.605     2926.545      885.994        1.248        0.286      137.817       12.877        0.009      336.915        8.536      863.044
01/07/2014  22:15:00     -161.081       99.098      -32.088       54.205       48.303       32.826     2938.168     2333.156     1077.578        2.157        0.317      189.123       27.429        0.021      336.941        8.578      863.030
01/07/2014  22:16:00     -145.916      -16.641      -16.701       50.336       62.948       37.665     2533.702     3962.474     1418.665        1.488        0.396      146.862       22.494        0.023      336.832        8.398      863.051
01/07/2014  22:17:00     -107.412        0.372       -9.310       84.373       72.481       47.311     7118.756     5253.547     2238.303        1.311        0.731      107.412       40.519        0.142      336.805        8.353      863.057
01/07/2014  22:18:00     -137.776      -24.574      -17.871       57.709       60.446       35.432     3330.377     3653.740     1255.401        1.407        0.412      139.950       17.395        0.015      336.841        8.413      863.018
01/07/2014  22:19:00     -126.526      -13.467      -16.109       62.266       85.347       42.062     3877.033     7284.108     1769.227        1.469        0.647      127.240       33.175        0.068      336.753        8.268      863.005
01/07/2014  22:20:00     -149.801      108.549      -15.407       73.170       61.212       44.443     5353.830     3746.925     1975.223        2.277        0.554      184.996       27.061        0.021      336.912        8.529      862.984
01/07/2014  22:21:00      -96.291       52.677      -14.171       43.681       71.308       39.172     1908.018     5084.760     1534.436        1.039        0.426      109.758       21.579        0.039      336.781        8.314      862.991
01/07/2014  22:22:00     -169.217      -65.494      -27.666       70.061       48.341       38.013     4908.522     2336.866     1444.991        2.119        0.435      181.449       15.292        0.007      336.651        8.095      862.996
01/07/2014  22:23:00     -193.846      -15.134      -25.466       81.820       74.499       46.734     6694.532     5550.064     2184.062        2.644        0.721      194.436       40.964        0.044      336.663        8.115      862.992
01/07/2014  22:24:00     -171.367       79.743      -44.210       84.023       95.943       51.102     7059.890     9205.139     2611.389        2.828        0.944      189.012       43.380        0.053      336.767        8.286      862.977
01/07/2014  22:25:00     -182.178      -56.257      -12.755       79.221       82.970       37.058     6275.917     6884.045     1373.306        2.552        0.727      190.666       27.384        0.021      336.619        8.042      862.976
01/07/2014  22:26:00     -248.027      -31.852      -14.164       63.439       84.997       41.611     4024.521     7224.572     1731.447        3.785        0.649      250.063       29.888        0.014      336.604        8.013      862.942
01/07/2014  22:27:00     -241.261      -84.855      -21.769       76.334       58.141       34.361     5826.804     3380.382     1180.684        3.813        0.519      255.748       18.463        0.005      336.598        8.005      862.931
01/07/2014  22:28:00     -209.590      -61.099      -22.103       85.677       65.193       40.108     7340.477     4250.190     1608.658        3.067        0.660      218.314       24.268        0.012      336.542        7.913      862.945
01/07/2014  22:29:00     -312.163      -50.937      -25.832      118.381       60.547       52.022    14014.121     3665.909     2706.324        6.054        1.019      316.292       57.416        0.033      336.642        8.079      862.953
01/07/2014  22:30:00     -266.799     -110.172      -31.748       62.031       74.845       46.860     3847.830     5601.830     2195.877        4.798        0.582      288.651       36.205        0.016      336.604        8.016      862.951
01/07/2014  22:31:00     -272.348      -76.258       -9.183      116.626       70.978       50.266    13601.713     5037.827     2526.663        5.062        1.058      282.823       54.155        0.037      336.642        8.078      862.948
01/07/2014  22:32:00     -423.754      -87.326      -19.151      132.838       83.866       53.711    17646.051     7033.469     2884.895       10.756        1.378      432.659       62.458        0.021      336.905        8.518      862.952
01/07/2014  22:33:00     -344.010      -45.909      -16.644      130.226      110.061       73.032    16958.778    12113.364     5333.643        7.756        1.720      347.060       75.925        0.048      336.867        8.453      862.931
01/07/2014  22:34:00     -301.420      -59.011      -16.779      161.514      102.250       61.889    26086.700    10455.076     3830.226        6.749        2.019      307.142       76.876        0.063      337.016        8.703      862.896
01/07/2014  22:35:00     -344.895     -132.432        5.244      185.407      120.923       73.620    34375.703    14622.362     5419.860        9.546        2.721      369.446       75.104        0.041      337.042        8.747      862.871
01/07/2014  22:36:00     -447.820      -94.818       -8.666      175.168      161.645       86.171    30683.981    26129.049     7425.376       13.691        3.212      457.748       84.099        0.034      337.125        8.885      862.861
01/07/2014  22:37:00     -382.083      -54.487      -36.158      156.018      113.170       68.147    24341.512    12807.339     4643.991        9.602        2.090      385.948       80.505        0.044      337.101        8.845      862.854
01/07/2014  22:38:00     -314.061     -112.664      -17.724      184.343       83.691       64.151    33982.250     7004.227     4115.335        7.836        2.255      333.658       85.010        0.065      337.088        8.822      862.858
01/07/2014  22:39:00     -319.067      -89.935      -16.599       90.821      104.020       48.568     8248.435    10820.189     2358.828        6.579        1.071      331.499       39.950        0.015      336.975        8.633      862.880
01/07/2014  22:40:00     -359.151      -49.618       -9.896      118.255      106.961       63.668    13984.348    11440.731     4053.676        8.051        1.474      362.562       62.252        0.029      337.054        8.764      862.890
01/07/2014  22:41:00     -280.836      -18.779      -25.996      112.687       85.483       54.874    12698.405     7307.379     3011.120        5.145        1.151      281.463       52.994        0.035      337.072        8.796      862.887
01/07/2014  22:42:00     -257.108      -70.400        2.245      129.456       88.801       64.930    16758.875     7885.586     4215.905        4.996        1.443      266.572       71.010        0.071      337.025        8.717      862.886
01/07/2014  22:43:00     -297.054      -54.169       -3.491      116.406      101.738       59.181    13550.437    10350.546     3502.358        5.929        1.370      301.952       55.562        0.034      337.039        8.740      862.877
01/07/2014  22:44:00     -269.754     -110.157       -8.060      101.195       88.277       55.327    10240.365     7792.901     3061.033        5.303        1.055      291.379       54.024        0.034      337.049        8.757      862.871
01/07/2014  22:45:00     -364.741      -39.377      -30.565      103.509      102.171       43.744    10714.121    10438.917     1913.521        7.929        1.153      366.860       38.965        0.011      337.136        8.904      862.865
01/07/2014  22:46:00     -298.566      -16.166      -23.247      125.371      112.412       55.695    15717.764    12636.444     3101.980        6.069        1.573      299.004       63.821        0.046      336.949        8.591      862.869
01/07/2014  22:47:00     -279.889      -61.227      -32.135       90.386       88.145       51.359     8169.683     7769.534     2637.700        5.084        0.929      286.507       32.919        0.013      337.054        8.765      862.859
01/07/2014  22:48:00     -410.506      -52.046      -43.614      116.091      105.873       49.539    13477.006    11209.154     2454.161       10.013        1.357      413.793       57.051        0.019      337.121        8.878      862.856
01/07/2014  22:49:00     -326.732      -54.731      -27.997      107.094       81.161       53.328    11469.156     6587.164     2843.892        6.571        1.045      331.284       53.055        0.026      337.088        8.822      862.868
01/07/2014  22:50:00     -330.330      -92.495      -10.115      111.843       94.290       50.769    12508.804     8890.599     2577.492        7.087        1.199      343.035       61.068        0.032      337.025        8.718      862.877
01/07/2014  22:51:00     -291.502     -109.181       -8.574      104.471       85.517       49.864    10914.260     7313.170     2486.392        5.884        1.036      311.278       50.914        0.027      337.006        8.685      862.889
01/07/2014  22:52:00     -310.763      -91.644       -4.639      136.697      105.869       56.592    18686.036    11208.219     3202.697        6.904        1.655      323.994       49.005        0.023      337.127        8.888      862.891
01/07/2014  22:53:00     -369.184        4.079      -18.101      166.307       93.539       63.612    27658.150     8749.588     4046.445        8.854        2.023      369.207       72.922        0.039      337.154        8.934      862.878
01/07/2014  22:54:00     -213.872     -100.876        5.557      122.934      103.053       53.911    15112.783    10619.860     2906.421        4.229        1.432      236.468       53.162        0.051      337.080        8.808      862.871
01/07/2014  22:55:00     -243.102      -31.290      -14.633      135.910      103.578       67.353    18471.433    10728.483     4536.436        4.701        1.687      245.107       69.456        0.080      337.129        8.892      862.855
01/07/2014  22:56:00     -309.017      -12.957       -4.199      153.171      122.771       70.491    23461.408    15072.604     4969.024        6.958        2.175      309.289       77.460        0.063      337.116        8.870      862.854
01/07/2014  22:57:00     -330.447     -131.635      -20.492      169.380      125.583       70.988    28689.655    15771.123     5039.242        8.821        2.475      355.701       85.233        0.057      337.194        9.001      862.837
01/07/2014  22:58:00     -311.468     -175.733      -26.887      121.461      128.938       71.128    14752.669    16625.080     5059.161        8.252        1.822      357.623       60.908        0.029      337.219        9.042      862.832
01/07/2014  22:59:00     -351.177     -180.888      -18.304      113.614      133.296       61.830    12908.071    17767.843     3822.991        9.543        1.725      395.026       51.312        0.017      337.286        9.155      862.827
01/07/2014  23:00:00     -140.110     -109.254       18.873      152.344      117.381       72.564    23208.623    13778.409     5265.542        3.708        2.113      177.672       83.402        0.220      337.224        9.053      862.813
01/07/2014  23:01:00     -258.371     -174.260       -6.481      138.627       84.599       62.975    19217.356     7156.912     3965.796        6.375        1.517      311.644       63.753        0.042      337.267        9.122      862.815
01/07/2014  23:02:00     -187.849      -76.010        6.544      102.008      109.984       62.757    10405.633    12096.546     3938.403        3.377        1.322      202.645       61.786        0.093      337.225        9.052      862.814
01/07/2014  23:03:00     -227.175      -93.743      -13.820       93.031       88.122       44.899     8654.775     7765.546     2015.890        3.951        0.922      245.757       38.410        0.024      337.193        8.999      862.806
01/07/2014  23:04:00     -335.101     -100.764      -32.291      119.712      109.415       64.981    14330.883    11971.599     4222.524        7.700        1.526      349.923       62.641        0.032      337.275        9.136      862.806
01/07/2014  23:05:00     -290.992     -140.757      -14.816      136.525      108.691       67.144    18639.113    11813.626     4508.301        6.983        1.748      323.247       63.546        0.039      337.221        9.045      862.813
01/07/2014  23:06:00     -260.796     -130.674       -2.886      147.823      115.225       74.094    21851.680    13276.836     5489.987        6.285        2.031      291.702       83.143        0.081      337.239        9.075      862.799
01/07/2014  23:07:00     -191.896     -125.952       15.794      162.119      112.054       80.001    26282.443    12555.999     6400.115        4.908        2.262      229.539       76.257        0.110      337.207        9.023      862.777
01/07/2014  23:08:00     -396.648     -217.555      -35.587      165.905      138.347       77.451    27524.377    19139.868     5998.615       12.929        2.633      452.393       71.894        0.025      337.301        9.179      862.737
01/07/2014  23:09:00     -291.677     -108.267       -1.584      149.604      123.995       67.871    22381.212    15374.803     4606.495        6.957        2.118      311.123       63.166        0.041      337.269        9.126      862.723
01/07/2014  23:10:00     -339.006     -175.779      -17.157      176.255      151.230       73.738    31065.692    22870.466     5437.236       10.274        2.969      381.868       69.092        0.033      337.344        9.251      862.711
01/07/2014  23:11:00     -417.355     -172.830      -13.391      207.119      119.340       83.763    42898.145    14242.008     7016.227       13.418        3.208      451.725      102.621        0.052      337.348        9.259      862.664
01/07/2014  23:12:00     -354.121     -190.087      -13.513      213.347      137.537       79.363    45516.749    18916.355     6298.511       11.621        3.537      401.914       96.089        0.057      337.304        9.186      862.646
01/07/2014  23:13:00     -412.559     -229.114      -15.804      180.175      186.472       91.160    32463.042    34771.858     8310.139       14.923        3.777      471.909       94.612        0.040      337.325        9.219      862.627
01/07/2014  23:14:00     -491.781     -231.165      -22.176      188.637      155.049       94.471    35584.058    24040.183     8924.698       18.215        3.427      543.402      100.539        0.034      337.365        9.286      862.612
01/07/2014  23:15:00     -457.505     -292.704      -14.248      276.195      200.386      123.793    76283.648    40154.401    15324.713       21.345        6.588      543.126      134.517        0.061      337.432        9.398      862.594
01/07/2014  23:16:00     -363.440     -258.752      -20.051      216.370      171.947       96.809    46815.998    29565.817     9372.058       14.258        4.288      446.141       94.978        0.045      337.393        9.333      862.616
01/07/2014  23:17:00     -352.515     -224.352      -14.860      199.362      169.632       83.388    39745.234    28774.921     6953.594       12.513        3.774      417.852       71.990        0.030      337.387        9.323      862.624
01/07/2014  23:18:00     -308.417     -112.295       17.513      231.766      130.494       87.973    53715.543    17028.718     7739.233        9.325        3.924      328.225      111.167        0.115      337.325        9.221      862.606
01/07/2014  23:19:00     -395.300     -149.518      -30.836      229.492      185.366       87.765    52666.721    34360.580     7702.766       13.713        4.737      422.632      102.276        0.059      337.406        9.356      862.612
01/07/2014  23:20:00     -238.437      -99.331       -6.859      146.304      118.191       79.277    21404.976    13969.112     6284.877        5.421        2.083      258.299       72.755        0.079      337.295        9.170      862.609
01/07/2014  23:21:00     -208.339     -137.315      -10.197      153.253      106.369       64.209    23486.533    11314.314     4122.818        5.064        1.946      249.521       71.214        0.081      337.246        9.089      862.595
01/07/2014  23:22:00     -348.130     -222.815       -9.157      189.289      138.623       84.015    35830.372    19216.282     7058.553       11.650        3.105      413.329       80.174        0.038      337.236        9.072      862.583
01/07/2014  23:23:00     -187.467     -103.334        1.622      157.751      122.961       75.213    24885.502    15119.499     5656.996        4.574        2.283      214.060       89.169        0.174      337.157        8.939      862.557
01/07/2014  23:24:00     -288.512     -101.452       -0.005      157.378      131.880       69.832    24767.855    17392.366     4876.564        7.028        2.352      305.830       74.259        0.059      337.147        8.922      862.547
01/07/2014  23:25:00     -396.472     -170.256      -28.814      202.897      170.554       85.023    41167.049    29088.586     7228.929       13.223        3.874      431.483      107.141        0.062      337.301        9.180      862.518
01/07/2014  23:26:00     -415.204     -239.256       -8.708      192.746      169.597      100.468    37151.046    28763.225    10093.816       15.285        3.800      479.205      116.167        0.059      337.273        9.134      862.496
01/07/2014  23:27:00     -303.742     -164.809       10.784      232.517      161.697       95.463    54063.957    26145.867     9113.220       10.442        4.466      345.574      113.715        0.108      337.291        9.162      862.498
01/07/2014  23:28:00     -319.491      -97.648       -9.533      138.498      129.398       69.729    19181.813    16743.853     4862.129        7.624        2.039      334.081       62.171        0.035      337.262        9.114      862.523
01/07/2014  23:29:00     -346.657     -103.712      -22.503      187.564      122.870       72.690    35180.290    15097.113     5283.875        9.349        2.778      361.839       67.748        0.035      337.262        9.116      862.570
01/07/2014  23:30:00     -305.545      -98.817       -4.084      190.537      155.784       77.431    36304.280    24268.781     5995.484        8.484        3.328      321.127       87.046        0.073      337.263        9.117      862.607
01/07/2014  23:31:00     -480.915     -136.470      -13.380      189.664      133.503       85.473    35972.522    17823.019     7305.555       15.558        3.055      499.903       98.940        0.039      337.346        9.254      862.611
01/07/2014  23:32:00     -459.092      -50.729      -21.135      136.847      148.365       76.403    18727.110    22012.072     5837.407       13.017        2.329      461.886       78.868        0.029      337.307        9.191      862.632
01/07/2014  23:33:00     -177.902      -24.333       27.175      173.248      161.232       82.633    30014.905    25995.736     6828.145        4.790        3.142      179.558       89.130        0.246      337.206        9.021      862.640
01/07/2014  23:34:00     -294.093      -89.640        7.453      182.647      143.434       73.918    33359.862    20573.395     5463.850        7.698        2.970      307.451       78.342        0.065      337.190        8.995      862.666
01/07/2014  23:35:00     -234.485      -24.832       -4.822      142.862      120.527       71.989    20409.449    14526.639     5182.479        4.786        2.006      235.796       67.296        0.081      337.147        8.924      862.661
01/07/2014  23:36:00     -396.964      -53.443      -12.222      214.715      125.906       82.113    46102.665    15852.215     6742.591       11.463        3.435      400.545      100.133        0.062      337.146        8.919      862.675
01/07/2014  23:37:00     -383.269     -117.857       -6.016      166.765      166.800       76.802    27810.508    27822.351     5898.543       11.117        3.077      400.980       79.259        0.039      337.174        8.966      862.687
01/07/2014  23:38:00     -227.598      -79.754        1.686      145.705      103.245       55.115    21230.024    10659.509     3037.625        4.654        1.746      241.167       62.053        0.066      337.100        8.843      862.693
01/07/2014  23:39:00     -291.285      -51.390        5.381      186.988      112.722       71.614    34964.526    12706.147     5128.496        7.015        2.640      295.783       97.112        0.108      337.088        8.823      862.726
01/07/2014  23:40:00     -389.810      -78.986       -5.905      149.159      131.594       78.498    22248.475    17317.065     6161.900       10.197        2.286      397.732       81.262        0.042      337.162        8.946      862.740
01/07/2014  23:41:00     -330.622      -14.320       -5.977      143.599      123.195       62.734    20620.779    15177.067     3935.503        7.464        1.987      330.932       71.362        0.046      337.111        8.861      862.761
01/07/2014  23:42:00     -427.462      -69.899      -12.499      159.708      119.857       69.719    25506.533    14365.729     4860.749       11.624        2.237      433.139       74.296        0.029      337.163        8.949      862.765
01/07/2014  23:43:00     -351.080      -85.714       -9.095      152.941      127.386       65.399    23390.920    16227.274     4277.035        8.728        2.195      361.392       71.553        0.039      337.141        8.913      862.804
01/07/2014  23:44:00     -383.853      -51.921      -12.902      116.282       77.302       56.749    13521.568     5975.628     3220.452        8.646        1.136      387.348       58.968        0.023      337.118        8.873      862.840
01/07/2014  23:45:00     -416.683      -19.458      -28.571      213.854      137.516       69.693    45733.537    18910.704     4857.046       12.215        3.475      417.137       77.410        0.034      337.141        8.911      862.851
01/07/2014  23:46:00     -425.487     -120.449       -3.864      224.138      174.087       89.193    50237.822    30306.386     7955.436       14.202        4.425      442.207      103.387        0.055      337.145        8.917      862.849
01/07/2014  23:47:00     -273.865      -68.561      -14.692      111.849      125.830       73.872    12510.240    15833.302     5457.017        5.685        1.690      282.316       57.733        0.042      337.075        8.801      862.867
01/07/2014  23:48:00     -379.642      -28.055       -9.903      177.371      129.672       77.553    31460.328    16814.862     6014.504        9.964        2.714      380.677       82.838        0.047      337.118        8.874      862.887
01/07/2014  23:49:00     -420.112     -160.482      -33.912      141.353       86.078       72.750    19980.690     7409.379     5292.535       11.804        1.634      449.721       72.172        0.026      337.075        8.801      862.879
01/07/2014  23:50:00     -448.138      -16.845      -23.496      182.782      113.317       73.434    33409.372    12840.739     5392.596       12.664        2.582      448.455       92.257        0.042      337.101        8.845      862.870
01/07/2014  23:51:00     -402.428      -63.308      -20.277      160.438      133.806       72.217    25740.205    17904.149     5215.292       10.761        2.443      407.377       68.023        0.028      337.060        8.775      862.854
01/07/2014  23:52:00     -485.766     -132.818      -13.509      187.647      114.733       77.954    35211.456    13163.590     6076.826       15.411        2.723      503.596       86.349        0.029      337.082        8.812      862.849
01/07/2014  23:53:00     -466.354     -201.802      -20.993      206.905      129.555       75.672    42809.825    16784.495     5726.321       16.197        3.266      508.143       72.083        0.020      337.086        8.820      862.841
01/07/2014  23:54:00     -218.124     -123.640       12.286      165.309      136.167       76.566    27327.078    18541.462     5862.370        5.736        2.587      250.729       79.899        0.102      337.060        8.776      862.846
01/07/2014  23:55:00     -362.654      -86.265      -35.208      147.752      120.030       66.714    21830.611    14407.224     4450.741        9.044        2.034      372.773       56.250        0.023      337.029        8.723      862.869
01/07/2014  23:56:00     -550.298      -38.009      -29.272      147.098      148.756       71.334    21637.932    22128.374     5088.514       17.698        2.443      551.609       73.570        0.018      337.067        8.788      862.891
01/07/2014  23:57:00     -371.314      -52.261      -39.912      132.039      119.558       58.556    17434.407    14294.203     3428.755        8.867        1.758      374.974       52.915        0.020      336.975        8.633      862.893
01/07/2014  23:58:00     -459.826      -79.021      -36.388      165.211      140.789       72.431    27294.679    19821.624     5246.211       13.568        2.618      466.566       74.452        0.025      337.007        8.687      862.875
01/07/2014  23:59:00     -381.960     -132.642      -15.230      190.575      128.763       76.588    36318.669    16579.782     5865.788       11.123        2.938      404.335       83.935        0.043      337.054        8.766      862.878
